<?xml version='1.0' encoding='UTF-8'?><gpx version="1.1" creator="JPX - https://github.com/jenetics/jpx" xmlns="http://www.topografix.com/GPX/1/1"><trk><trkseg><trkpt lat="41.9419803" lon="12.6497086"><ele>76.0</ele><time>2026-03-28T12:05:58.53Z</time></trkpt><trkpt lat="41.9426498" lon="12.6495082"><ele>76.0</ele><time>2026-03-28T12:08:40.583Z</time></trkpt><trkpt lat="41.9425839" lon="12.6495109"><ele>76.0</ele><time>2026-03-28T12:08:44.515Z</time></trkpt><trkpt lat="41.9426667" lon="12.6494896"><ele>76.0</ele><time>2026-03-28T12:08:53.535Z</time></trkpt><trkpt lat="41.9427672" lon="12.6494523"><ele>76.0</ele><time>2026-03-28T12:08:55.562Z</time></trkpt><trkpt lat="41.942865" lon="12.6494211"><ele>76.0</ele><time>2026-03-28T12:08:57.529Z</time></trkpt><trkpt lat="41.9429299" lon="12.6494132"><ele>76.0</ele><time>2026-03-28T12:08:59.532Z</time></trkpt><trkpt lat="41.9429974" lon="12.6493901"><ele>76.0</ele><time>2026-03-28T12:09:03.532Z</time></trkpt><trkpt lat="41.9430601" lon="12.6493751"><ele>76.0</ele><time>2026-03-28T12:09:08.526Z</time></trkpt><trkpt lat="41.9431262" lon="12.6493654"><ele>76.0</ele><time>2026-03-28T12:09:16.553Z</time></trkpt><trkpt lat="41.9431873" lon="12.6494161"><ele>76.0</ele><time>2026-03-28T12:09:19.536Z</time></trkpt><trkpt lat="41.9432363" lon="12.649479"><ele>76.0</ele><time>2026-03-28T12:09:22.571Z</time></trkpt><trkpt lat="41.9432932" lon="12.6495172"><ele>76.0</ele><time>2026-03-28T12:09:29.569Z</time></trkpt><trkpt lat="41.9433769" lon="12.6495594"><ele>76.0</ele><time>2026-03-28T12:09:31.573Z</time></trkpt><trkpt lat="41.9435027" lon="12.6495419"><ele>76.33333333333333</ele><time>2026-03-28T12:09:33.527Z</time></trkpt><trkpt lat="41.9435694" lon="12.6495013"><ele>76.66666666666666</ele><time>2026-03-28T12:09:34.51Z</time></trkpt><trkpt lat="41.9436166" lon="12.6494414"><ele>77.0</ele><time>2026-03-28T12:09:35.532Z</time></trkpt><trkpt lat="41.9436322" lon="12.6493586"><ele>77.33333333333333</ele><time>2026-03-28T12:09:36.529Z</time></trkpt><trkpt lat="41.9436187" lon="12.6492538"><ele>77.66666666666667</ele><time>2026-03-28T12:09:37.525Z</time></trkpt><trkpt lat="41.9435789" lon="12.6491413"><ele>78.0</ele><time>2026-03-28T12:09:38.543Z</time></trkpt><trkpt lat="41.9435203" lon="12.6490422"><ele>78.33333333333333</ele><time>2026-03-28T12:09:39.525Z</time></trkpt><trkpt lat="41.9434555" lon="12.6489656"><ele>78.66666666666667</ele><time>2026-03-28T12:09:40.547Z</time></trkpt><trkpt lat="41.9434011" lon="12.6489167"><ele>79.0</ele><time>2026-03-28T12:09:41.57Z</time></trkpt><trkpt lat="41.9433329" lon="12.6488376"><ele>79.33333333333334</ele><time>2026-03-28T12:09:43.641Z</time></trkpt><trkpt lat="41.943302" lon="12.6486796"><ele>79.66666666666667</ele><time>2026-03-28T12:09:45.541Z</time></trkpt><trkpt lat="41.9432831" lon="12.6485676"><ele>80.0</ele><time>2026-03-28T12:09:46.522Z</time></trkpt><trkpt lat="41.9432626" lon="12.6484406"><ele>80.0</ele><time>2026-03-28T12:09:47.57Z</time></trkpt><trkpt lat="41.9432406" lon="12.6483132"><ele>80.0</ele><time>2026-03-28T12:09:48.574Z</time></trkpt><trkpt lat="41.9432194" lon="12.6481874"><ele>80.0</ele><time>2026-03-28T12:09:49.525Z</time></trkpt><trkpt lat="41.9432" lon="12.6480447"><ele>80.0</ele><time>2026-03-28T12:09:50.578Z</time></trkpt><trkpt lat="41.9431772" lon="12.6479056"><ele>80.0</ele><time>2026-03-28T12:09:51.547Z</time></trkpt><trkpt lat="41.9431548" lon="12.6477674"><ele>80.0</ele><time>2026-03-28T12:09:52.545Z</time></trkpt><trkpt lat="41.9431348" lon="12.6476403"><ele>80.0</ele><time>2026-03-28T12:09:53.528Z</time></trkpt><trkpt lat="41.9431148" lon="12.6475337"><ele>80.0</ele><time>2026-03-28T12:09:54.536Z</time></trkpt><trkpt lat="41.943091" lon="12.6473797"><ele>80.0</ele><time>2026-03-28T12:09:56.546Z</time></trkpt><trkpt lat="41.9430825" lon="12.6472527"><ele>80.0</ele><time>2026-03-28T12:09:58.538Z</time></trkpt><trkpt lat="41.9430709" lon="12.6471669"><ele>80.0</ele><time>2026-03-28T12:10:02.55Z</time></trkpt><trkpt lat="41.9430608" lon="12.6472788"><ele>80.0</ele><time>2026-03-28T12:10:06.524Z</time></trkpt><trkpt lat="41.9430908" lon="12.6474442"><ele>80.0</ele><time>2026-03-28T12:10:08.522Z</time></trkpt><trkpt lat="41.9431008" lon="12.6475346"><ele>80.0</ele><time>2026-03-28T12:10:09.589Z</time></trkpt><trkpt lat="41.9431294" lon="12.6476488"><ele>80.0</ele><time>2026-03-28T12:10:11.563Z</time></trkpt><trkpt lat="41.9431933" lon="12.647673"><ele>80.0</ele><time>2026-03-28T12:10:13.547Z</time></trkpt><trkpt lat="41.9432876" lon="12.6476357"><ele>80.16666666666667</ele><time>2026-03-28T12:10:15.554Z</time></trkpt><trkpt lat="41.943409" lon="12.6475933"><ele>80.33333333333334</ele><time>2026-03-28T12:10:17.525Z</time></trkpt><trkpt lat="41.9434751" lon="12.6475735"><ele>80.5</ele><time>2026-03-28T12:10:18.557Z</time></trkpt><trkpt lat="41.9435468" lon="12.6475545"><ele>80.66666666666667</ele><time>2026-03-28T12:10:19.548Z</time></trkpt><trkpt lat="41.943618" lon="12.6475345"><ele>80.83333333333333</ele><time>2026-03-28T12:10:20.573Z</time></trkpt><trkpt lat="41.9436893" lon="12.6475171"><ele>81.0</ele><time>2026-03-28T12:10:21.552Z</time></trkpt><trkpt lat="41.9437668" lon="12.6475006"><ele>81.0</ele><time>2026-03-28T12:10:22.548Z</time></trkpt><trkpt lat="41.9438479" lon="12.6474842"><ele>81.0</ele><time>2026-03-28T12:10:23.534Z</time></trkpt><trkpt lat="41.9439371" lon="12.6474662"><ele>81.0</ele><time>2026-03-28T12:10:24.541Z</time></trkpt><trkpt lat="41.9440258" lon="12.6474429"><ele>81.0</ele><time>2026-03-28T12:10:25.541Z</time></trkpt><trkpt lat="41.9441096" lon="12.6474201"><ele>81.0</ele><time>2026-03-28T12:10:26.55Z</time></trkpt><trkpt lat="41.9441891" lon="12.6474027"><ele>81.0</ele><time>2026-03-28T12:10:27.556Z</time></trkpt><trkpt lat="41.9442648" lon="12.6473892"><ele>81.0</ele><time>2026-03-28T12:10:28.566Z</time></trkpt><trkpt lat="41.9443388" lon="12.6473787"><ele>81.0</ele><time>2026-03-28T12:10:29.534Z</time></trkpt><trkpt lat="41.944409" lon="12.6473662"><ele>81.0</ele><time>2026-03-28T12:10:30.544Z</time></trkpt><trkpt lat="41.9444778" lon="12.6473495"><ele>81.0</ele><time>2026-03-28T12:10:31.561Z</time></trkpt><trkpt lat="41.9445457" lon="12.6473288"><ele>81.0</ele><time>2026-03-28T12:10:32.552Z</time></trkpt><trkpt lat="41.9446116" lon="12.6473105"><ele>81.0</ele><time>2026-03-28T12:10:33.625Z</time></trkpt><trkpt lat="41.9446814" lon="12.6472842"><ele>81.0</ele><time>2026-03-28T12:10:35.552Z</time></trkpt><trkpt lat="41.9447036" lon="12.6471872"><ele>81.0</ele><time>2026-03-28T12:10:38.555Z</time></trkpt><trkpt lat="41.9446835" lon="12.6470088"><ele>81.0</ele><time>2026-03-28T12:10:40.536Z</time></trkpt><trkpt lat="41.9446601" lon="12.6468889"><ele>81.0</ele><time>2026-03-28T12:10:41.531Z</time></trkpt><trkpt lat="41.9446371" lon="12.6467596"><ele>81.0</ele><time>2026-03-28T12:10:42.552Z</time></trkpt><trkpt lat="41.9446121" lon="12.646617"><ele>81.0</ele><time>2026-03-28T12:10:43.559Z</time></trkpt><trkpt lat="41.9445849" lon="12.6464606"><ele>81.0</ele><time>2026-03-28T12:10:44.548Z</time></trkpt><trkpt lat="41.9445615" lon="12.6463031"><ele>81.0</ele><time>2026-03-28T12:10:45.53Z</time></trkpt><trkpt lat="41.9445383" lon="12.6461388"><ele>81.0</ele><time>2026-03-28T12:10:46.527Z</time></trkpt><trkpt lat="41.9445167" lon="12.6459752"><ele>81.0</ele><time>2026-03-28T12:10:47.565Z</time></trkpt><trkpt lat="41.9444924" lon="12.6458154"><ele>81.25</ele><time>2026-03-28T12:10:48.534Z</time></trkpt><trkpt lat="41.9444691" lon="12.645656"><ele>81.5</ele><time>2026-03-28T12:10:49.542Z</time></trkpt><trkpt lat="41.9444462" lon="12.6455006"><ele>81.75</ele><time>2026-03-28T12:10:50.598Z</time></trkpt><trkpt lat="41.9444244" lon="12.6453548"><ele>82.0</ele><time>2026-03-28T12:10:51.611Z</time></trkpt><trkpt lat="41.944404" lon="12.6452162"><ele>81.57142857142857</ele><time>2026-03-28T12:10:52.577Z</time></trkpt><trkpt lat="41.944386" lon="12.6450971"><ele>81.14285714285714</ele><time>2026-03-28T12:10:53.58Z</time></trkpt><trkpt lat="41.9443693" lon="12.6450141"><ele>80.71428571428572</ele><time>2026-03-28T12:10:54.568Z</time></trkpt><trkpt lat="41.9443753" lon="12.6449249"><ele>80.28571428571428</ele><time>2026-03-28T12:10:56.558Z</time></trkpt><trkpt lat="41.9444361" lon="12.6448898"><ele>79.85714285714286</ele><time>2026-03-28T12:11:00.568Z</time></trkpt><trkpt lat="41.9444995" lon="12.6448937"><ele>79.42857142857143</ele><time>2026-03-28T12:11:01.57Z</time></trkpt><trkpt lat="41.9445807" lon="12.6448956"><ele>79.0</ele><time>2026-03-28T12:11:02.546Z</time></trkpt><trkpt lat="41.9446757" lon="12.6448874"><ele>79.0</ele><time>2026-03-28T12:11:03.529Z</time></trkpt><trkpt lat="41.9447852" lon="12.6448797"><ele>79.0</ele><time>2026-03-28T12:11:04.544Z</time></trkpt><trkpt lat="41.9449008" lon="12.6448708"><ele>79.0</ele><time>2026-03-28T12:11:05.545Z</time></trkpt><trkpt lat="41.9450255" lon="12.6448614"><ele>79.0</ele><time>2026-03-28T12:11:06.547Z</time></trkpt><trkpt lat="41.945155" lon="12.6448542"><ele>79.0</ele><time>2026-03-28T12:11:07.519Z</time></trkpt><trkpt lat="41.9452933" lon="12.6448515"><ele>79.0</ele><time>2026-03-28T12:11:08.55Z</time></trkpt><trkpt lat="41.9454348" lon="12.6448628"><ele>79.0</ele><time>2026-03-28T12:11:09.559Z</time></trkpt><trkpt lat="41.9455738" lon="12.6448832"><ele>79.0</ele><time>2026-03-28T12:11:10.537Z</time></trkpt><trkpt lat="41.9457154" lon="12.644922"><ele>79.0</ele><time>2026-03-28T12:11:11.549Z</time></trkpt><trkpt lat="41.9458523" lon="12.6449719"><ele>79.0</ele><time>2026-03-28T12:11:12.547Z</time></trkpt><trkpt lat="41.9459843" lon="12.6450323"><ele>79.0</ele><time>2026-03-28T12:11:13.568Z</time></trkpt><trkpt lat="41.9461065" lon="12.6450991"><ele>79.0</ele><time>2026-03-28T12:11:14.568Z</time></trkpt><trkpt lat="41.9462159" lon="12.6451734"><ele>78.60000000000001</ele><time>2026-03-28T12:11:15.537Z</time></trkpt><trkpt lat="41.9463117" lon="12.6452497"><ele>78.2</ele><time>2026-03-28T12:11:16.582Z</time></trkpt><trkpt lat="41.9463872" lon="12.6453144"><ele>77.80000000000001</ele><time>2026-03-28T12:11:17.585Z</time></trkpt><trkpt lat="41.9464474" lon="12.6453625"><ele>77.4</ele><time>2026-03-28T12:11:18.689Z</time></trkpt><trkpt lat="41.9465439" lon="12.6454289"><ele>77.0</ele><time>2026-03-28T12:11:20.539Z</time></trkpt><trkpt lat="41.9466526" lon="12.6454934"><ele>77.5</ele><time>2026-03-28T12:11:22.582Z</time></trkpt><trkpt lat="41.9467372" lon="12.6455845"><ele>78.0</ele><time>2026-03-28T12:11:24.61Z</time></trkpt><trkpt lat="41.9467839" lon="12.6456461"><ele>78.5</ele><time>2026-03-28T12:11:25.568Z</time></trkpt><trkpt lat="41.946846" lon="12.6456936"><ele>79.0</ele><time>2026-03-28T12:11:26.57Z</time></trkpt><trkpt lat="41.9469273" lon="12.6457006"><ele>79.5</ele><time>2026-03-28T12:11:27.547Z</time></trkpt><trkpt lat="41.9470077" lon="12.6456609"><ele>80.0</ele><time>2026-03-28T12:11:28.556Z</time></trkpt><trkpt lat="41.9470664" lon="12.6455891"><ele>80.0</ele><time>2026-03-28T12:11:29.553Z</time></trkpt><trkpt lat="41.9471161" lon="12.6455062"><ele>80.0</ele><time>2026-03-28T12:11:30.59Z</time></trkpt><trkpt lat="41.9471738" lon="12.6454384"><ele>80.0</ele><time>2026-03-28T12:11:31.56Z</time></trkpt><trkpt lat="41.9472489" lon="12.6453985"><ele>80.0</ele><time>2026-03-28T12:11:32.536Z</time></trkpt><trkpt lat="41.9473323" lon="12.6453853"><ele>80.0</ele><time>2026-03-28T12:11:33.535Z</time></trkpt><trkpt lat="41.9474291" lon="12.645392"><ele>80.0</ele><time>2026-03-28T12:11:34.574Z</time></trkpt><trkpt lat="41.947532" lon="12.6454117"><ele>79.5</ele><time>2026-03-28T12:11:35.544Z</time></trkpt><trkpt lat="41.9476422" lon="12.6454447"><ele>79.0</ele><time>2026-03-28T12:11:36.539Z</time></trkpt><trkpt lat="41.9477557" lon="12.6454878"><ele>78.5</ele><time>2026-03-28T12:11:37.534Z</time></trkpt><trkpt lat="41.9478711" lon="12.6455269"><ele>78.0</ele><time>2026-03-28T12:11:38.546Z</time></trkpt><trkpt lat="41.9479968" lon="12.6455373"><ele>78.0</ele><time>2026-03-28T12:11:39.555Z</time></trkpt><trkpt lat="41.9481227" lon="12.6455106"><ele>78.0</ele><time>2026-03-28T12:11:40.534Z</time></trkpt><trkpt lat="41.9482411" lon="12.6454467"><ele>78.0</ele><time>2026-03-28T12:11:41.541Z</time></trkpt><trkpt lat="41.9483468" lon="12.6453507"><ele>78.0</ele><time>2026-03-28T12:11:42.579Z</time></trkpt><trkpt lat="41.9484275" lon="12.6452226"><ele>79.25</ele><time>2026-03-28T12:11:43.544Z</time></trkpt><trkpt lat="41.9484811" lon="12.6450679"><ele>80.5</ele><time>2026-03-28T12:11:44.531Z</time></trkpt><trkpt lat="41.9485075" lon="12.6449009"><ele>81.75</ele><time>2026-03-28T12:11:45.528Z</time></trkpt><trkpt lat="41.948515" lon="12.64473"><ele>83.0</ele><time>2026-03-28T12:11:46.53Z</time></trkpt><trkpt lat="41.9485158" lon="12.6445533"><ele>82.75</ele><time>2026-03-28T12:11:47.543Z</time></trkpt><trkpt lat="41.9485121" lon="12.6443725"><ele>82.5</ele><time>2026-03-28T12:11:48.523Z</time></trkpt><trkpt lat="41.9485053" lon="12.6441863"><ele>82.25</ele><time>2026-03-28T12:11:49.53Z</time></trkpt><trkpt lat="41.9484959" lon="12.6440004"><ele>82.0</ele><time>2026-03-28T12:11:50.527Z</time></trkpt><trkpt lat="41.9484915" lon="12.643814"><ele>81.0</ele><time>2026-03-28T12:11:51.552Z</time></trkpt><trkpt lat="41.9484994" lon="12.6436291"><ele>80.0</ele><time>2026-03-28T12:11:52.563Z</time></trkpt><trkpt lat="41.9485316" lon="12.6434444"><ele>79.0</ele><time>2026-03-28T12:11:53.598Z</time></trkpt><trkpt lat="41.9485901" lon="12.643276"><ele>78.0</ele><time>2026-03-28T12:11:54.55Z</time></trkpt><trkpt lat="41.9486774" lon="12.6431246"><ele>78.0</ele><time>2026-03-28T12:11:55.571Z</time></trkpt><trkpt lat="41.948781" lon="12.6430029"><ele>78.0</ele><time>2026-03-28T12:11:56.568Z</time></trkpt><trkpt lat="41.9488988" lon="12.6429204"><ele>78.0</ele><time>2026-03-28T12:11:57.56Z</time></trkpt><trkpt lat="41.9490237" lon="12.6428901"><ele>78.0</ele><time>2026-03-28T12:11:58.546Z</time></trkpt><trkpt lat="41.9491586" lon="12.6428951"><ele>77.5</ele><time>2026-03-28T12:11:59.565Z</time></trkpt><trkpt lat="41.9492896" lon="12.6429205"><ele>77.0</ele><time>2026-03-28T12:12:00.578Z</time></trkpt><trkpt lat="41.9494187" lon="12.6429694"><ele>76.5</ele><time>2026-03-28T12:12:01.553Z</time></trkpt><trkpt lat="41.9495506" lon="12.6430255"><ele>76.0</ele><time>2026-03-28T12:12:02.556Z</time></trkpt><trkpt lat="41.9496814" lon="12.6430759"><ele>76.0</ele><time>2026-03-28T12:12:03.588Z</time></trkpt><trkpt lat="41.9498132" lon="12.6431171"><ele>76.0</ele><time>2026-03-28T12:12:04.602Z</time></trkpt><trkpt lat="41.9499516" lon="12.6431337"><ele>76.0</ele><time>2026-03-28T12:12:05.712Z</time></trkpt><trkpt lat="41.9500815" lon="12.6431245"><ele>76.0</ele><time>2026-03-28T12:12:06.619Z</time></trkpt><trkpt lat="41.9502008" lon="12.6430931"><ele>76.39999999999999</ele><time>2026-03-28T12:12:07.598Z</time></trkpt><trkpt lat="41.9502914" lon="12.6430611"><ele>76.8</ele><time>2026-03-28T12:12:08.562Z</time></trkpt><trkpt lat="41.9503579" lon="12.6430549"><ele>77.19999999999999</ele><time>2026-03-28T12:12:09.579Z</time></trkpt><trkpt lat="41.950463" lon="12.643138"><ele>77.6</ele><time>2026-03-28T12:12:11.551Z</time></trkpt><trkpt lat="41.9505163" lon="12.6432209"><ele>78.0</ele><time>2026-03-28T12:12:12.531Z</time></trkpt><trkpt lat="41.9505721" lon="12.6433156"><ele>78.0</ele><time>2026-03-28T12:12:13.549Z</time></trkpt><trkpt lat="41.9506312" lon="12.6434194"><ele>78.0</ele><time>2026-03-28T12:12:14.565Z</time></trkpt><trkpt lat="41.9506934" lon="12.6435275"><ele>78.0</ele><time>2026-03-28T12:12:15.546Z</time></trkpt><trkpt lat="41.9507515" lon="12.6436278"><ele>78.0</ele><time>2026-03-28T12:12:16.551Z</time></trkpt><trkpt lat="41.9507999" lon="12.6437163"><ele>78.0</ele><time>2026-03-28T12:12:17.586Z</time></trkpt><trkpt lat="41.950841" lon="12.6437946"><ele>78.0</ele><time>2026-03-28T12:12:18.571Z</time></trkpt><trkpt lat="41.9508853" lon="12.6438747"><ele>79.0</ele><time>2026-03-28T12:12:19.574Z</time></trkpt><trkpt lat="41.9509252" lon="12.6439563"><ele>80.0</ele><time>2026-03-28T12:12:20.605Z</time></trkpt><trkpt lat="41.9509389" lon="12.6440753"><ele>81.0</ele><time>2026-03-28T12:12:22.581Z</time></trkpt><trkpt lat="41.9508422" lon="12.6441517"><ele>82.0</ele><time>2026-03-28T12:12:24.63Z</time></trkpt><trkpt lat="41.9507635" lon="12.6441862"><ele>83.0</ele><time>2026-03-28T12:12:25.643Z</time></trkpt><trkpt lat="41.9506744" lon="12.6442242"><ele>83.0</ele><time>2026-03-28T12:12:26.558Z</time></trkpt><trkpt lat="41.9505726" lon="12.6442769"><ele>83.0</ele><time>2026-03-28T12:12:27.546Z</time></trkpt><trkpt lat="41.9504683" lon="12.6443378"><ele>83.0</ele><time>2026-03-28T12:12:28.551Z</time></trkpt><trkpt lat="41.9503776" lon="12.6443994"><ele>83.0</ele><time>2026-03-28T12:12:29.597Z</time></trkpt><trkpt lat="41.9503111" lon="12.6444536"><ele>83.0</ele><time>2026-03-28T12:12:30.563Z</time></trkpt><trkpt lat="41.9502599" lon="12.6445145"><ele>83.83333333333334</ele><time>2026-03-28T12:12:31.54Z</time></trkpt><trkpt lat="41.9502099" lon="12.6445904"><ele>84.66666666666667</ele><time>2026-03-28T12:12:32.573Z</time></trkpt><trkpt lat="41.9501599" lon="12.6446824"><ele>85.5</ele><time>2026-03-28T12:12:33.63Z</time></trkpt><trkpt lat="41.9501069" lon="12.6447806"><ele>86.33333333333333</ele><time>2026-03-28T12:12:34.591Z</time></trkpt><trkpt lat="41.9500489" lon="12.6448871"><ele>87.16666666666666</ele><time>2026-03-28T12:12:35.654Z</time></trkpt><trkpt lat="41.9499939" lon="12.6449849"><ele>88.0</ele><time>2026-03-28T12:12:36.59Z</time></trkpt><trkpt lat="41.9499433" lon="12.6450761"><ele>88.0</ele><time>2026-03-28T12:12:37.593Z</time></trkpt><trkpt lat="41.9498957" lon="12.645159"><ele>88.0</ele><time>2026-03-28T12:12:38.582Z</time></trkpt><trkpt lat="41.9498541" lon="12.6452334"><ele>88.0</ele><time>2026-03-28T12:12:39.566Z</time></trkpt><trkpt lat="41.9498359" lon="12.6453749"><ele>88.0</ele><time>2026-03-28T12:12:41.644Z</time></trkpt><trkpt lat="41.9499147" lon="12.6455274"><ele>88.0</ele><time>2026-03-28T12:12:43.53Z</time></trkpt><trkpt lat="41.9499769" lon="12.6456199"><ele>88.2</ele><time>2026-03-28T12:12:44.569Z</time></trkpt><trkpt lat="41.9500387" lon="12.6457137"><ele>88.4</ele><time>2026-03-28T12:12:45.575Z</time></trkpt><trkpt lat="41.9501061" lon="12.6458252"><ele>88.60000000000001</ele><time>2026-03-28T12:12:46.661Z</time></trkpt><trkpt lat="41.9501798" lon="12.6459408"><ele>88.80000000000001</ele><time>2026-03-28T12:12:47.586Z</time></trkpt><trkpt lat="41.950261" lon="12.6460726"><ele>89.0</ele><time>2026-03-28T12:12:48.579Z</time></trkpt><trkpt lat="41.9503445" lon="12.6462091"><ele>90.25</ele><time>2026-03-28T12:12:49.532Z</time></trkpt><trkpt lat="41.9504297" lon="12.646353"><ele>91.5</ele><time>2026-03-28T12:12:50.541Z</time></trkpt><trkpt lat="41.9505148" lon="12.6464959"><ele>92.75</ele><time>2026-03-28T12:12:51.565Z</time></trkpt><trkpt lat="41.9505965" lon="12.6466364"><ele>94.0</ele><time>2026-03-28T12:12:52.532Z</time></trkpt><trkpt lat="41.9506788" lon="12.6467716"><ele>94.0</ele><time>2026-03-28T12:12:53.551Z</time></trkpt><trkpt lat="41.9507534" lon="12.6468928"><ele>94.0</ele><time>2026-03-28T12:12:54.542Z</time></trkpt><trkpt lat="41.9508211" lon="12.6470074"><ele>94.0</ele><time>2026-03-28T12:12:55.573Z</time></trkpt><trkpt lat="41.9508867" lon="12.6471204"><ele>94.0</ele><time>2026-03-28T12:12:56.586Z</time></trkpt><trkpt lat="41.9509608" lon="12.6472377"><ele>94.0</ele><time>2026-03-28T12:12:57.544Z</time></trkpt><trkpt lat="41.9510386" lon="12.6473685"><ele>92.75</ele><time>2026-03-28T12:12:58.541Z</time></trkpt><trkpt lat="41.9511152" lon="12.6474986"><ele>91.5</ele><time>2026-03-28T12:12:59.601Z</time></trkpt><trkpt lat="41.9511841" lon="12.647619"><ele>90.25</ele><time>2026-03-28T12:13:00.564Z</time></trkpt><trkpt lat="41.9512523" lon="12.6477346"><ele>89.0</ele><time>2026-03-28T12:13:01.556Z</time></trkpt><trkpt lat="41.9513198" lon="12.6478459"><ele>88.80000000000001</ele><time>2026-03-28T12:13:02.549Z</time></trkpt><trkpt lat="41.9513898" lon="12.6479581"><ele>88.60000000000001</ele><time>2026-03-28T12:13:03.559Z</time></trkpt><trkpt lat="41.9514565" lon="12.6480713"><ele>88.4</ele><time>2026-03-28T12:13:04.567Z</time></trkpt><trkpt lat="41.9515182" lon="12.6481775"><ele>88.2</ele><time>2026-03-28T12:13:05.548Z</time></trkpt><trkpt lat="41.9515773" lon="12.6482789"><ele>88.0</ele><time>2026-03-28T12:13:06.584Z</time></trkpt><trkpt lat="41.951635" lon="12.6483746"><ele>88.0</ele><time>2026-03-28T12:13:07.555Z</time></trkpt><trkpt lat="41.9516976" lon="12.6484733"><ele>88.0</ele><time>2026-03-28T12:13:08.573Z</time></trkpt><trkpt lat="41.9517601" lon="12.6485726"><ele>88.0</ele><time>2026-03-28T12:13:09.548Z</time></trkpt><trkpt lat="41.9518206" lon="12.6486745"><ele>88.0</ele><time>2026-03-28T12:13:10.557Z</time></trkpt><trkpt lat="41.9518811" lon="12.6487784"><ele>88.0</ele><time>2026-03-28T12:13:11.553Z</time></trkpt><trkpt lat="41.9519427" lon="12.6488841"><ele>86.2</ele><time>2026-03-28T12:13:12.533Z</time></trkpt><trkpt lat="41.9520053" lon="12.6489958"><ele>84.4</ele><time>2026-03-28T12:13:13.566Z</time></trkpt><trkpt lat="41.9520692" lon="12.6491054"><ele>82.60000000000001</ele><time>2026-03-28T12:13:14.61Z</time></trkpt><trkpt lat="41.9521301" lon="12.6492086"><ele>80.80000000000001</ele><time>2026-03-28T12:13:15.563Z</time></trkpt><trkpt lat="41.9521896" lon="12.6493185"><ele>79.0</ele><time>2026-03-28T12:13:16.625Z</time></trkpt><trkpt lat="41.9522464" lon="12.6494247"><ele>78.8</ele><time>2026-03-28T12:13:17.643Z</time></trkpt><trkpt lat="41.9523008" lon="12.6495216"><ele>78.60000000000001</ele><time>2026-03-28T12:13:18.596Z</time></trkpt><trkpt lat="41.9523518" lon="12.6496085"><ele>78.4</ele><time>2026-03-28T12:13:19.557Z</time></trkpt><trkpt lat="41.9524104" lon="12.6497235"><ele>78.2</ele><time>2026-03-28T12:13:21.59Z</time></trkpt><trkpt lat="41.9523999" lon="12.6498194"><ele>78.0</ele><time>2026-03-28T12:13:24.543Z</time></trkpt><trkpt lat="41.952376" lon="12.6499978"><ele>78.0</ele><time>2026-03-28T12:13:26.55Z</time></trkpt><trkpt lat="41.9523573" lon="12.6501174"><ele>78.0</ele><time>2026-03-28T12:13:27.548Z</time></trkpt><trkpt lat="41.9523302" lon="12.6502491"><ele>78.0</ele><time>2026-03-28T12:13:28.542Z</time></trkpt><trkpt lat="41.9523008" lon="12.6503851"><ele>78.0</ele><time>2026-03-28T12:13:29.558Z</time></trkpt><trkpt lat="41.9522753" lon="12.6505121"><ele>78.0</ele><time>2026-03-28T12:13:30.563Z</time></trkpt><trkpt lat="41.9522504" lon="12.6506335"><ele>78.5</ele><time>2026-03-28T12:13:31.554Z</time></trkpt><trkpt lat="41.9522235" lon="12.6507472"><ele>79.0</ele><time>2026-03-28T12:13:32.552Z</time></trkpt><trkpt lat="41.9522001" lon="12.6508527"><ele>79.5</ele><time>2026-03-28T12:13:33.596Z</time></trkpt><trkpt lat="41.9521788" lon="12.650945"><ele>80.0</ele><time>2026-03-28T12:13:34.559Z</time></trkpt><trkpt lat="41.952158" lon="12.6510356"><ele>80.5</ele><time>2026-03-28T12:13:35.575Z</time></trkpt><trkpt lat="41.9521374" lon="12.6511318"><ele>81.0</ele><time>2026-03-28T12:13:36.555Z</time></trkpt><trkpt lat="41.9521172" lon="12.6512298"><ele>81.0</ele><time>2026-03-28T12:13:37.567Z</time></trkpt><trkpt lat="41.9521034" lon="12.6513236"><ele>81.0</ele><time>2026-03-28T12:13:38.55Z</time></trkpt><trkpt lat="41.9520949" lon="12.6514091"><ele>81.0</ele><time>2026-03-28T12:13:39.547Z</time></trkpt><trkpt lat="41.9520716" lon="12.6515772"><ele>81.0</ele><time>2026-03-28T12:13:41.557Z</time></trkpt><trkpt lat="41.9520554" lon="12.6516754"><ele>81.0</ele><time>2026-03-28T12:13:42.572Z</time></trkpt><trkpt lat="41.952039" lon="12.6517653"><ele>81.0</ele><time>2026-03-28T12:13:43.553Z</time></trkpt><trkpt lat="41.9520071" lon="12.6519181"><ele>81.33333333333333</ele><time>2026-03-28T12:13:45.541Z</time></trkpt><trkpt lat="41.9519805" lon="12.6520186"><ele>81.66666666666667</ele><time>2026-03-28T12:13:46.544Z</time></trkpt><trkpt lat="41.9519526" lon="12.6521292"><ele>82.0</ele><time>2026-03-28T12:13:47.569Z</time></trkpt><trkpt lat="41.9519342" lon="12.6522355"><ele>82.33333333333334</ele><time>2026-03-28T12:13:48.564Z</time></trkpt><trkpt lat="41.9519129" lon="12.6523279"><ele>82.66666666666667</ele><time>2026-03-28T12:13:49.583Z</time></trkpt><trkpt lat="41.9518935" lon="12.6524163"><ele>83.0</ele><time>2026-03-28T12:13:50.57Z</time></trkpt><trkpt lat="41.9518618" lon="12.6525554"><ele>83.0</ele><time>2026-03-28T12:13:52.57Z</time></trkpt><trkpt lat="41.9518256" lon="12.6526913"><ele>83.0</ele><time>2026-03-28T12:13:54.563Z</time></trkpt><trkpt lat="41.9517686" lon="12.6527557"><ele>83.0</ele><time>2026-03-28T12:13:56.565Z</time></trkpt><trkpt lat="41.9516776" lon="12.6528085"><ele>83.0</ele><time>2026-03-28T12:13:58.542Z</time></trkpt><trkpt lat="41.9516098" lon="12.6529448"><ele>83.0</ele><time>2026-03-28T12:14:00.61Z</time></trkpt><trkpt lat="41.9516127" lon="12.6530324"><ele>83.66666666666667</ele><time>2026-03-28T12:14:01.587Z</time></trkpt><trkpt lat="41.9516374" lon="12.6531204"><ele>84.33333333333334</ele><time>2026-03-28T12:14:02.573Z</time></trkpt><trkpt lat="41.9516889" lon="12.6531895"><ele>85.0</ele><time>2026-03-28T12:14:03.563Z</time></trkpt><trkpt lat="41.951756" lon="12.6532189"><ele>85.66666666666667</ele><time>2026-03-28T12:14:04.537Z</time></trkpt><trkpt lat="41.9518308" lon="12.6532482"><ele>86.33333333333333</ele><time>2026-03-28T12:14:05.56Z</time></trkpt><trkpt lat="41.9519058" lon="12.6533091"><ele>87.0</ele><time>2026-03-28T12:14:06.569Z</time></trkpt><trkpt lat="41.951983" lon="12.653406"><ele>87.0</ele><time>2026-03-28T12:14:07.543Z</time></trkpt><trkpt lat="41.9520673" lon="12.6535421"><ele>87.0</ele><time>2026-03-28T12:14:08.545Z</time></trkpt><trkpt lat="41.952171" lon="12.6537182"><ele>87.0</ele><time>2026-03-28T12:14:09.546Z</time></trkpt><trkpt lat="41.9522891" lon="12.6539052"><ele>88.33333333333333</ele><time>2026-03-28T12:14:10.541Z</time></trkpt><trkpt lat="41.9524117" lon="12.6541127"><ele>89.66666666666666</ele><time>2026-03-28T12:14:11.532Z</time></trkpt><trkpt lat="41.9525426" lon="12.6543222"><ele>91.0</ele><time>2026-03-28T12:14:12.556Z</time></trkpt><trkpt lat="41.9526814" lon="12.6545323"><ele>91.33333333333333</ele><time>2026-03-28T12:14:13.547Z</time></trkpt><trkpt lat="41.9528273" lon="12.6547486"><ele>91.66666666666667</ele><time>2026-03-28T12:14:14.56Z</time></trkpt><trkpt lat="41.9529704" lon="12.6549648"><ele>92.0</ele><time>2026-03-28T12:14:15.544Z</time></trkpt><trkpt lat="41.9531122" lon="12.6551751"><ele>93.33333333333334</ele><time>2026-03-28T12:14:16.552Z</time></trkpt><trkpt lat="41.9532537" lon="12.6553866"><ele>94.66666666666667</ele><time>2026-03-28T12:14:17.568Z</time></trkpt><trkpt lat="41.953395" lon="12.6556012"><ele>96.0</ele><time>2026-03-28T12:14:18.568Z</time></trkpt><trkpt lat="41.9535371" lon="12.6558131"><ele>96.33333333333334</ele><time>2026-03-28T12:14:19.568Z</time></trkpt><trkpt lat="41.9536772" lon="12.6560225"><ele>96.66666666666667</ele><time>2026-03-28T12:14:20.536Z</time></trkpt><trkpt lat="41.9538197" lon="12.656234"><ele>97.0</ele><time>2026-03-28T12:14:21.544Z</time></trkpt><trkpt lat="41.9539596" lon="12.6564473"><ele>97.0</ele><time>2026-03-28T12:14:22.556Z</time></trkpt><trkpt lat="41.9541021" lon="12.6566566"><ele>97.0</ele><time>2026-03-28T12:14:23.532Z</time></trkpt><trkpt lat="41.9542377" lon="12.6568652"><ele>97.0</ele><time>2026-03-28T12:14:24.535Z</time></trkpt><trkpt lat="41.9543694" lon="12.657068"><ele>96.33333333333334</ele><time>2026-03-28T12:14:25.577Z</time></trkpt><trkpt lat="41.9545032" lon="12.6572745"><ele>95.66666666666667</ele><time>2026-03-28T12:14:26.555Z</time></trkpt><trkpt lat="41.9546334" lon="12.6574779"><ele>95.0</ele><time>2026-03-28T12:14:27.549Z</time></trkpt><trkpt lat="41.9547594" lon="12.6576797"><ele>94.0</ele><time>2026-03-28T12:14:28.641Z</time></trkpt><trkpt lat="41.9549724" lon="12.6580612"><ele>93.0</ele><time>2026-03-28T12:14:30.529Z</time></trkpt><trkpt lat="41.9550647" lon="12.6582601"><ele>93.0</ele><time>2026-03-28T12:14:31.528Z</time></trkpt><trkpt lat="41.955154" lon="12.6584606"><ele>93.0</ele><time>2026-03-28T12:14:32.527Z</time></trkpt><trkpt lat="41.9552447" lon="12.6586637"><ele>93.0</ele><time>2026-03-28T12:14:33.522Z</time></trkpt><trkpt lat="41.9553394" lon="12.6588636"><ele>92.0</ele><time>2026-03-28T12:14:34.521Z</time></trkpt><trkpt lat="41.9554445" lon="12.6590586"><ele>91.0</ele><time>2026-03-28T12:14:35.539Z</time></trkpt><trkpt lat="41.9555542" lon="12.6592507"><ele>90.0</ele><time>2026-03-28T12:14:36.536Z</time></trkpt><trkpt lat="41.9556682" lon="12.6594415"><ele>90.66666666666667</ele><time>2026-03-28T12:14:37.529Z</time></trkpt><trkpt lat="41.9557845" lon="12.6596262"><ele>91.33333333333334</ele><time>2026-03-28T12:14:38.537Z</time></trkpt><trkpt lat="41.9559077" lon="12.6598028"><ele>92.0</ele><time>2026-03-28T12:14:39.553Z</time></trkpt><trkpt lat="41.9560293" lon="12.6599727"><ele>92.0</ele><time>2026-03-28T12:14:40.531Z</time></trkpt><trkpt lat="41.9561534" lon="12.6601366"><ele>92.0</ele><time>2026-03-28T12:14:41.532Z</time></trkpt><trkpt lat="41.9562744" lon="12.6602913"><ele>92.0</ele><time>2026-03-28T12:14:42.529Z</time></trkpt><trkpt lat="41.9563967" lon="12.6604447"><ele>91.66666666666667</ele><time>2026-03-28T12:14:43.533Z</time></trkpt><trkpt lat="41.9565219" lon="12.66059"><ele>91.33333333333333</ele><time>2026-03-28T12:14:44.537Z</time></trkpt><trkpt lat="41.9566517" lon="12.6607289"><ele>91.0</ele><time>2026-03-28T12:14:45.523Z</time></trkpt><trkpt lat="41.9567844" lon="12.6608624"><ele>91.0</ele><time>2026-03-28T12:14:46.537Z</time></trkpt><trkpt lat="41.9569218" lon="12.6609991"><ele>91.0</ele><time>2026-03-28T12:14:47.533Z</time></trkpt><trkpt lat="41.9570572" lon="12.6611378"><ele>91.0</ele><time>2026-03-28T12:14:48.528Z</time></trkpt><trkpt lat="41.9571961" lon="12.6612767"><ele>90.66666666666666</ele><time>2026-03-28T12:14:49.529Z</time></trkpt><trkpt lat="41.9573399" lon="12.6614097"><ele>90.33333333333333</ele><time>2026-03-28T12:14:50.533Z</time></trkpt><trkpt lat="41.9574816" lon="12.661547"><ele>90.0</ele><time>2026-03-28T12:14:51.526Z</time></trkpt><trkpt lat="41.9576245" lon="12.661682"><ele>90.0</ele><time>2026-03-28T12:14:52.537Z</time></trkpt><trkpt lat="41.9577674" lon="12.6618194"><ele>90.0</ele><time>2026-03-28T12:14:53.517Z</time></trkpt><trkpt lat="41.9579084" lon="12.6619569"><ele>90.0</ele><time>2026-03-28T12:14:54.516Z</time></trkpt><trkpt lat="41.9580473" lon="12.6620922"><ele>90.66666666666667</ele><time>2026-03-28T12:14:55.523Z</time></trkpt><trkpt lat="41.9581874" lon="12.6622276"><ele>91.33333333333334</ele><time>2026-03-28T12:14:56.532Z</time></trkpt><trkpt lat="41.9583266" lon="12.6623632"><ele>92.0</ele><time>2026-03-28T12:14:57.556Z</time></trkpt><trkpt lat="41.9584618" lon="12.6624987"><ele>92.0</ele><time>2026-03-28T12:14:58.523Z</time></trkpt><trkpt lat="41.9586008" lon="12.6626307"><ele>92.0</ele><time>2026-03-28T12:14:59.535Z</time></trkpt><trkpt lat="41.958738" lon="12.6627606"><ele>92.0</ele><time>2026-03-28T12:15:00.534Z</time></trkpt><trkpt lat="41.9588779" lon="12.6628917"><ele>93.33333333333334</ele><time>2026-03-28T12:15:01.526Z</time></trkpt><trkpt lat="41.9590199" lon="12.6630261"><ele>94.66666666666667</ele><time>2026-03-28T12:15:02.54Z</time></trkpt><trkpt lat="41.9591677" lon="12.6631611"><ele>96.0</ele><time>2026-03-28T12:15:03.535Z</time></trkpt><trkpt lat="41.959327" lon="12.6632911"><ele>96.0</ele><time>2026-03-28T12:15:04.535Z</time></trkpt><trkpt lat="41.9594933" lon="12.6634205"><ele>96.0</ele><time>2026-03-28T12:15:05.519Z</time></trkpt><trkpt lat="41.959661" lon="12.6635583"><ele>96.0</ele><time>2026-03-28T12:15:06.532Z</time></trkpt><trkpt lat="41.9598268" lon="12.6636936"><ele>97.0</ele><time>2026-03-28T12:15:07.521Z</time></trkpt><trkpt lat="41.9599869" lon="12.6638322"><ele>98.0</ele><time>2026-03-28T12:15:08.534Z</time></trkpt><trkpt lat="41.9601462" lon="12.6639704"><ele>99.0</ele><time>2026-03-28T12:15:09.537Z</time></trkpt><trkpt lat="41.9603055" lon="12.6641076"><ele>99.0</ele><time>2026-03-28T12:15:10.523Z</time></trkpt><trkpt lat="41.9604658" lon="12.6642525"><ele>99.0</ele><time>2026-03-28T12:15:11.523Z</time></trkpt><trkpt lat="41.9606235" lon="12.6644123"><ele>99.0</ele><time>2026-03-28T12:15:12.512Z</time></trkpt><trkpt lat="41.9607722" lon="12.6645887"><ele>99.66666666666666</ele><time>2026-03-28T12:15:13.529Z</time></trkpt><trkpt lat="41.9609082" lon="12.6647776"><ele>100.33333333333333</ele><time>2026-03-28T12:15:14.543Z</time></trkpt><trkpt lat="41.9610349" lon="12.6649834"><ele>101.0</ele><time>2026-03-28T12:15:15.52Z</time></trkpt><trkpt lat="41.9611494" lon="12.6651968"><ele>102.66666666666666</ele><time>2026-03-28T12:15:16.525Z</time></trkpt><trkpt lat="41.9612558" lon="12.6654184"><ele>104.33333333333334</ele><time>2026-03-28T12:15:17.541Z</time></trkpt><trkpt lat="41.9613523" lon="12.6656481"><ele>106.0</ele><time>2026-03-28T12:15:18.533Z</time></trkpt><trkpt lat="41.9614432" lon="12.6658833"><ele>106.66666666666667</ele><time>2026-03-28T12:15:19.523Z</time></trkpt><trkpt lat="41.9615341" lon="12.6661116"><ele>107.33333333333334</ele><time>2026-03-28T12:15:20.518Z</time></trkpt><trkpt lat="41.9616252" lon="12.6663408"><ele>108.0</ele><time>2026-03-28T12:15:21.546Z</time></trkpt><trkpt lat="41.96172" lon="12.666568"><ele>109.0</ele><time>2026-03-28T12:15:22.542Z</time></trkpt><trkpt lat="41.9618121" lon="12.6667983"><ele>110.0</ele><time>2026-03-28T12:15:23.516Z</time></trkpt><trkpt lat="41.9619091" lon="12.6670231"><ele>111.0</ele><time>2026-03-28T12:15:24.524Z</time></trkpt><trkpt lat="41.9620054" lon="12.6672491"><ele>111.0</ele><time>2026-03-28T12:15:25.527Z</time></trkpt><trkpt lat="41.9621013" lon="12.6674788"><ele>111.0</ele><time>2026-03-28T12:15:26.543Z</time></trkpt><trkpt lat="41.9621968" lon="12.6677106"><ele>111.0</ele><time>2026-03-28T12:15:27.526Z</time></trkpt><trkpt lat="41.9622922" lon="12.6679387"><ele>110.66666666666666</ele><time>2026-03-28T12:15:28.541Z</time></trkpt><trkpt lat="41.9623863" lon="12.6681669"><ele>110.33333333333333</ele><time>2026-03-28T12:15:29.516Z</time></trkpt><trkpt lat="41.9624788" lon="12.6683929"><ele>110.0</ele><time>2026-03-28T12:15:30.529Z</time></trkpt><trkpt lat="41.9625719" lon="12.6686141"><ele>112.0</ele><time>2026-03-28T12:15:31.527Z</time></trkpt><trkpt lat="41.9626644" lon="12.6688362"><ele>114.0</ele><time>2026-03-28T12:15:32.549Z</time></trkpt><trkpt lat="41.9627583" lon="12.6690495"><ele>116.0</ele><time>2026-03-28T12:15:33.521Z</time></trkpt><trkpt lat="41.9628578" lon="12.6692552"><ele>114.66666666666666</ele><time>2026-03-28T12:15:34.526Z</time></trkpt><trkpt lat="41.9629674" lon="12.6694525"><ele>113.33333333333334</ele><time>2026-03-28T12:15:35.523Z</time></trkpt><trkpt lat="41.9630937" lon="12.6696408"><ele>112.0</ele><time>2026-03-28T12:15:36.532Z</time></trkpt><trkpt lat="41.9632296" lon="12.6698175"><ele>111.66666666666667</ele><time>2026-03-28T12:15:37.543Z</time></trkpt><trkpt lat="41.963375" lon="12.6699832"><ele>111.33333333333334</ele><time>2026-03-28T12:15:38.529Z</time></trkpt><trkpt lat="41.9635274" lon="12.6701369"><ele>111.0</ele><time>2026-03-28T12:15:39.527Z</time></trkpt><trkpt lat="41.9636905" lon="12.6702763"><ele>111.66666666666666</ele><time>2026-03-28T12:15:40.552Z</time></trkpt><trkpt lat="41.9638565" lon="12.6704128"><ele>112.33333333333333</ele><time>2026-03-28T12:15:41.537Z</time></trkpt><trkpt lat="41.9640225" lon="12.6705385"><ele>113.0</ele><time>2026-03-28T12:15:42.528Z</time></trkpt><trkpt lat="41.9641954" lon="12.6706678"><ele>111.33333333333333</ele><time>2026-03-28T12:15:43.529Z</time></trkpt><trkpt lat="41.9643662" lon="12.6707918"><ele>109.66666666666666</ele><time>2026-03-28T12:15:44.536Z</time></trkpt><trkpt lat="41.9645438" lon="12.6709159"><ele>108.0</ele><time>2026-03-28T12:15:45.512Z</time></trkpt><trkpt lat="41.9647201" lon="12.6710426"><ele>110.33333333333334</ele><time>2026-03-28T12:15:46.52Z</time></trkpt><trkpt lat="41.9648971" lon="12.6711701"><ele>112.66666666666667</ele><time>2026-03-28T12:15:47.513Z</time></trkpt><trkpt lat="41.9650722" lon="12.6712968"><ele>115.0</ele><time>2026-03-28T12:15:48.521Z</time></trkpt><trkpt lat="41.9652439" lon="12.6714248"><ele>115.0</ele><time>2026-03-28T12:15:49.535Z</time></trkpt><trkpt lat="41.9654157" lon="12.6715547"><ele>115.0</ele><time>2026-03-28T12:15:50.527Z</time></trkpt><trkpt lat="41.9655856" lon="12.6716792"><ele>115.0</ele><time>2026-03-28T12:15:51.538Z</time></trkpt><trkpt lat="41.9657568" lon="12.671802"><ele>115.0</ele><time>2026-03-28T12:15:52.525Z</time></trkpt><trkpt lat="41.9659264" lon="12.6719278"><ele>115.0</ele><time>2026-03-28T12:15:53.547Z</time></trkpt><trkpt lat="41.9660967" lon="12.6720568"><ele>115.0</ele><time>2026-03-28T12:15:54.519Z</time></trkpt><trkpt lat="41.9662595" lon="12.6722061"><ele>115.0</ele><time>2026-03-28T12:15:55.527Z</time></trkpt><trkpt lat="41.966411" lon="12.6723758"><ele>115.0</ele><time>2026-03-28T12:15:56.522Z</time></trkpt><trkpt lat="41.9665605" lon="12.672559"><ele>115.0</ele><time>2026-03-28T12:15:57.517Z</time></trkpt><trkpt lat="41.9667068" lon="12.6727487"><ele>115.33333333333334</ele><time>2026-03-28T12:15:58.528Z</time></trkpt><trkpt lat="41.9668528" lon="12.6729357"><ele>115.66666666666666</ele><time>2026-03-28T12:15:59.534Z</time></trkpt><trkpt lat="41.9670003" lon="12.6731246"><ele>116.0</ele><time>2026-03-28T12:16:00.513Z</time></trkpt><trkpt lat="41.9671499" lon="12.6733151"><ele>116.0</ele><time>2026-03-28T12:16:01.544Z</time></trkpt><trkpt lat="41.9672999" lon="12.6735064"><ele>116.0</ele><time>2026-03-28T12:16:02.539Z</time></trkpt><trkpt lat="41.9674471" lon="12.6736959"><ele>116.0</ele><time>2026-03-28T12:16:03.534Z</time></trkpt><trkpt lat="41.9675907" lon="12.6738925"><ele>116.0</ele><time>2026-03-28T12:16:04.54Z</time></trkpt><trkpt lat="41.9677259" lon="12.6740947"><ele>116.0</ele><time>2026-03-28T12:16:05.519Z</time></trkpt><trkpt lat="41.9678508" lon="12.6743075"><ele>116.0</ele><time>2026-03-28T12:16:06.533Z</time></trkpt><trkpt lat="41.9679633" lon="12.6745311"><ele>115.0</ele><time>2026-03-28T12:16:07.531Z</time></trkpt><trkpt lat="41.9680684" lon="12.6747627"><ele>114.0</ele><time>2026-03-28T12:16:08.538Z</time></trkpt><trkpt lat="41.9681625" lon="12.6750084"><ele>113.0</ele><time>2026-03-28T12:16:09.526Z</time></trkpt><trkpt lat="41.9682395" lon="12.6752633"><ele>112.33333333333333</ele><time>2026-03-28T12:16:10.527Z</time></trkpt><trkpt lat="41.9682971" lon="12.6755244"><ele>111.66666666666666</ele><time>2026-03-28T12:16:11.532Z</time></trkpt><trkpt lat="41.9683361" lon="12.6757911"><ele>111.0</ele><time>2026-03-28T12:16:12.537Z</time></trkpt><trkpt lat="41.9683576" lon="12.6760652"><ele>111.0</ele><time>2026-03-28T12:16:13.525Z</time></trkpt><trkpt lat="41.9683639" lon="12.6763387"><ele>111.0</ele><time>2026-03-28T12:16:14.533Z</time></trkpt><trkpt lat="41.9683613" lon="12.6766115"><ele>111.0</ele><time>2026-03-28T12:16:15.525Z</time></trkpt><trkpt lat="41.9683544" lon="12.676894"><ele>110.66666666666666</ele><time>2026-03-28T12:16:16.52Z</time></trkpt><trkpt lat="41.9683468" lon="12.677173"><ele>110.33333333333333</ele><time>2026-03-28T12:16:17.519Z</time></trkpt><trkpt lat="41.9683388" lon="12.6774529"><ele>110.0</ele><time>2026-03-28T12:16:18.536Z</time></trkpt><trkpt lat="41.9683297" lon="12.6777327"><ele>108.66666666666666</ele><time>2026-03-28T12:16:19.541Z</time></trkpt><trkpt lat="41.9683217" lon="12.6780185"><ele>107.33333333333334</ele><time>2026-03-28T12:16:20.535Z</time></trkpt><trkpt lat="41.9683162" lon="12.6783052"><ele>106.0</ele><time>2026-03-28T12:16:21.532Z</time></trkpt><trkpt lat="41.9683091" lon="12.6785892"><ele>106.0</ele><time>2026-03-28T12:16:22.516Z</time></trkpt><trkpt lat="41.9683022" lon="12.6788744"><ele>106.0</ele><time>2026-03-28T12:16:23.541Z</time></trkpt><trkpt lat="41.9683017" lon="12.679157"><ele>106.0</ele><time>2026-03-28T12:16:24.524Z</time></trkpt><trkpt lat="41.9683054" lon="12.6794415"><ele>106.0</ele><time>2026-03-28T12:16:25.536Z</time></trkpt><trkpt lat="41.968318" lon="12.6797272"><ele>106.0</ele><time>2026-03-28T12:16:26.528Z</time></trkpt><trkpt lat="41.9683421" lon="12.6800104"><ele>106.0</ele><time>2026-03-28T12:16:27.524Z</time></trkpt><trkpt lat="41.9683802" lon="12.6802906"><ele>106.0</ele><time>2026-03-28T12:16:28.552Z</time></trkpt><trkpt lat="41.9684254" lon="12.6805667"><ele>106.0</ele><time>2026-03-28T12:16:29.535Z</time></trkpt><trkpt lat="41.9684711" lon="12.6808459"><ele>106.0</ele><time>2026-03-28T12:16:30.53Z</time></trkpt><trkpt lat="41.9685125" lon="12.6811281"><ele>103.33333333333334</ele><time>2026-03-28T12:16:31.525Z</time></trkpt><trkpt lat="41.9685516" lon="12.6814116"><ele>100.66666666666666</ele><time>2026-03-28T12:16:32.538Z</time></trkpt><trkpt lat="41.9685898" lon="12.6816918"><ele>98.0</ele><time>2026-03-28T12:16:33.539Z</time></trkpt><trkpt lat="41.9686295" lon="12.6819726"><ele>97.66666666666666</ele><time>2026-03-28T12:16:34.529Z</time></trkpt><trkpt lat="41.9686672" lon="12.6822533"><ele>97.33333333333334</ele><time>2026-03-28T12:16:35.525Z</time></trkpt><trkpt lat="41.9687086" lon="12.6825358"><ele>97.0</ele><time>2026-03-28T12:16:36.519Z</time></trkpt><trkpt lat="41.9687486" lon="12.6828172"><ele>97.0</ele><time>2026-03-28T12:16:37.524Z</time></trkpt><trkpt lat="41.9687875" lon="12.6830973"><ele>97.0</ele><time>2026-03-28T12:16:38.533Z</time></trkpt><trkpt lat="41.968829" lon="12.6833725"><ele>97.0</ele><time>2026-03-28T12:16:39.533Z</time></trkpt><trkpt lat="41.968876" lon="12.6836453"><ele>97.66666666666667</ele><time>2026-03-28T12:16:40.55Z</time></trkpt><trkpt lat="41.9689282" lon="12.6839109"><ele>98.33333333333334</ele><time>2026-03-28T12:16:41.52Z</time></trkpt><trkpt lat="41.9689843" lon="12.6841766"><ele>99.0</ele><time>2026-03-28T12:16:42.512Z</time></trkpt><trkpt lat="41.9690422" lon="12.6844428"><ele>99.0</ele><time>2026-03-28T12:16:43.531Z</time></trkpt><trkpt lat="41.9691034" lon="12.684704"><ele>99.0</ele><time>2026-03-28T12:16:44.536Z</time></trkpt><trkpt lat="41.9691624" lon="12.6849634"><ele>99.0</ele><time>2026-03-28T12:16:45.534Z</time></trkpt><trkpt lat="41.9692192" lon="12.6852208"><ele>100.33333333333334</ele><time>2026-03-28T12:16:46.529Z</time></trkpt><trkpt lat="41.9692783" lon="12.6854738"><ele>101.66666666666667</ele><time>2026-03-28T12:16:47.528Z</time></trkpt><trkpt lat="41.9693495" lon="12.6857198"><ele>103.0</ele><time>2026-03-28T12:16:48.536Z</time></trkpt><trkpt lat="41.9694331" lon="12.6859555"><ele>102.66666666666667</ele><time>2026-03-28T12:16:49.533Z</time></trkpt><trkpt lat="41.969524" lon="12.6861849"><ele>102.33333333333334</ele><time>2026-03-28T12:16:50.532Z</time></trkpt><trkpt lat="41.9696131" lon="12.6864021"><ele>102.0</ele><time>2026-03-28T12:16:51.533Z</time></trkpt><trkpt lat="41.9696999" lon="12.686609"><ele>102.0</ele><time>2026-03-28T12:16:52.531Z</time></trkpt><trkpt lat="41.9697805" lon="12.6868111"><ele>102.0</ele><time>2026-03-28T12:16:53.522Z</time></trkpt><trkpt lat="41.9698578" lon="12.6870113"><ele>102.0</ele><time>2026-03-28T12:16:54.527Z</time></trkpt><trkpt lat="41.9699319" lon="12.6872042"><ele>101.5</ele><time>2026-03-28T12:16:55.538Z</time></trkpt><trkpt lat="41.969992" lon="12.6873786"><ele>101.0</ele><time>2026-03-28T12:16:56.535Z</time></trkpt><trkpt lat="41.9700286" lon="12.687535"><ele>100.5</ele><time>2026-03-28T12:16:57.534Z</time></trkpt><trkpt lat="41.9700309" lon="12.6876809"><ele>100.0</ele><time>2026-03-28T12:16:58.546Z</time></trkpt><trkpt lat="41.9699933" lon="12.6878182"><ele>99.5</ele><time>2026-03-28T12:16:59.561Z</time></trkpt><trkpt lat="41.969929" lon="12.6879436"><ele>99.0</ele><time>2026-03-28T12:17:00.543Z</time></trkpt><trkpt lat="41.9698599" lon="12.6880799"><ele>98.5</ele><time>2026-03-28T12:17:01.532Z</time></trkpt><trkpt lat="41.9698239" lon="12.6882374"><ele>98.0</ele><time>2026-03-28T12:17:02.524Z</time></trkpt><trkpt lat="41.9698245" lon="12.6883967"><ele>98.0</ele><time>2026-03-28T12:17:03.533Z</time></trkpt><trkpt lat="41.9698615" lon="12.6885466"><ele>98.0</ele><time>2026-03-28T12:17:04.543Z</time></trkpt><trkpt lat="41.9699187" lon="12.6887062"><ele>98.0</ele><time>2026-03-28T12:17:05.53Z</time></trkpt><trkpt lat="41.9699774" lon="12.6888827"><ele>98.0</ele><time>2026-03-28T12:17:06.553Z</time></trkpt><trkpt lat="41.9700385" lon="12.6890646"><ele>96.33333333333333</ele><time>2026-03-28T12:17:07.528Z</time></trkpt><trkpt lat="41.9701013" lon="12.6892558"><ele>94.66666666666666</ele><time>2026-03-28T12:17:08.526Z</time></trkpt><trkpt lat="41.9701621" lon="12.6894459"><ele>93.0</ele><time>2026-03-28T12:17:09.544Z</time></trkpt><trkpt lat="41.9702223" lon="12.6896262"><ele>93.0</ele><time>2026-03-28T12:17:10.531Z</time></trkpt><trkpt lat="41.9702868" lon="12.6897818"><ele>93.0</ele><time>2026-03-28T12:17:11.536Z</time></trkpt><trkpt lat="41.9703619" lon="12.6899028"><ele>93.0</ele><time>2026-03-28T12:17:12.536Z</time></trkpt><trkpt lat="41.9704494" lon="12.6899902"><ele>93.0</ele><time>2026-03-28T12:17:13.54Z</time></trkpt><trkpt lat="41.9705602" lon="12.6900514"><ele>93.0</ele><time>2026-03-28T12:17:14.539Z</time></trkpt><trkpt lat="41.9706839" lon="12.6901098"><ele>93.0</ele><time>2026-03-28T12:17:15.532Z</time></trkpt><trkpt lat="41.9708069" lon="12.6901986"><ele>93.0</ele><time>2026-03-28T12:17:16.526Z</time></trkpt><trkpt lat="41.9709232" lon="12.6903263"><ele>93.0</ele><time>2026-03-28T12:17:17.529Z</time></trkpt><trkpt lat="41.971021" lon="12.6904979"><ele>92.66666666666667</ele><time>2026-03-28T12:17:18.537Z</time></trkpt><trkpt lat="41.9710981" lon="12.6906913"><ele>92.33333333333334</ele><time>2026-03-28T12:17:19.526Z</time></trkpt><trkpt lat="41.971151" lon="12.6909012"><ele>92.0</ele><time>2026-03-28T12:17:20.557Z</time></trkpt><trkpt lat="41.9711769" lon="12.6911214"><ele>93.0</ele><time>2026-03-28T12:17:21.524Z</time></trkpt><trkpt lat="41.971186" lon="12.6913469"><ele>94.0</ele><time>2026-03-28T12:17:22.538Z</time></trkpt><trkpt lat="41.9712054" lon="12.6915656"><ele>95.0</ele><time>2026-03-28T12:17:23.559Z</time></trkpt><trkpt lat="41.9712523" lon="12.6917843"><ele>95.66666666666667</ele><time>2026-03-28T12:17:24.534Z</time></trkpt><trkpt lat="41.9713127" lon="12.692012"><ele>96.33333333333334</ele><time>2026-03-28T12:17:25.553Z</time></trkpt><trkpt lat="41.9713839" lon="12.6922374"><ele>97.0</ele><time>2026-03-28T12:17:26.534Z</time></trkpt><trkpt lat="41.9714601" lon="12.6924594"><ele>97.0</ele><time>2026-03-28T12:17:27.524Z</time></trkpt><trkpt lat="41.9715397" lon="12.6926723"><ele>97.0</ele><time>2026-03-28T12:17:28.56Z</time></trkpt><trkpt lat="41.9716209" lon="12.6928798"><ele>97.0</ele><time>2026-03-28T12:17:29.529Z</time></trkpt><trkpt lat="41.9719646" lon="12.6937109"><ele>97.33333333333334</ele><time>2026-03-28T12:17:33.528Z</time></trkpt><trkpt lat="41.9720486" lon="12.6939082"><ele>97.66666666666666</ele><time>2026-03-28T12:17:34.542Z</time></trkpt><trkpt lat="41.9721298" lon="12.694106"><ele>98.0</ele><time>2026-03-28T12:17:35.534Z</time></trkpt><trkpt lat="41.9722125" lon="12.6943069"><ele>98.66666666666666</ele><time>2026-03-28T12:17:36.545Z</time></trkpt><trkpt lat="41.9722948" lon="12.6945128"><ele>99.33333333333334</ele><time>2026-03-28T12:17:37.558Z</time></trkpt><trkpt lat="41.9723781" lon="12.6947209"><ele>100.0</ele><time>2026-03-28T12:17:38.548Z</time></trkpt><trkpt lat="41.9724637" lon="12.6949308"><ele>100.0</ele><time>2026-03-28T12:17:39.528Z</time></trkpt><trkpt lat="41.9725512" lon="12.6951398"><ele>100.0</ele><time>2026-03-28T12:17:40.558Z</time></trkpt><trkpt lat="41.9726346" lon="12.6953521"><ele>100.0</ele><time>2026-03-28T12:17:41.519Z</time></trkpt><trkpt lat="41.9727218" lon="12.6955599"><ele>100.0</ele><time>2026-03-28T12:17:42.522Z</time></trkpt><trkpt lat="41.972812" lon="12.695762"><ele>100.0</ele><time>2026-03-28T12:17:43.524Z</time></trkpt><trkpt lat="41.9728956" lon="12.6959754"><ele>100.0</ele><time>2026-03-28T12:17:44.518Z</time></trkpt><trkpt lat="41.9729813" lon="12.6961883"><ele>100.0</ele><time>2026-03-28T12:17:45.544Z</time></trkpt><trkpt lat="41.9730675" lon="12.6963945"><ele>100.0</ele><time>2026-03-28T12:17:46.533Z</time></trkpt><trkpt lat="41.9731513" lon="12.6966012"><ele>100.0</ele><time>2026-03-28T12:17:47.536Z</time></trkpt><trkpt lat="41.9732384" lon="12.6968087"><ele>100.33333333333334</ele><time>2026-03-28T12:17:48.529Z</time></trkpt><trkpt lat="41.9733215" lon="12.697013"><ele>100.66666666666666</ele><time>2026-03-28T12:17:49.532Z</time></trkpt><trkpt lat="41.9733984" lon="12.6972107"><ele>101.0</ele><time>2026-03-28T12:17:50.542Z</time></trkpt><trkpt lat="41.9734677" lon="12.697401"><ele>101.0</ele><time>2026-03-28T12:17:51.533Z</time></trkpt><trkpt lat="41.9735267" lon="12.6975915"><ele>101.0</ele><time>2026-03-28T12:17:52.539Z</time></trkpt><trkpt lat="41.9735797" lon="12.6977871"><ele>101.0</ele><time>2026-03-28T12:17:53.559Z</time></trkpt><trkpt lat="41.9736306" lon="12.6979919"><ele>101.0</ele><time>2026-03-28T12:17:54.529Z</time></trkpt><trkpt lat="41.9736786" lon="12.6982045"><ele>101.0</ele><time>2026-03-28T12:17:55.556Z</time></trkpt><trkpt lat="41.9737192" lon="12.6984209"><ele>101.0</ele><time>2026-03-28T12:17:56.534Z</time></trkpt><trkpt lat="41.9737543" lon="12.6986348"><ele>100.0</ele><time>2026-03-28T12:17:57.533Z</time></trkpt><trkpt lat="41.9737861" lon="12.6988441"><ele>99.0</ele><time>2026-03-28T12:17:58.534Z</time></trkpt><trkpt lat="41.9738246" lon="12.6990472"><ele>98.0</ele><time>2026-03-28T12:17:59.532Z</time></trkpt><trkpt lat="41.9738614" lon="12.6992499"><ele>98.33333333333333</ele><time>2026-03-28T12:18:00.555Z</time></trkpt><trkpt lat="41.9739053" lon="12.6994504"><ele>98.66666666666666</ele><time>2026-03-28T12:18:01.526Z</time></trkpt><trkpt lat="41.9739579" lon="12.6996477"><ele>99.0</ele><time>2026-03-28T12:18:02.528Z</time></trkpt><trkpt lat="41.9740194" lon="12.6998438"><ele>99.0</ele><time>2026-03-28T12:18:03.526Z</time></trkpt><trkpt lat="41.9740925" lon="12.7000242"><ele>99.0</ele><time>2026-03-28T12:18:04.573Z</time></trkpt><trkpt lat="41.974171" lon="12.7001954"><ele>99.0</ele><time>2026-03-28T12:18:05.539Z</time></trkpt><trkpt lat="41.9742534" lon="12.7003495"><ele>99.0</ele><time>2026-03-28T12:18:06.568Z</time></trkpt><trkpt lat="41.9743316" lon="12.7004946"><ele>99.0</ele><time>2026-03-28T12:18:07.53Z</time></trkpt><trkpt lat="41.9744169" lon="12.7006321"><ele>99.0</ele><time>2026-03-28T12:18:08.56Z</time></trkpt><trkpt lat="41.9745023" lon="12.7007611"><ele>99.0</ele><time>2026-03-28T12:18:09.535Z</time></trkpt><trkpt lat="41.9745819" lon="12.7008957"><ele>99.0</ele><time>2026-03-28T12:18:10.53Z</time></trkpt><trkpt lat="41.9746626" lon="12.7010364"><ele>99.0</ele><time>2026-03-28T12:18:11.539Z</time></trkpt><trkpt lat="41.9747401" lon="12.7011846"><ele>99.0</ele><time>2026-03-28T12:18:12.541Z</time></trkpt><trkpt lat="41.9748127" lon="12.7013304"><ele>99.0</ele><time>2026-03-28T12:18:13.52Z</time></trkpt><trkpt lat="41.9748849" lon="12.7014694"><ele>99.0</ele><time>2026-03-28T12:18:14.534Z</time></trkpt><trkpt lat="41.9749553" lon="12.7016089"><ele>99.75</ele><time>2026-03-28T12:18:15.567Z</time></trkpt><trkpt lat="41.9750305" lon="12.701765"><ele>100.5</ele><time>2026-03-28T12:18:16.539Z</time></trkpt><trkpt lat="41.9751091" lon="12.7019341"><ele>101.25</ele><time>2026-03-28T12:18:17.551Z</time></trkpt><trkpt lat="41.9751896" lon="12.7021065"><ele>102.0</ele><time>2026-03-28T12:18:18.546Z</time></trkpt><trkpt lat="41.9752702" lon="12.7022876"><ele>102.0</ele><time>2026-03-28T12:18:19.527Z</time></trkpt><trkpt lat="41.9753486" lon="12.7024729"><ele>102.0</ele><time>2026-03-28T12:18:20.54Z</time></trkpt><trkpt lat="41.9754244" lon="12.7026535"><ele>102.0</ele><time>2026-03-28T12:18:21.525Z</time></trkpt><trkpt lat="41.9754938" lon="12.7028243"><ele>101.75</ele><time>2026-03-28T12:18:22.538Z</time></trkpt><trkpt lat="41.9755601" lon="12.7029837"><ele>101.5</ele><time>2026-03-28T12:18:23.531Z</time></trkpt><trkpt lat="41.9756267" lon="12.7031318"><ele>101.25</ele><time>2026-03-28T12:18:24.547Z</time></trkpt><trkpt lat="41.975687" lon="12.7032717"><ele>101.0</ele><time>2026-03-28T12:18:25.54Z</time></trkpt><trkpt lat="41.9757421" lon="12.7034065"><ele>101.0</ele><time>2026-03-28T12:18:26.528Z</time></trkpt><trkpt lat="41.975797" lon="12.7035498"><ele>101.0</ele><time>2026-03-28T12:18:27.538Z</time></trkpt><trkpt lat="41.9758574" lon="12.7037025"><ele>101.0</ele><time>2026-03-28T12:18:28.523Z</time></trkpt><trkpt lat="41.9759201" lon="12.7038614"><ele>101.0</ele><time>2026-03-28T12:18:29.545Z</time></trkpt><trkpt lat="41.9759852" lon="12.7040207"><ele>102.25</ele><time>2026-03-28T12:18:30.55Z</time></trkpt><trkpt lat="41.9760538" lon="12.7041798"><ele>103.5</ele><time>2026-03-28T12:18:31.56Z</time></trkpt><trkpt lat="41.9761247" lon="12.7043348"><ele>104.75</ele><time>2026-03-28T12:18:32.525Z</time></trkpt><trkpt lat="41.9761964" lon="12.7044797"><ele>106.0</ele><time>2026-03-28T12:18:33.547Z</time></trkpt><trkpt lat="41.9762733" lon="12.7046186"><ele>104.33333333333334</ele><time>2026-03-28T12:18:34.521Z</time></trkpt><trkpt lat="41.97635" lon="12.7047378"><ele>102.66666666666667</ele><time>2026-03-28T12:18:35.553Z</time></trkpt><trkpt lat="41.9764254" lon="12.7048342"><ele>101.0</ele><time>2026-03-28T12:18:36.538Z</time></trkpt><trkpt lat="41.9764924" lon="12.7049124"><ele>99.33333333333334</ele><time>2026-03-28T12:18:37.556Z</time></trkpt><trkpt lat="41.9765446" lon="12.7049784"><ele>97.66666666666667</ele><time>2026-03-28T12:18:38.531Z</time></trkpt><trkpt lat="41.9765907" lon="12.7050363"><ele>96.0</ele><time>2026-03-28T12:18:39.55Z</time></trkpt><trkpt lat="41.9766495" lon="12.7051616"><ele>94.83333333333333</ele><time>2026-03-28T12:18:41.538Z</time></trkpt><trkpt lat="41.9765901" lon="12.7052975"><ele>93.66666666666667</ele><time>2026-03-28T12:18:43.532Z</time></trkpt><trkpt lat="41.9765247" lon="12.7053684"><ele>92.5</ele><time>2026-03-28T12:18:44.526Z</time></trkpt><trkpt lat="41.9764625" lon="12.7054338"><ele>91.33333333333334</ele><time>2026-03-28T12:18:45.534Z</time></trkpt><trkpt lat="41.9764034" lon="12.7054989"><ele>90.16666666666667</ele><time>2026-03-28T12:18:46.531Z</time></trkpt><trkpt lat="41.9763411" lon="12.7055618"><ele>89.0</ele><time>2026-03-28T12:18:47.531Z</time></trkpt><trkpt lat="41.9762778" lon="12.7056252"><ele>89.0</ele><time>2026-03-28T12:18:48.545Z</time></trkpt><trkpt lat="41.9762151" lon="12.7056875"><ele>89.0</ele><time>2026-03-28T12:18:49.528Z</time></trkpt><trkpt lat="41.9761521" lon="12.7057468"><ele>89.0</ele><time>2026-03-28T12:18:50.541Z</time></trkpt><trkpt lat="41.9760971" lon="12.7058092"><ele>89.0</ele><time>2026-03-28T12:18:51.536Z</time></trkpt><trkpt lat="41.9760468" lon="12.7059428"><ele>89.0</ele><time>2026-03-28T12:18:53.539Z</time></trkpt><trkpt lat="41.9761067" lon="12.7061082"><ele>89.0</ele><time>2026-03-28T12:18:55.528Z</time></trkpt><trkpt lat="41.9761584" lon="12.7062067"><ele>89.0</ele><time>2026-03-28T12:18:56.526Z</time></trkpt><trkpt lat="41.9762045" lon="12.7063113"><ele>89.0</ele><time>2026-03-28T12:18:57.532Z</time></trkpt><trkpt lat="41.9762476" lon="12.7064235"><ele>89.0</ele><time>2026-03-28T12:18:58.536Z</time></trkpt><trkpt lat="41.9762872" lon="12.7065606"><ele>89.0</ele><time>2026-03-28T12:18:59.566Z</time></trkpt><trkpt lat="41.9763141" lon="12.7067015"><ele>89.0</ele><time>2026-03-28T12:19:00.602Z</time></trkpt><trkpt lat="41.9763261" lon="12.7068512"><ele>89.0</ele><time>2026-03-28T12:19:01.564Z</time></trkpt><trkpt lat="41.9763284" lon="12.7069989"><ele>89.0</ele><time>2026-03-28T12:19:02.54Z</time></trkpt><trkpt lat="41.9763239" lon="12.7071463"><ele>89.0</ele><time>2026-03-28T12:19:03.532Z</time></trkpt><trkpt lat="41.9763036" lon="12.7072873"><ele>89.0</ele><time>2026-03-28T12:19:04.55Z</time></trkpt><trkpt lat="41.9762712" lon="12.7074172"><ele>89.5</ele><time>2026-03-28T12:19:05.532Z</time></trkpt><trkpt lat="41.9762325" lon="12.7075423"><ele>90.0</ele><time>2026-03-28T12:19:06.535Z</time></trkpt><trkpt lat="41.9761917" lon="12.7076615"><ele>90.5</ele><time>2026-03-28T12:19:07.551Z</time></trkpt><trkpt lat="41.9761467" lon="12.7077667"><ele>91.0</ele><time>2026-03-28T12:19:08.548Z</time></trkpt><trkpt lat="41.9761043" lon="12.7078508"><ele>91.5</ele><time>2026-03-28T12:19:09.523Z</time></trkpt><trkpt lat="41.976067" lon="12.7079258"><ele>92.0</ele><time>2026-03-28T12:19:10.533Z</time></trkpt><trkpt lat="41.9760171" lon="12.7080012"><ele>92.16666666666667</ele><time>2026-03-28T12:19:12.546Z</time></trkpt><trkpt lat="41.9759991" lon="12.7080922"><ele>92.33333333333334</ele><time>2026-03-28T12:19:17.559Z</time></trkpt><trkpt lat="41.9760241" lon="12.7081787"><ele>92.5</ele><time>2026-03-28T12:19:19.548Z</time></trkpt><trkpt lat="41.9761023" lon="12.7082866"><ele>92.66666666666667</ele><time>2026-03-28T12:19:21.535Z</time></trkpt><trkpt lat="41.9761663" lon="12.7083628"><ele>92.83333333333333</ele><time>2026-03-28T12:19:23.575Z</time></trkpt><trkpt lat="41.9762355" lon="12.708461"><ele>93.0</ele><time>2026-03-28T12:19:26.547Z</time></trkpt><trkpt lat="41.9763216" lon="12.7085797"><ele>92.33333333333333</ele><time>2026-03-28T12:19:28.523Z</time></trkpt><trkpt lat="41.9763753" lon="12.7086446"><ele>91.66666666666667</ele><time>2026-03-28T12:19:29.53Z</time></trkpt><trkpt lat="41.9764373" lon="12.7087191"><ele>91.0</ele><time>2026-03-28T12:19:30.55Z</time></trkpt><trkpt lat="41.9765052" lon="12.7088014"><ele>90.33333333333334</ele><time>2026-03-28T12:19:31.552Z</time></trkpt><trkpt lat="41.9765714" lon="12.7088875"><ele>89.66666666666667</ele><time>2026-03-28T12:19:32.556Z</time></trkpt><trkpt lat="41.9766392" lon="12.7089802"><ele>89.0</ele><time>2026-03-28T12:19:33.526Z</time></trkpt><trkpt lat="41.9767097" lon="12.7090693"><ele>89.0</ele><time>2026-03-28T12:19:34.524Z</time></trkpt><trkpt lat="41.9767811" lon="12.7091594"><ele>89.0</ele><time>2026-03-28T12:19:35.531Z</time></trkpt><trkpt lat="41.9768566" lon="12.7092495"><ele>89.0</ele><time>2026-03-28T12:19:36.544Z</time></trkpt><trkpt lat="41.976934" lon="12.7093313"><ele>89.0</ele><time>2026-03-28T12:19:37.542Z</time></trkpt><trkpt lat="41.9770365" lon="12.7093954"><ele>89.0</ele><time>2026-03-28T12:19:38.537Z</time></trkpt><trkpt lat="41.9771531" lon="12.709419"><ele>89.5</ele><time>2026-03-28T12:19:39.531Z</time></trkpt><trkpt lat="41.9772791" lon="12.7094186"><ele>90.0</ele><time>2026-03-28T12:19:40.529Z</time></trkpt><trkpt lat="41.9774011" lon="12.709411"><ele>90.5</ele><time>2026-03-28T12:19:41.511Z</time></trkpt><trkpt lat="41.9775193" lon="12.7094011"><ele>91.0</ele><time>2026-03-28T12:19:42.553Z</time></trkpt><trkpt lat="41.9776377" lon="12.7093945"><ele>91.0</ele><time>2026-03-28T12:19:43.534Z</time></trkpt><trkpt lat="41.9777289" lon="12.7093979"><ele>91.0</ele><time>2026-03-28T12:19:44.544Z</time></trkpt><trkpt lat="41.9778257" lon="12.7093971"><ele>91.0</ele><time>2026-03-28T12:19:46.554Z</time></trkpt><trkpt lat="41.9778639" lon="12.7093223"><ele>91.0</ele><time>2026-03-28T12:19:48.558Z</time></trkpt><trkpt lat="41.9778097" lon="12.7092468"><ele>91.0</ele><time>2026-03-28T12:19:50.525Z</time></trkpt><trkpt lat="41.9777217" lon="12.709135"><ele>91.0</ele><time>2026-03-28T12:19:52.549Z</time></trkpt><trkpt lat="41.9776657" lon="12.7090644"><ele>91.0</ele><time>2026-03-28T12:19:53.556Z</time></trkpt><trkpt lat="41.9776108" lon="12.7089888"><ele>91.0</ele><time>2026-03-28T12:19:54.53Z</time></trkpt><trkpt lat="41.9775595" lon="12.7089246"><ele>91.0</ele><time>2026-03-28T12:19:55.54Z</time></trkpt><trkpt lat="41.9775373" lon="12.7088197"><ele>91.0</ele><time>2026-03-28T12:19:57.554Z</time></trkpt><trkpt lat="41.9776052" lon="12.7087183"><ele>91.0</ele><time>2026-03-28T12:19:59.551Z</time></trkpt><trkpt lat="41.9776637" lon="12.7086486"><ele>91.5</ele><time>2026-03-28T12:20:00.535Z</time></trkpt><trkpt lat="41.9777332" lon="12.7085715"><ele>92.0</ele><time>2026-03-28T12:20:01.523Z</time></trkpt><trkpt lat="41.9778062" lon="12.7084897"><ele>92.5</ele><time>2026-03-28T12:20:02.516Z</time></trkpt><trkpt lat="41.9778708" lon="12.708419"><ele>93.0</ele><time>2026-03-28T12:20:03.542Z</time></trkpt><trkpt lat="41.9779272" lon="12.7083753"><ele>93.5</ele><time>2026-03-28T12:20:04.523Z</time></trkpt><trkpt lat="41.9780122" lon="12.7083043"><ele>94.0</ele><time>2026-03-28T12:20:06.524Z</time></trkpt><trkpt lat="41.9780467" lon="12.7081761"><ele>94.0</ele><time>2026-03-28T12:20:08.562Z</time></trkpt><trkpt lat="41.9780444" lon="12.7080641"><ele>94.0</ele><time>2026-03-28T12:20:09.53Z</time></trkpt><trkpt lat="41.9780438" lon="12.7079463"><ele>94.0</ele><time>2026-03-28T12:20:10.531Z</time></trkpt><trkpt lat="41.97804" lon="12.7078373"><ele>94.0</ele><time>2026-03-28T12:20:11.541Z</time></trkpt><trkpt lat="41.9780409" lon="12.7077254"><ele>94.0</ele><time>2026-03-28T12:20:12.522Z</time></trkpt><trkpt lat="41.9780421" lon="12.7076132"><ele>94.0</ele><time>2026-03-28T12:20:13.533Z</time></trkpt><trkpt lat="41.9780455" lon="12.7075131"><ele>93.83333333333333</ele><time>2026-03-28T12:20:14.593Z</time></trkpt><trkpt lat="41.9780431" lon="12.7073784"><ele>93.66666666666666</ele><time>2026-03-28T12:20:16.539Z</time></trkpt><trkpt lat="41.9780321" lon="12.7072849"><ele>93.5</ele><time>2026-03-28T12:20:19.537Z</time></trkpt><trkpt lat="41.9780859" lon="12.707203"><ele>93.33333333333333</ele><time>2026-03-28T12:20:24.53Z</time></trkpt><trkpt lat="41.9781489" lon="12.7071968"><ele>93.16666666666667</ele><time>2026-03-28T12:20:25.519Z</time></trkpt><trkpt lat="41.9782419" lon="12.7071907"><ele>93.0</ele><time>2026-03-28T12:20:26.52Z</time></trkpt><trkpt lat="41.9783605" lon="12.7071743"><ele>93.5</ele><time>2026-03-28T12:20:27.547Z</time></trkpt><trkpt lat="41.978489" lon="12.7071632"><ele>94.0</ele><time>2026-03-28T12:20:28.534Z</time></trkpt><trkpt lat="41.9786264" lon="12.7071636"><ele>94.5</ele><time>2026-03-28T12:20:29.539Z</time></trkpt><trkpt lat="41.9787575" lon="12.7071674"><ele>95.0</ele><time>2026-03-28T12:20:30.541Z</time></trkpt><trkpt lat="41.9788804" lon="12.7071686"><ele>95.0</ele><time>2026-03-28T12:20:31.533Z</time></trkpt><trkpt lat="41.9790073" lon="12.7071645"><ele>95.0</ele><time>2026-03-28T12:20:32.559Z</time></trkpt><trkpt lat="41.9791473" lon="12.7071567"><ele>95.0</ele><time>2026-03-28T12:20:33.548Z</time></trkpt><trkpt lat="41.9792917" lon="12.7071586"><ele>95.0</ele><time>2026-03-28T12:20:34.553Z</time></trkpt><trkpt lat="41.979418" lon="12.707168"><ele>95.4</ele><time>2026-03-28T12:20:35.547Z</time></trkpt><trkpt lat="41.979525" lon="12.7071748"><ele>95.8</ele><time>2026-03-28T12:20:36.55Z</time></trkpt><trkpt lat="41.9795994" lon="12.7071779"><ele>96.19999999999999</ele><time>2026-03-28T12:20:37.536Z</time></trkpt><trkpt lat="41.9797023" lon="12.7072524"><ele>96.6</ele><time>2026-03-28T12:20:39.54Z</time></trkpt><trkpt lat="41.9797642" lon="12.7073447"><ele>97.0</ele><time>2026-03-28T12:20:40.526Z</time></trkpt><trkpt lat="41.9798405" lon="12.7074514"><ele>97.0</ele><time>2026-03-28T12:20:41.522Z</time></trkpt><trkpt lat="41.979929" lon="12.7075529"><ele>97.0</ele><time>2026-03-28T12:20:42.529Z</time></trkpt><trkpt lat="41.9800173" lon="12.7076617"><ele>97.0</ele><time>2026-03-28T12:20:43.55Z</time></trkpt><trkpt lat="41.9801069" lon="12.7077832"><ele>97.0</ele><time>2026-03-28T12:20:44.529Z</time></trkpt><trkpt lat="41.9802119" lon="12.707906"><ele>96.5</ele><time>2026-03-28T12:20:45.531Z</time></trkpt><trkpt lat="41.9803313" lon="12.7080261"><ele>96.0</ele><time>2026-03-28T12:20:46.519Z</time></trkpt><trkpt lat="41.9804566" lon="12.7081368"><ele>95.5</ele><time>2026-03-28T12:20:47.539Z</time></trkpt><trkpt lat="41.9805731" lon="12.7082467"><ele>95.0</ele><time>2026-03-28T12:20:48.525Z</time></trkpt><trkpt lat="41.9806846" lon="12.7083559"><ele>95.0</ele><time>2026-03-28T12:20:49.527Z</time></trkpt><trkpt lat="41.9807984" lon="12.7084701"><ele>95.0</ele><time>2026-03-28T12:20:50.537Z</time></trkpt><trkpt lat="41.980915" lon="12.7085861"><ele>95.0</ele><time>2026-03-28T12:20:51.539Z</time></trkpt><trkpt lat="41.9810336" lon="12.7087033"><ele>95.0</ele><time>2026-03-28T12:20:52.537Z</time></trkpt><trkpt lat="41.9811477" lon="12.7088173"><ele>95.0</ele><time>2026-03-28T12:20:53.536Z</time></trkpt><trkpt lat="41.9812528" lon="12.7089493"><ele>95.0</ele><time>2026-03-28T12:20:54.542Z</time></trkpt><trkpt lat="41.9813415" lon="12.7091008"><ele>95.0</ele><time>2026-03-28T12:20:55.537Z</time></trkpt><trkpt lat="41.9814071" lon="12.7092606"><ele>95.0</ele><time>2026-03-28T12:20:56.541Z</time></trkpt><trkpt lat="41.9814619" lon="12.7094292"><ele>95.25</ele><time>2026-03-28T12:20:57.525Z</time></trkpt><trkpt lat="41.9815131" lon="12.7096083"><ele>95.5</ele><time>2026-03-28T12:20:58.532Z</time></trkpt><trkpt lat="41.9815577" lon="12.7097922"><ele>95.75</ele><time>2026-03-28T12:20:59.534Z</time></trkpt><trkpt lat="41.9815807" lon="12.7099878"><ele>96.0</ele><time>2026-03-28T12:21:00.546Z</time></trkpt><trkpt lat="41.9815991" lon="12.7101844"><ele>96.5</ele><time>2026-03-28T12:21:01.541Z</time></trkpt><trkpt lat="41.9816143" lon="12.7103773"><ele>97.0</ele><time>2026-03-28T12:21:02.534Z</time></trkpt><trkpt lat="41.9816312" lon="12.7105554"><ele>97.5</ele><time>2026-03-28T12:21:03.516Z</time></trkpt><trkpt lat="41.9816469" lon="12.7107045"><ele>98.0</ele><time>2026-03-28T12:21:04.537Z</time></trkpt><trkpt lat="41.981667" lon="12.7108165"><ele>97.99999999999999</ele><time>2026-03-28T12:21:05.532Z</time></trkpt><trkpt lat="41.9816999" lon="12.7108905"><ele>98.0</ele><time>2026-03-28T12:21:06.527Z</time></trkpt><trkpt lat="41.9818116" lon="12.7109337"><ele>98.0</ele><time>2026-03-28T12:21:08.524Z</time></trkpt><trkpt lat="41.9818757" lon="12.7108965"><ele>98.0</ele><time>2026-03-28T12:21:09.536Z</time></trkpt><trkpt lat="41.9819184" lon="12.7108213"><ele>97.99999999999999</ele><time>2026-03-28T12:21:10.539Z</time></trkpt><trkpt lat="41.9819379" lon="12.7107247"><ele>98.0</ele><time>2026-03-28T12:21:11.558Z</time></trkpt><trkpt lat="41.9819243" lon="12.7105989"><ele>98.0</ele><time>2026-03-28T12:21:12.539Z</time></trkpt><trkpt lat="41.9818886" lon="12.7104621"><ele>98.0</ele><time>2026-03-28T12:21:13.544Z</time></trkpt><trkpt lat="41.9818402" lon="12.710319"><ele>98.0</ele><time>2026-03-28T12:21:14.531Z</time></trkpt><trkpt lat="41.9817998" lon="12.7101672"><ele>98.0</ele><time>2026-03-28T12:21:15.535Z</time></trkpt><trkpt lat="41.9817532" lon="12.7100382"><ele>97.99999999999999</ele><time>2026-03-28T12:21:16.544Z</time></trkpt><trkpt lat="41.9817221" lon="12.7099321"><ele>98.0</ele><time>2026-03-28T12:21:17.522Z</time></trkpt><trkpt lat="41.9817334" lon="12.7098182"><ele>98.0</ele><time>2026-03-28T12:21:19.544Z</time></trkpt><trkpt lat="41.9818241" lon="12.7098318"><ele>98.0</ele><time>2026-03-28T12:21:21.538Z</time></trkpt><trkpt lat="41.9818876" lon="12.7098727"><ele>97.99999999999999</ele><time>2026-03-28T12:21:22.527Z</time></trkpt><trkpt lat="41.9819577" lon="12.709928"><ele>98.0</ele><time>2026-03-28T12:21:23.529Z</time></trkpt><trkpt lat="41.9820448" lon="12.7099974"><ele>98.0</ele><time>2026-03-28T12:21:24.553Z</time></trkpt><trkpt lat="41.9821465" lon="12.7100689"><ele>98.0</ele><time>2026-03-28T12:21:25.53Z</time></trkpt><trkpt lat="41.9822478" lon="12.7101405"><ele>98.0</ele><time>2026-03-28T12:21:26.617Z</time></trkpt><trkpt lat="41.9823495" lon="12.710217"><ele>98.0</ele><time>2026-03-28T12:21:27.538Z</time></trkpt><trkpt lat="41.982453" lon="12.7102933"><ele>98.25</ele><time>2026-03-28T12:21:28.549Z</time></trkpt><trkpt lat="41.9825566" lon="12.7103684"><ele>98.5</ele><time>2026-03-28T12:21:29.563Z</time></trkpt><trkpt lat="41.9826581" lon="12.7104442"><ele>98.75</ele><time>2026-03-28T12:21:30.537Z</time></trkpt><trkpt lat="41.9827631" lon="12.7105138"><ele>99.0</ele><time>2026-03-28T12:21:31.625Z</time></trkpt><trkpt lat="41.9828663" lon="12.7105806"><ele>99.0</ele><time>2026-03-28T12:21:32.529Z</time></trkpt><trkpt lat="41.9829681" lon="12.7106455"><ele>99.0</ele><time>2026-03-28T12:21:33.517Z</time></trkpt><trkpt lat="41.9830668" lon="12.7107111"><ele>99.0</ele><time>2026-03-28T12:21:34.513Z</time></trkpt><trkpt lat="41.9831719" lon="12.7107745"><ele>99.0</ele><time>2026-03-28T12:21:35.528Z</time></trkpt><trkpt lat="41.983287" lon="12.7108355"><ele>99.0</ele><time>2026-03-28T12:21:36.53Z</time></trkpt><trkpt lat="41.9834067" lon="12.7108942"><ele>99.0</ele><time>2026-03-28T12:21:37.516Z</time></trkpt><trkpt lat="41.9835339" lon="12.7109515"><ele>99.0</ele><time>2026-03-28T12:21:38.544Z</time></trkpt><trkpt lat="41.9836669" lon="12.7110075"><ele>99.0</ele><time>2026-03-28T12:21:39.533Z</time></trkpt><trkpt lat="41.9837983" lon="12.7110593"><ele>98.75</ele><time>2026-03-28T12:21:40.531Z</time></trkpt><trkpt lat="41.9839336" lon="12.7111111"><ele>98.5</ele><time>2026-03-28T12:21:41.543Z</time></trkpt><trkpt lat="41.9840663" lon="12.7111591"><ele>98.25</ele><time>2026-03-28T12:21:42.516Z</time></trkpt><trkpt lat="41.984191" lon="12.7112035"><ele>98.0</ele><time>2026-03-28T12:21:43.537Z</time></trkpt><trkpt lat="41.9843088" lon="12.7112497"><ele>98.5</ele><time>2026-03-28T12:21:44.544Z</time></trkpt><trkpt lat="41.9844228" lon="12.7112977"><ele>99.0</ele><time>2026-03-28T12:21:45.535Z</time></trkpt><trkpt lat="41.9845402" lon="12.7113447"><ele>99.5</ele><time>2026-03-28T12:21:46.53Z</time></trkpt><trkpt lat="41.9846568" lon="12.7113857"><ele>100.0</ele><time>2026-03-28T12:21:47.564Z</time></trkpt><trkpt lat="41.9847759" lon="12.7114318"><ele>100.0</ele><time>2026-03-28T12:21:48.533Z</time></trkpt><trkpt lat="41.9848936" lon="12.7114826"><ele>100.0</ele><time>2026-03-28T12:21:49.529Z</time></trkpt><trkpt lat="41.9850088" lon="12.7115399"><ele>100.0</ele><time>2026-03-28T12:21:50.553Z</time></trkpt><trkpt lat="41.9851243" lon="12.7116069"><ele>100.0</ele><time>2026-03-28T12:21:51.524Z</time></trkpt><trkpt lat="41.9852443" lon="12.7116741"><ele>100.0</ele><time>2026-03-28T12:21:52.552Z</time></trkpt><trkpt lat="41.9853685" lon="12.7117372"><ele>100.0</ele><time>2026-03-28T12:21:53.544Z</time></trkpt><trkpt lat="41.9854909" lon="12.7117975"><ele>100.0</ele><time>2026-03-28T12:21:54.534Z</time></trkpt><trkpt lat="41.9856097" lon="12.7118589"><ele>100.0</ele><time>2026-03-28T12:21:55.575Z</time></trkpt><trkpt lat="41.9857228" lon="12.7119194"><ele>99.6</ele><time>2026-03-28T12:21:56.539Z</time></trkpt><trkpt lat="41.9858277" lon="12.7119797"><ele>99.2</ele><time>2026-03-28T12:21:57.564Z</time></trkpt><trkpt lat="41.9859165" lon="12.7120406"><ele>98.80000000000001</ele><time>2026-03-28T12:21:58.54Z</time></trkpt><trkpt lat="41.9859818" lon="12.7120903"><ele>98.4</ele><time>2026-03-28T12:21:59.55Z</time></trkpt><trkpt lat="41.9860346" lon="12.7121365"><ele>98.0</ele><time>2026-03-28T12:22:00.539Z</time></trkpt><trkpt lat="41.9861183" lon="12.7122321"><ele>97.99999999999999</ele><time>2026-03-28T12:22:02.536Z</time></trkpt><trkpt lat="41.9861633" lon="12.7123053"><ele>98.0</ele><time>2026-03-28T12:22:04.533Z</time></trkpt><trkpt lat="41.98626" lon="12.7123573"><ele>98.0</ele><time>2026-03-28T12:22:06.555Z</time></trkpt><trkpt lat="41.9863277" lon="12.7123589"><ele>98.0</ele><time>2026-03-28T12:22:07.565Z</time></trkpt><trkpt lat="41.9864083" lon="12.7123402"><ele>97.99999999999999</ele><time>2026-03-28T12:22:08.544Z</time></trkpt><trkpt lat="41.9865105" lon="12.7123385"><ele>98.0</ele><time>2026-03-28T12:22:09.551Z</time></trkpt><trkpt lat="41.9866106" lon="12.7123743"><ele>98.25</ele><time>2026-03-28T12:22:10.538Z</time></trkpt><trkpt lat="41.9867088" lon="12.7124516"><ele>98.5</ele><time>2026-03-28T12:22:11.529Z</time></trkpt><trkpt lat="41.9867957" lon="12.7125543"><ele>98.75</ele><time>2026-03-28T12:22:12.558Z</time></trkpt><trkpt lat="41.9868743" lon="12.712683"><ele>99.0</ele><time>2026-03-28T12:22:13.563Z</time></trkpt><trkpt lat="41.9869434" lon="12.7128248"><ele>99.16666666666667</ele><time>2026-03-28T12:22:14.586Z</time></trkpt><trkpt lat="41.9870036" lon="12.7129483"><ele>99.33333333333334</ele><time>2026-03-28T12:22:15.566Z</time></trkpt><trkpt lat="41.9870514" lon="12.7130402"><ele>99.5</ele><time>2026-03-28T12:22:16.538Z</time></trkpt><trkpt lat="41.9870972" lon="12.713104"><ele>99.66666666666667</ele><time>2026-03-28T12:22:17.532Z</time></trkpt><trkpt lat="41.9871478" lon="12.7131644"><ele>99.83333333333334</ele><time>2026-03-28T12:22:19.553Z</time></trkpt><trkpt lat="41.9872095" lon="12.7131993"><ele>100.0</ele><time>2026-03-28T12:22:21.534Z</time></trkpt><trkpt lat="41.9873006" lon="12.7131441"><ele>100.00000000000001</ele><time>2026-03-28T12:22:23.527Z</time></trkpt><trkpt lat="41.9873472" lon="12.7130762"><ele>100.0</ele><time>2026-03-28T12:22:24.54Z</time></trkpt><trkpt lat="41.987399" lon="12.7130031"><ele>100.0</ele><time>2026-03-28T12:22:25.556Z</time></trkpt><trkpt lat="41.9874557" lon="12.712927"><ele>100.0</ele><time>2026-03-28T12:22:26.571Z</time></trkpt><trkpt lat="41.9875109" lon="12.7128522"><ele>100.00000000000001</ele><time>2026-03-28T12:22:27.574Z</time></trkpt><trkpt lat="41.9875626" lon="12.7127867"><ele>100.0</ele><time>2026-03-28T12:22:28.578Z</time></trkpt><trkpt lat="41.9876442" lon="12.7126885"><ele>99.6</ele><time>2026-03-28T12:22:30.531Z</time></trkpt><trkpt lat="41.9877024" lon="12.7126405"><ele>99.2</ele><time>2026-03-28T12:22:32.546Z</time></trkpt><trkpt lat="41.987778" lon="12.7126683"><ele>98.80000000000001</ele><time>2026-03-28T12:22:34.511Z</time></trkpt><trkpt lat="41.9878722" lon="12.7127531"><ele>98.4</ele><time>2026-03-28T12:22:36.539Z</time></trkpt><trkpt lat="41.9879635" lon="12.7128495"><ele>98.0</ele><time>2026-03-28T12:22:38.525Z</time></trkpt><trkpt lat="41.9880197" lon="12.7129397"><ele>98.0</ele><time>2026-03-28T12:22:40.534Z</time></trkpt><trkpt lat="41.9881185" lon="12.7130767"><ele>98.0</ele><time>2026-03-28T12:22:42.566Z</time></trkpt><trkpt lat="41.9881768" lon="12.713156"><ele>98.0</ele><time>2026-03-28T12:22:43.546Z</time></trkpt><trkpt lat="41.9882518" lon="12.7132327"><ele>98.0</ele><time>2026-03-28T12:22:44.542Z</time></trkpt><trkpt lat="41.9883384" lon="12.7133053"><ele>98.0</ele><time>2026-03-28T12:22:45.524Z</time></trkpt><trkpt lat="41.9884314" lon="12.7133791"><ele>98.2</ele><time>2026-03-28T12:22:46.53Z</time></trkpt><trkpt lat="41.9885217" lon="12.7134597"><ele>98.4</ele><time>2026-03-28T12:22:47.525Z</time></trkpt><trkpt lat="41.9885994" lon="12.7135501"><ele>98.60000000000001</ele><time>2026-03-28T12:22:48.533Z</time></trkpt><trkpt lat="41.9886891" lon="12.7136315"><ele>98.80000000000001</ele><time>2026-03-28T12:22:49.533Z</time></trkpt><trkpt lat="41.9887783" lon="12.7137131"><ele>99.0</ele><time>2026-03-28T12:22:50.536Z</time></trkpt><trkpt lat="41.9888641" lon="12.7137955"><ele>99.4</ele><time>2026-03-28T12:22:51.523Z</time></trkpt><trkpt lat="41.9889493" lon="12.7138815"><ele>99.80000000000001</ele><time>2026-03-28T12:22:52.527Z</time></trkpt><trkpt lat="41.9890386" lon="12.7139631"><ele>100.19999999999999</ele><time>2026-03-28T12:22:53.54Z</time></trkpt><trkpt lat="41.9891299" lon="12.7140412"><ele>100.6</ele><time>2026-03-28T12:22:54.545Z</time></trkpt><trkpt lat="41.9892206" lon="12.7141189"><ele>101.0</ele><time>2026-03-28T12:22:55.555Z</time></trkpt><trkpt lat="41.9893106" lon="12.7141986"><ele>101.19999999999999</ele><time>2026-03-28T12:22:56.556Z</time></trkpt><trkpt lat="41.9894024" lon="12.71427"><ele>101.39999999999999</ele><time>2026-03-28T12:22:57.535Z</time></trkpt><trkpt lat="41.9894966" lon="12.7143298"><ele>101.6</ele><time>2026-03-28T12:22:58.541Z</time></trkpt><trkpt lat="41.9895863" lon="12.714376"><ele>101.8</ele><time>2026-03-28T12:22:59.527Z</time></trkpt><trkpt lat="41.9896689" lon="12.7144129"><ele>102.0</ele><time>2026-03-28T12:23:00.521Z</time></trkpt><trkpt lat="41.989729" lon="12.7144417"><ele>102.0</ele><time>2026-03-28T12:23:01.538Z</time></trkpt><trkpt lat="41.9897973" lon="12.7144611"><ele>102.0</ele><time>2026-03-28T12:23:03.539Z</time></trkpt><trkpt lat="41.9898691" lon="12.7144714"><ele>102.0</ele><time>2026-03-28T12:23:08.529Z</time></trkpt><trkpt lat="41.9899647" lon="12.7143701"><ele>102.0</ele><time>2026-03-28T12:23:10.535Z</time></trkpt><trkpt lat="41.9900061" lon="12.7142897"><ele>102.0</ele><time>2026-03-28T12:23:11.548Z</time></trkpt><trkpt lat="41.9900556" lon="12.7141991"><ele>102.0</ele><time>2026-03-28T12:23:12.554Z</time></trkpt><trkpt lat="41.9901104" lon="12.7141004"><ele>102.0</ele><time>2026-03-28T12:23:13.564Z</time></trkpt><trkpt lat="41.9901667" lon="12.7140017"><ele>102.0</ele><time>2026-03-28T12:23:14.546Z</time></trkpt><trkpt lat="41.9902146" lon="12.7139093"><ele>102.0</ele><time>2026-03-28T12:23:15.531Z</time></trkpt><trkpt lat="41.9902653" lon="12.7138152"><ele>102.0</ele><time>2026-03-28T12:23:16.542Z</time></trkpt><trkpt lat="41.9903158" lon="12.7137184"><ele>102.0</ele><time>2026-03-28T12:23:17.53Z</time></trkpt><trkpt lat="41.9903697" lon="12.7136089"><ele>102.0</ele><time>2026-03-28T12:23:18.525Z</time></trkpt><trkpt lat="41.9904273" lon="12.7134854"><ele>102.25</ele><time>2026-03-28T12:23:19.546Z</time></trkpt><trkpt lat="41.9904845" lon="12.713344"><ele>102.5</ele><time>2026-03-28T12:23:20.55Z</time></trkpt><trkpt lat="41.9905383" lon="12.7131927"><ele>102.75</ele><time>2026-03-28T12:23:21.525Z</time></trkpt><trkpt lat="41.9905828" lon="12.7130289"><ele>103.0</ele><time>2026-03-28T12:23:22.536Z</time></trkpt><trkpt lat="41.9906196" lon="12.712862"><ele>102.75</ele><time>2026-03-28T12:23:23.516Z</time></trkpt><trkpt lat="41.9906592" lon="12.7126957"><ele>102.5</ele><time>2026-03-28T12:23:24.569Z</time></trkpt><trkpt lat="41.9906949" lon="12.7125256"><ele>102.25</ele><time>2026-03-28T12:23:25.541Z</time></trkpt><trkpt lat="41.9907361" lon="12.7123532"><ele>102.0</ele><time>2026-03-28T12:23:26.519Z</time></trkpt><trkpt lat="41.9907809" lon="12.7121854"><ele>102.0</ele><time>2026-03-28T12:23:27.532Z</time></trkpt><trkpt lat="41.9908302" lon="12.7120183"><ele>102.0</ele><time>2026-03-28T12:23:28.529Z</time></trkpt><trkpt lat="41.9908852" lon="12.7118596"><ele>102.0</ele><time>2026-03-28T12:23:29.539Z</time></trkpt><trkpt lat="41.9909405" lon="12.711702"><ele>102.0</ele><time>2026-03-28T12:23:30.548Z</time></trkpt><trkpt lat="41.9909982" lon="12.7115427"><ele>102.0</ele><time>2026-03-28T12:23:31.53Z</time></trkpt><trkpt lat="41.991064" lon="12.7113859"><ele>102.0</ele><time>2026-03-28T12:23:32.559Z</time></trkpt><trkpt lat="41.991129" lon="12.7112351"><ele>102.0</ele><time>2026-03-28T12:23:33.533Z</time></trkpt><trkpt lat="41.9911946" lon="12.7110972"><ele>102.0</ele><time>2026-03-28T12:23:34.54Z</time></trkpt><trkpt lat="41.9912621" lon="12.7109725"><ele>101.8</ele><time>2026-03-28T12:23:35.532Z</time></trkpt><trkpt lat="41.9913341" lon="12.7108618"><ele>101.6</ele><time>2026-03-28T12:23:36.541Z</time></trkpt><trkpt lat="41.9914096" lon="12.7107625"><ele>101.39999999999999</ele><time>2026-03-28T12:23:37.554Z</time></trkpt><trkpt lat="41.9914963" lon="12.7106776"><ele>101.19999999999999</ele><time>2026-03-28T12:23:38.562Z</time></trkpt><trkpt lat="41.9915934" lon="12.7106068"><ele>101.0</ele><time>2026-03-28T12:23:39.528Z</time></trkpt><trkpt lat="41.9917052" lon="12.710563"><ele>101.0</ele><time>2026-03-28T12:23:40.524Z</time></trkpt><trkpt lat="41.991819" lon="12.7105277"><ele>101.0</ele><time>2026-03-28T12:23:41.549Z</time></trkpt><trkpt lat="41.9919404" lon="12.7105136"><ele>101.0</ele><time>2026-03-28T12:23:42.533Z</time></trkpt><trkpt lat="41.9920662" lon="12.7105224"><ele>101.0</ele><time>2026-03-28T12:23:43.536Z</time></trkpt><trkpt lat="41.9921958" lon="12.7105591"><ele>101.0</ele><time>2026-03-28T12:23:44.526Z</time></trkpt><trkpt lat="41.9923208" lon="12.7106207"><ele>101.0</ele><time>2026-03-28T12:23:45.532Z</time></trkpt><trkpt lat="41.9924451" lon="12.7106914"><ele>101.0</ele><time>2026-03-28T12:23:46.53Z</time></trkpt><trkpt lat="41.9925717" lon="12.7107596"><ele>101.0</ele><time>2026-03-28T12:23:47.521Z</time></trkpt><trkpt lat="41.9927021" lon="12.7108236"><ele>101.5</ele><time>2026-03-28T12:23:48.531Z</time></trkpt><trkpt lat="41.9928323" lon="12.7108887"><ele>102.0</ele><time>2026-03-28T12:23:49.53Z</time></trkpt><trkpt lat="41.9929628" lon="12.7109501"><ele>102.5</ele><time>2026-03-28T12:23:50.587Z</time></trkpt><trkpt lat="41.9930932" lon="12.71101"><ele>103.0</ele><time>2026-03-28T12:23:51.531Z</time></trkpt><trkpt lat="41.993228" lon="12.711076"><ele>103.33333333333334</ele><time>2026-03-28T12:23:52.537Z</time></trkpt><trkpt lat="41.993369" lon="12.7111421"><ele>103.66666666666666</ele><time>2026-03-28T12:23:53.527Z</time></trkpt><trkpt lat="41.9935121" lon="12.7112051"><ele>104.0</ele><time>2026-03-28T12:23:54.536Z</time></trkpt><trkpt lat="41.993658" lon="12.7112712"><ele>104.0</ele><time>2026-03-28T12:23:55.624Z</time></trkpt><trkpt lat="41.9938054" lon="12.7113398"><ele>104.0</ele><time>2026-03-28T12:23:56.557Z</time></trkpt><trkpt lat="41.9939573" lon="12.7114078"><ele>104.0</ele><time>2026-03-28T12:23:57.545Z</time></trkpt><trkpt lat="41.9941121" lon="12.7114677"><ele>105.33333333333333</ele><time>2026-03-28T12:23:58.53Z</time></trkpt><trkpt lat="41.9942723" lon="12.7115149"><ele>106.66666666666666</ele><time>2026-03-28T12:23:59.533Z</time></trkpt><trkpt lat="41.9944368" lon="12.7115509"><ele>108.0</ele><time>2026-03-28T12:24:00.532Z</time></trkpt><trkpt lat="41.9946061" lon="12.7115789"><ele>108.0</ele><time>2026-03-28T12:24:01.534Z</time></trkpt><trkpt lat="41.9947769" lon="12.7116055"><ele>108.0</ele><time>2026-03-28T12:24:02.556Z</time></trkpt><trkpt lat="41.994949" lon="12.7116367"><ele>108.0</ele><time>2026-03-28T12:24:03.531Z</time></trkpt><trkpt lat="41.9951153" lon="12.7116775"><ele>108.33333333333334</ele><time>2026-03-28T12:24:04.535Z</time></trkpt><trkpt lat="41.9952762" lon="12.7117333"><ele>108.66666666666667</ele><time>2026-03-28T12:24:05.54Z</time></trkpt><trkpt lat="41.9954321" lon="12.7118004"><ele>109.0</ele><time>2026-03-28T12:24:06.537Z</time></trkpt><trkpt lat="41.9955853" lon="12.7118654"><ele>109.66666666666667</ele><time>2026-03-28T12:24:07.534Z</time></trkpt><trkpt lat="41.9957413" lon="12.7119332"><ele>110.33333333333334</ele><time>2026-03-28T12:24:08.615Z</time></trkpt><trkpt lat="41.9958971" lon="12.7120038"><ele>111.0</ele><time>2026-03-28T12:24:09.586Z</time></trkpt><trkpt lat="41.9960533" lon="12.7120768"><ele>111.33333333333334</ele><time>2026-03-28T12:24:10.516Z</time></trkpt><trkpt lat="41.9962101" lon="12.7121502"><ele>111.66666666666667</ele><time>2026-03-28T12:24:11.524Z</time></trkpt><trkpt lat="41.9963709" lon="12.7122203"><ele>112.0</ele><time>2026-03-28T12:24:12.533Z</time></trkpt><trkpt lat="41.9965318" lon="12.7122979"><ele>113.0</ele><time>2026-03-28T12:24:13.532Z</time></trkpt><trkpt lat="41.9966922" lon="12.7123793"><ele>114.0</ele><time>2026-03-28T12:24:14.523Z</time></trkpt><trkpt lat="41.9968541" lon="12.7124616"><ele>115.0</ele><time>2026-03-28T12:24:15.535Z</time></trkpt><trkpt lat="41.9970114" lon="12.7125403"><ele>115.0</ele><time>2026-03-28T12:24:16.524Z</time></trkpt><trkpt lat="41.9971671" lon="12.7126206"><ele>115.0</ele><time>2026-03-28T12:24:17.524Z</time></trkpt><trkpt lat="41.9973208" lon="12.7126985"><ele>115.0</ele><time>2026-03-28T12:24:18.536Z</time></trkpt><trkpt lat="41.9974739" lon="12.7127713"><ele>115.66666666666667</ele><time>2026-03-28T12:24:19.533Z</time></trkpt><trkpt lat="41.9976265" lon="12.7128444"><ele>116.33333333333334</ele><time>2026-03-28T12:24:20.534Z</time></trkpt><trkpt lat="41.9977739" lon="12.7129157"><ele>117.0</ele><time>2026-03-28T12:24:21.522Z</time></trkpt><trkpt lat="41.9979202" lon="12.7129857"><ele>117.0</ele><time>2026-03-28T12:24:22.539Z</time></trkpt><trkpt lat="41.9980665" lon="12.7130547"><ele>117.0</ele><time>2026-03-28T12:24:23.542Z</time></trkpt><trkpt lat="41.9982124" lon="12.7131194"><ele>117.0</ele><time>2026-03-28T12:24:24.54Z</time></trkpt><trkpt lat="41.9983576" lon="12.7131819"><ele>118.33333333333334</ele><time>2026-03-28T12:24:25.546Z</time></trkpt><trkpt lat="41.9985017" lon="12.7132483"><ele>119.66666666666667</ele><time>2026-03-28T12:24:26.526Z</time></trkpt><trkpt lat="41.9986435" lon="12.7133152"><ele>121.0</ele><time>2026-03-28T12:24:27.521Z</time></trkpt><trkpt lat="41.9987841" lon="12.7133782"><ele>121.0</ele><time>2026-03-28T12:24:28.51Z</time></trkpt><trkpt lat="41.9989275" lon="12.7134424"><ele>121.0</ele><time>2026-03-28T12:24:29.529Z</time></trkpt><trkpt lat="41.9990685" lon="12.7135064"><ele>121.0</ele><time>2026-03-28T12:24:30.561Z</time></trkpt><trkpt lat="41.9992075" lon="12.7135613"><ele>121.0</ele><time>2026-03-28T12:24:31.543Z</time></trkpt><trkpt lat="41.9993424" lon="12.713607"><ele>119.5</ele><time>2026-03-28T12:24:32.56Z</time></trkpt><trkpt lat="41.9994674" lon="12.7136589"><ele>118.0</ele><time>2026-03-28T12:24:33.532Z</time></trkpt><trkpt lat="41.9995882" lon="12.713727"><ele>116.5</ele><time>2026-03-28T12:24:34.531Z</time></trkpt><trkpt lat="41.9997073" lon="12.7138103"><ele>115.0</ele><time>2026-03-28T12:24:35.542Z</time></trkpt><trkpt lat="41.9998254" lon="12.7138959"><ele>115.0</ele><time>2026-03-28T12:24:36.519Z</time></trkpt><trkpt lat="41.9999378" lon="12.7139742"><ele>115.0</ele><time>2026-03-28T12:24:37.519Z</time></trkpt><trkpt lat="42.0000466" lon="12.7140414"><ele>115.0</ele><time>2026-03-28T12:24:38.531Z</time></trkpt><trkpt lat="42.000155" lon="12.7140881"><ele>115.0</ele><time>2026-03-28T12:24:39.529Z</time></trkpt><trkpt lat="42.0002679" lon="12.7141166"><ele>115.0</ele><time>2026-03-28T12:24:40.529Z</time></trkpt><trkpt lat="42.0003776" lon="12.7141214"><ele>115.0</ele><time>2026-03-28T12:24:41.531Z</time></trkpt><trkpt lat="42.0005013" lon="12.7141094"><ele>115.0</ele><time>2026-03-28T12:24:42.517Z</time></trkpt><trkpt lat="42.0006315" lon="12.7140916"><ele>115.0</ele><time>2026-03-28T12:24:43.548Z</time></trkpt><trkpt lat="42.0007589" lon="12.7140831"><ele>114.25</ele><time>2026-03-28T12:24:44.538Z</time></trkpt><trkpt lat="42.0008784" lon="12.7140848"><ele>113.5</ele><time>2026-03-28T12:24:45.526Z</time></trkpt><trkpt lat="42.0009957" lon="12.7140887"><ele>112.75</ele><time>2026-03-28T12:24:46.534Z</time></trkpt><trkpt lat="42.0011091" lon="12.7141255"><ele>112.0</ele><time>2026-03-28T12:24:47.597Z</time></trkpt><trkpt lat="42.0012257" lon="12.7141804"><ele>112.0</ele><time>2026-03-28T12:24:48.546Z</time></trkpt><trkpt lat="42.001335" lon="12.7142388"><ele>111.99999999999999</ele><time>2026-03-28T12:24:49.551Z</time></trkpt><trkpt lat="42.0014189" lon="12.7142849"><ele>111.99999999999999</ele><time>2026-03-28T12:24:50.537Z</time></trkpt><trkpt lat="42.0015218" lon="12.7143368"><ele>112.0</ele><time>2026-03-28T12:24:52.538Z</time></trkpt><trkpt lat="42.0016132" lon="12.7144043"><ele>112.0</ele><time>2026-03-28T12:24:54.523Z</time></trkpt><trkpt lat="42.001702" lon="12.7145243"><ele>111.6</ele><time>2026-03-28T12:24:56.55Z</time></trkpt><trkpt lat="42.0017535" lon="12.714673"><ele>111.19999999999999</ele><time>2026-03-28T12:24:58.55Z</time></trkpt><trkpt lat="42.0017973" lon="12.7148087"><ele>110.8</ele><time>2026-03-28T12:25:00.53Z</time></trkpt><trkpt lat="42.0018517" lon="12.7148942"><ele>110.4</ele><time>2026-03-28T12:25:02.542Z</time></trkpt><trkpt lat="42.0019587" lon="12.7149381"><ele>110.0</ele><time>2026-03-28T12:25:04.527Z</time></trkpt><trkpt lat="42.0020216" lon="12.7149315"><ele>109.99999999999999</ele><time>2026-03-28T12:25:05.532Z</time></trkpt><trkpt lat="42.0021011" lon="12.7149189"><ele>110.0</ele><time>2026-03-28T12:25:06.526Z</time></trkpt><trkpt lat="42.0021913" lon="12.7149033"><ele>110.0</ele><time>2026-03-28T12:25:07.523Z</time></trkpt><trkpt lat="42.0022809" lon="12.7148888"><ele>110.0</ele><time>2026-03-28T12:25:08.528Z</time></trkpt><trkpt lat="42.0023723" lon="12.7148705"><ele>109.99999999999999</ele><time>2026-03-28T12:25:09.539Z</time></trkpt><trkpt lat="42.0024629" lon="12.7148567"><ele>110.0</ele><time>2026-03-28T12:25:10.53Z</time></trkpt><trkpt lat="42.0025559" lon="12.7148465"><ele>110.2</ele><time>2026-03-28T12:25:11.534Z</time></trkpt><trkpt lat="42.0026508" lon="12.7148429"><ele>110.4</ele><time>2026-03-28T12:25:12.52Z</time></trkpt><trkpt lat="42.002753" lon="12.7148501"><ele>110.6</ele><time>2026-03-28T12:25:13.517Z</time></trkpt><trkpt lat="42.0028614" lon="12.7148671"><ele>110.8</ele><time>2026-03-28T12:25:14.546Z</time></trkpt><trkpt lat="42.0029803" lon="12.7148924"><ele>111.0</ele><time>2026-03-28T12:25:15.524Z</time></trkpt><trkpt lat="42.0031005" lon="12.7149289"><ele>111.0</ele><time>2026-03-28T12:25:16.542Z</time></trkpt><trkpt lat="42.0032276" lon="12.7149721"><ele>111.0</ele><time>2026-03-28T12:25:17.553Z</time></trkpt><trkpt lat="42.0033638" lon="12.7150171"><ele>111.0</ele><time>2026-03-28T12:25:18.537Z</time></trkpt><trkpt lat="42.0035097" lon="12.7150553"><ele>111.0</ele><time>2026-03-28T12:25:19.543Z</time></trkpt><trkpt lat="42.0036621" lon="12.7150797"><ele>111.0</ele><time>2026-03-28T12:25:20.535Z</time></trkpt><trkpt lat="42.0038187" lon="12.7150939"><ele>111.0</ele><time>2026-03-28T12:25:21.533Z</time></trkpt><trkpt lat="42.0039763" lon="12.7151001"><ele>111.0</ele><time>2026-03-28T12:25:22.546Z</time></trkpt><trkpt lat="42.0041365" lon="12.7150988"><ele>112.0</ele><time>2026-03-28T12:25:23.538Z</time></trkpt><trkpt lat="42.0042958" lon="12.7150864"><ele>113.0</ele><time>2026-03-28T12:25:24.532Z</time></trkpt><trkpt lat="42.0044555" lon="12.7150584"><ele>114.0</ele><time>2026-03-28T12:25:25.527Z</time></trkpt><trkpt lat="42.004616" lon="12.7150078"><ele>114.0</ele><time>2026-03-28T12:25:26.531Z</time></trkpt><trkpt lat="42.0047788" lon="12.7149486"><ele>114.0</ele><time>2026-03-28T12:25:27.523Z</time></trkpt><trkpt lat="42.004937" lon="12.7148941"><ele>114.0</ele><time>2026-03-28T12:25:28.517Z</time></trkpt><trkpt lat="42.0050964" lon="12.714839"><ele>115.33333333333334</ele><time>2026-03-28T12:25:29.535Z</time></trkpt><trkpt lat="42.0052558" lon="12.7147906"><ele>116.66666666666667</ele><time>2026-03-28T12:25:30.514Z</time></trkpt><trkpt lat="42.0054207" lon="12.7147465"><ele>118.0</ele><time>2026-03-28T12:25:31.552Z</time></trkpt><trkpt lat="42.0055813" lon="12.7147096"><ele>118.0</ele><time>2026-03-28T12:25:32.518Z</time></trkpt><trkpt lat="42.0057469" lon="12.7146811"><ele>118.0</ele><time>2026-03-28T12:25:33.523Z</time></trkpt><trkpt lat="42.0059184" lon="12.7146661"><ele>118.0</ele><time>2026-03-28T12:25:34.539Z</time></trkpt><trkpt lat="42.0060929" lon="12.7146664"><ele>118.66666666666667</ele><time>2026-03-28T12:25:35.526Z</time></trkpt><trkpt lat="42.0062725" lon="12.7146859"><ele>119.33333333333334</ele><time>2026-03-28T12:25:36.527Z</time></trkpt><trkpt lat="42.0064542" lon="12.7147204"><ele>120.0</ele><time>2026-03-28T12:25:37.531Z</time></trkpt><trkpt lat="42.0066323" lon="12.7147576"><ele>120.33333333333334</ele><time>2026-03-28T12:25:38.527Z</time></trkpt><trkpt lat="42.0068072" lon="12.7147846"><ele>120.66666666666667</ele><time>2026-03-28T12:25:39.531Z</time></trkpt><trkpt lat="42.0069851" lon="12.7148043"><ele>121.0</ele><time>2026-03-28T12:25:40.556Z</time></trkpt><trkpt lat="42.0071676" lon="12.714809"><ele>121.0</ele><time>2026-03-28T12:25:41.525Z</time></trkpt><trkpt lat="42.0073478" lon="12.7148007"><ele>121.0</ele><time>2026-03-28T12:25:42.518Z</time></trkpt><trkpt lat="42.0075351" lon="12.7147778"><ele>121.0</ele><time>2026-03-28T12:25:43.532Z</time></trkpt><trkpt lat="42.0077238" lon="12.7147276"><ele>122.0</ele><time>2026-03-28T12:25:44.524Z</time></trkpt><trkpt lat="42.0079095" lon="12.7146595"><ele>123.0</ele><time>2026-03-28T12:25:45.537Z</time></trkpt><trkpt lat="42.0080889" lon="12.7145792"><ele>124.0</ele><time>2026-03-28T12:25:46.532Z</time></trkpt><trkpt lat="42.0082681" lon="12.7144947"><ele>124.0</ele><time>2026-03-28T12:25:47.543Z</time></trkpt><trkpt lat="42.0084496" lon="12.7144149"><ele>124.0</ele><time>2026-03-28T12:25:48.545Z</time></trkpt><trkpt lat="42.0086356" lon="12.7143388"><ele>124.0</ele><time>2026-03-28T12:25:49.532Z</time></trkpt><trkpt lat="42.0088209" lon="12.7142601"><ele>124.33333333333334</ele><time>2026-03-28T12:25:50.532Z</time></trkpt><trkpt lat="42.0090078" lon="12.7141833"><ele>124.66666666666666</ele><time>2026-03-28T12:25:51.542Z</time></trkpt><trkpt lat="42.0091967" lon="12.7141073"><ele>125.0</ele><time>2026-03-28T12:25:52.536Z</time></trkpt><trkpt lat="42.0093856" lon="12.7140294"><ele>125.33333333333333</ele><time>2026-03-28T12:25:53.538Z</time></trkpt><trkpt lat="42.0095735" lon="12.7139533"><ele>125.66666666666666</ele><time>2026-03-28T12:25:54.547Z</time></trkpt><trkpt lat="42.009761" lon="12.7138789"><ele>126.0</ele><time>2026-03-28T12:25:55.533Z</time></trkpt><trkpt lat="42.0099474" lon="12.7138028"><ele>127.33333333333334</ele><time>2026-03-28T12:25:56.553Z</time></trkpt><trkpt lat="42.010134" lon="12.7137204"><ele>128.66666666666669</ele><time>2026-03-28T12:25:57.538Z</time></trkpt><trkpt lat="42.0103132" lon="12.7136303"><ele>130.0</ele><time>2026-03-28T12:25:58.518Z</time></trkpt><trkpt lat="42.0104854" lon="12.713535"><ele>130.0</ele><time>2026-03-28T12:25:59.539Z</time></trkpt><trkpt lat="42.0106521" lon="12.7134396"><ele>130.0</ele><time>2026-03-28T12:26:00.523Z</time></trkpt><trkpt lat="42.0108183" lon="12.7133589"><ele>130.0</ele><time>2026-03-28T12:26:01.534Z</time></trkpt><trkpt lat="42.010993" lon="12.713292"><ele>130.33333333333334</ele><time>2026-03-28T12:26:02.531Z</time></trkpt><trkpt lat="42.0111751" lon="12.713236"><ele>130.66666666666666</ele><time>2026-03-28T12:26:03.514Z</time></trkpt><trkpt lat="42.0113594" lon="12.7131809"><ele>131.0</ele><time>2026-03-28T12:26:04.529Z</time></trkpt><trkpt lat="42.011546" lon="12.7131245"><ele>130.0</ele><time>2026-03-28T12:26:05.566Z</time></trkpt><trkpt lat="42.0117303" lon="12.7130604"><ele>129.0</ele><time>2026-03-28T12:26:06.552Z</time></trkpt><trkpt lat="42.0119086" lon="12.7129885"><ele>128.0</ele><time>2026-03-28T12:26:07.578Z</time></trkpt><trkpt lat="42.012079" lon="12.7129148"><ele>128.0</ele><time>2026-03-28T12:26:08.545Z</time></trkpt><trkpt lat="42.0122419" lon="12.7128493"><ele>128.0</ele><time>2026-03-28T12:26:09.534Z</time></trkpt><trkpt lat="42.0123995" lon="12.7127906"><ele>128.0</ele><time>2026-03-28T12:26:10.546Z</time></trkpt><trkpt lat="42.0125595" lon="12.7127434"><ele>126.0</ele><time>2026-03-28T12:26:11.541Z</time></trkpt><trkpt lat="42.0127259" lon="12.7127208"><ele>124.0</ele><time>2026-03-28T12:26:12.554Z</time></trkpt><trkpt lat="42.0128917" lon="12.7127213"><ele>122.0</ele><time>2026-03-28T12:26:13.554Z</time></trkpt><trkpt lat="42.0130575" lon="12.7127238"><ele>122.0</ele><time>2026-03-28T12:26:14.536Z</time></trkpt><trkpt lat="42.013215" lon="12.7127052"><ele>122.0</ele><time>2026-03-28T12:26:15.537Z</time></trkpt><trkpt lat="42.013364" lon="12.7126538"><ele>122.0</ele><time>2026-03-28T12:26:16.534Z</time></trkpt><trkpt lat="42.0135057" lon="12.7125839"><ele>120.66666666666666</ele><time>2026-03-28T12:26:17.545Z</time></trkpt><trkpt lat="42.0136407" lon="12.7124849"><ele>119.33333333333334</ele><time>2026-03-28T12:26:18.533Z</time></trkpt><trkpt lat="42.0137758" lon="12.7123621"><ele>118.0</ele><time>2026-03-28T12:26:19.54Z</time></trkpt><trkpt lat="42.0139097" lon="12.712241"><ele>118.0</ele><time>2026-03-28T12:26:20.544Z</time></trkpt><trkpt lat="42.01405" lon="12.7121433"><ele>118.0</ele><time>2026-03-28T12:26:21.52Z</time></trkpt><trkpt lat="42.0141998" lon="12.7120754"><ele>118.0</ele><time>2026-03-28T12:26:22.547Z</time></trkpt><trkpt lat="42.0143608" lon="12.7120256"><ele>119.33333333333334</ele><time>2026-03-28T12:26:23.531Z</time></trkpt><trkpt lat="42.0145274" lon="12.7119909"><ele>120.66666666666666</ele><time>2026-03-28T12:26:24.525Z</time></trkpt><trkpt lat="42.0146934" lon="12.7119684"><ele>122.0</ele><time>2026-03-28T12:26:25.528Z</time></trkpt><trkpt lat="42.0148551" lon="12.7119731"><ele>121.75</ele><time>2026-03-28T12:26:26.522Z</time></trkpt><trkpt lat="42.0150061" lon="12.7120083"><ele>121.5</ele><time>2026-03-28T12:26:27.536Z</time></trkpt><trkpt lat="42.015143" lon="12.7120619"><ele>121.25</ele><time>2026-03-28T12:26:28.534Z</time></trkpt><trkpt lat="42.0152827" lon="12.712114"><ele>121.0</ele><time>2026-03-28T12:26:29.533Z</time></trkpt><trkpt lat="42.0154275" lon="12.7121776"><ele>121.0</ele><time>2026-03-28T12:26:30.527Z</time></trkpt><trkpt lat="42.015574" lon="12.7122443"><ele>121.0</ele><time>2026-03-28T12:26:31.537Z</time></trkpt><trkpt lat="42.0157231" lon="12.712317"><ele>121.0</ele><time>2026-03-28T12:26:32.533Z</time></trkpt><trkpt lat="42.0158774" lon="12.7123915"><ele>119.33333333333334</ele><time>2026-03-28T12:26:33.522Z</time></trkpt><trkpt lat="42.0160344" lon="12.7124612"><ele>117.66666666666666</ele><time>2026-03-28T12:26:34.527Z</time></trkpt><trkpt lat="42.0161908" lon="12.7125341"><ele>116.0</ele><time>2026-03-28T12:26:35.575Z</time></trkpt><trkpt lat="42.0163467" lon="12.7126073"><ele>116.0</ele><time>2026-03-28T12:26:36.563Z</time></trkpt><trkpt lat="42.0164906" lon="12.7126744"><ele>116.0</ele><time>2026-03-28T12:26:37.564Z</time></trkpt><trkpt lat="42.0166106" lon="12.7127265"><ele>116.0</ele><time>2026-03-28T12:26:38.531Z</time></trkpt><trkpt lat="42.016698" lon="12.7127657"><ele>116.0</ele><time>2026-03-28T12:26:39.521Z</time></trkpt><trkpt lat="42.0167607" lon="12.7128128"><ele>116.0</ele><time>2026-03-28T12:26:40.53Z</time></trkpt><trkpt lat="42.0168198" lon="12.7128612"><ele>118.4</ele><time>2026-03-28T12:26:41.533Z</time></trkpt><trkpt lat="42.0168798" lon="12.7129014"><ele>120.8</ele><time>2026-03-28T12:26:42.551Z</time></trkpt><trkpt lat="42.0169596" lon="12.7129359"><ele>123.20000000000002</ele><time>2026-03-28T12:26:43.528Z</time></trkpt><trkpt lat="42.0170576" lon="12.7129803"><ele>125.60000000000001</ele><time>2026-03-28T12:26:44.539Z</time></trkpt><trkpt lat="42.0171644" lon="12.7130245"><ele>128.0</ele><time>2026-03-28T12:26:45.538Z</time></trkpt><trkpt lat="42.0172718" lon="12.7130713"><ele>128.0</ele><time>2026-03-28T12:26:46.532Z</time></trkpt><trkpt lat="42.0173676" lon="12.7131116"><ele>128.0</ele><time>2026-03-28T12:26:47.546Z</time></trkpt><trkpt lat="42.0174613" lon="12.7131505"><ele>128.0</ele><time>2026-03-28T12:26:48.547Z</time></trkpt><trkpt lat="42.0175667" lon="12.7132164"><ele>128.0</ele><time>2026-03-28T12:26:49.535Z</time></trkpt><trkpt lat="42.0176803" lon="12.7133076"><ele>128.0</ele><time>2026-03-28T12:26:50.523Z</time></trkpt><trkpt lat="42.0177972" lon="12.7133998"><ele>128.20000000000002</ele><time>2026-03-28T12:26:51.559Z</time></trkpt><trkpt lat="42.0179117" lon="12.71349"><ele>128.4</ele><time>2026-03-28T12:26:52.545Z</time></trkpt><trkpt lat="42.0180188" lon="12.7135659"><ele>128.60000000000002</ele><time>2026-03-28T12:26:53.534Z</time></trkpt><trkpt lat="42.0181094" lon="12.7136171"><ele>128.8</ele><time>2026-03-28T12:26:54.541Z</time></trkpt><trkpt lat="42.0181957" lon="12.7136647"><ele>129.0</ele><time>2026-03-28T12:26:55.531Z</time></trkpt><trkpt lat="42.0182843" lon="12.7137317"><ele>131.2</ele><time>2026-03-28T12:26:56.533Z</time></trkpt><trkpt lat="42.018374" lon="12.7138183"><ele>133.4</ele><time>2026-03-28T12:26:57.543Z</time></trkpt><trkpt lat="42.0184557" lon="12.7138932"><ele>135.6</ele><time>2026-03-28T12:26:58.553Z</time></trkpt><trkpt lat="42.0185171" lon="12.7139605"><ele>137.8</ele><time>2026-03-28T12:26:59.538Z</time></trkpt><trkpt lat="42.0185723" lon="12.7140348"><ele>140.0</ele><time>2026-03-28T12:27:00.544Z</time></trkpt><trkpt lat="42.0186187" lon="12.7141317"><ele>140.0</ele><time>2026-03-28T12:27:01.534Z</time></trkpt><trkpt lat="42.0186627" lon="12.7142332"><ele>140.0</ele><time>2026-03-28T12:27:02.529Z</time></trkpt><trkpt lat="42.0187035" lon="12.7143198"><ele>140.0</ele><time>2026-03-28T12:27:03.538Z</time></trkpt><trkpt lat="42.0187549" lon="12.7143782"><ele>140.0</ele><time>2026-03-28T12:27:04.522Z</time></trkpt><trkpt lat="42.01882" lon="12.7144209"><ele>140.0</ele><time>2026-03-28T12:27:05.518Z</time></trkpt><trkpt lat="42.0189079" lon="12.7144264"><ele>140.0</ele><time>2026-03-28T12:27:06.529Z</time></trkpt><trkpt lat="42.0190148" lon="12.7143931"><ele>140.0</ele><time>2026-03-28T12:27:07.522Z</time></trkpt><trkpt lat="42.0191269" lon="12.7143505"><ele>140.0</ele><time>2026-03-28T12:27:08.549Z</time></trkpt><trkpt lat="42.0192341" lon="12.7142933"><ele>140.0</ele><time>2026-03-28T12:27:09.53Z</time></trkpt><trkpt lat="42.019322" lon="12.7142606"><ele>140.0</ele><time>2026-03-28T12:27:10.538Z</time></trkpt><trkpt lat="42.0193897" lon="12.7142457"><ele>140.0</ele><time>2026-03-28T12:27:11.527Z</time></trkpt><trkpt lat="42.019475" lon="12.7142883"><ele>140.4</ele><time>2026-03-28T12:27:13.52Z</time></trkpt><trkpt lat="42.0195369" lon="12.7144391"><ele>140.8</ele><time>2026-03-28T12:27:15.514Z</time></trkpt><trkpt lat="42.0195573" lon="12.7145462"><ele>141.2</ele><time>2026-03-28T12:27:16.507Z</time></trkpt><trkpt lat="42.0195587" lon="12.7146714"><ele>141.6</ele><time>2026-03-28T12:27:17.528Z</time></trkpt><trkpt lat="42.0195531" lon="12.7147963"><ele>142.0</ele><time>2026-03-28T12:27:18.519Z</time></trkpt><trkpt lat="42.0195518" lon="12.7148985"><ele>142.0</ele><time>2026-03-28T12:27:19.519Z</time></trkpt><trkpt lat="42.0195791" lon="12.715045"><ele>142.0</ele><time>2026-03-28T12:27:21.527Z</time></trkpt><trkpt lat="42.0196669" lon="12.7151734"><ele>142.0</ele><time>2026-03-28T12:27:23.531Z</time></trkpt><trkpt lat="42.0197609" lon="12.7152148"><ele>142.0</ele><time>2026-03-28T12:27:24.527Z</time></trkpt><trkpt lat="42.0198819" lon="12.7152666"><ele>144.0</ele><time>2026-03-28T12:27:25.524Z</time></trkpt><trkpt lat="42.0200043" lon="12.7153314"><ele>146.0</ele><time>2026-03-28T12:27:26.559Z</time></trkpt><trkpt lat="42.0201134" lon="12.7153936"><ele>148.0</ele><time>2026-03-28T12:27:27.529Z</time></trkpt><trkpt lat="42.0201966" lon="12.7154496"><ele>150.0</ele><time>2026-03-28T12:27:28.53Z</time></trkpt><trkpt lat="42.0202561" lon="12.7155117"><ele>152.0</ele><time>2026-03-28T12:27:29.525Z</time></trkpt><trkpt lat="42.0203074" lon="12.7156032"><ele>152.0</ele><time>2026-03-28T12:27:30.523Z</time></trkpt><trkpt lat="42.0203553" lon="12.7157209"><ele>152.0</ele><time>2026-03-28T12:27:31.525Z</time></trkpt><trkpt lat="42.0204135" lon="12.7158394"><ele>152.0</ele><time>2026-03-28T12:27:32.518Z</time></trkpt><trkpt lat="42.0204826" lon="12.7159596"><ele>152.0</ele><time>2026-03-28T12:27:33.541Z</time></trkpt><trkpt lat="42.0205662" lon="12.716067"><ele>152.0</ele><time>2026-03-28T12:27:34.562Z</time></trkpt><trkpt lat="42.0206527" lon="12.7161689"><ele>152.4</ele><time>2026-03-28T12:27:35.518Z</time></trkpt><trkpt lat="42.0207356" lon="12.7162692"><ele>152.79999999999998</ele><time>2026-03-28T12:27:36.528Z</time></trkpt><trkpt lat="42.0208185" lon="12.7163715"><ele>153.2</ele><time>2026-03-28T12:27:37.534Z</time></trkpt><trkpt lat="42.0208992" lon="12.716463"><ele>153.6</ele><time>2026-03-28T12:27:38.521Z</time></trkpt><trkpt lat="42.0209733" lon="12.7165381"><ele>154.0</ele><time>2026-03-28T12:27:39.521Z</time></trkpt><trkpt lat="42.0210446" lon="12.716615"><ele>155.0</ele><time>2026-03-28T12:27:40.525Z</time></trkpt><trkpt lat="42.0211143" lon="12.7166863"><ele>156.0</ele><time>2026-03-28T12:27:41.55Z</time></trkpt><trkpt lat="42.0211835" lon="12.7167534"><ele>157.0</ele><time>2026-03-28T12:27:42.539Z</time></trkpt><trkpt lat="42.021243" lon="12.7168206"><ele>158.0</ele><time>2026-03-28T12:27:43.538Z</time></trkpt><trkpt lat="42.0212856" lon="12.7168861"><ele>159.0</ele><time>2026-03-28T12:27:44.55Z</time></trkpt><trkpt lat="42.0213203" lon="12.7170144"><ele>160.0</ele><time>2026-03-28T12:27:46.54Z</time></trkpt><trkpt lat="42.0213454" lon="12.7171278"><ele>160.8</ele><time>2026-03-28T12:27:48.515Z</time></trkpt><trkpt lat="42.0214548" lon="12.717199"><ele>161.6</ele><time>2026-03-28T12:27:50.523Z</time></trkpt><trkpt lat="42.0215369" lon="12.7172439"><ele>162.39999999999998</ele><time>2026-03-28T12:27:51.535Z</time></trkpt><trkpt lat="42.0216238" lon="12.7173049"><ele>163.2</ele><time>2026-03-28T12:27:52.521Z</time></trkpt><trkpt lat="42.021725" lon="12.7173702"><ele>164.0</ele><time>2026-03-28T12:27:53.525Z</time></trkpt><trkpt lat="42.0218244" lon="12.7174385"><ele>165.2</ele><time>2026-03-28T12:27:54.536Z</time></trkpt><trkpt lat="42.0219236" lon="12.7175017"><ele>166.39999999999998</ele><time>2026-03-28T12:27:55.531Z</time></trkpt><trkpt lat="42.0220207" lon="12.717564"><ele>167.6</ele><time>2026-03-28T12:27:56.536Z</time></trkpt><trkpt lat="42.022116" lon="12.7176308"><ele>168.8</ele><time>2026-03-28T12:27:57.528Z</time></trkpt><trkpt lat="42.0222033" lon="12.7176996"><ele>170.0</ele><time>2026-03-28T12:27:58.53Z</time></trkpt><trkpt lat="42.0222836" lon="12.7177742"><ele>171.6</ele><time>2026-03-28T12:27:59.519Z</time></trkpt><trkpt lat="42.0223524" lon="12.7178634"><ele>173.2</ele><time>2026-03-28T12:28:00.53Z</time></trkpt><trkpt lat="42.0224256" lon="12.7179588"><ele>174.8</ele><time>2026-03-28T12:28:01.537Z</time></trkpt><trkpt lat="42.0225065" lon="12.7180393"><ele>176.4</ele><time>2026-03-28T12:28:02.546Z</time></trkpt><trkpt lat="42.022589" lon="12.7181067"><ele>178.0</ele><time>2026-03-28T12:28:03.53Z</time></trkpt><trkpt lat="42.0226554" lon="12.718155"><ele>178.33333333333334</ele><time>2026-03-28T12:28:04.523Z</time></trkpt><trkpt lat="42.0227405" lon="12.7182149"><ele>178.66666666666669</ele><time>2026-03-28T12:28:06.52Z</time></trkpt><trkpt lat="42.0228184" lon="12.7182844"><ele>179.0</ele><time>2026-03-28T12:28:09.539Z</time></trkpt><trkpt lat="42.02288" lon="12.718334"><ele>179.33333333333334</ele><time>2026-03-28T12:28:10.54Z</time></trkpt><trkpt lat="42.0229351" lon="12.7183952"><ele>179.66666666666666</ele><time>2026-03-28T12:28:11.62Z</time></trkpt><trkpt lat="42.0229832" lon="12.7185383"><ele>180.0</ele><time>2026-03-28T12:28:13.53Z</time></trkpt><trkpt lat="42.0229981" lon="12.7186244"><ele>180.83333333333334</ele><time>2026-03-28T12:28:14.544Z</time></trkpt><trkpt lat="42.0230122" lon="12.7187172"><ele>181.66666666666666</ele><time>2026-03-28T12:28:15.547Z</time></trkpt><trkpt lat="42.0230341" lon="12.7188189"><ele>182.5</ele><time>2026-03-28T12:28:16.589Z</time></trkpt><trkpt lat="42.0230665" lon="12.7189183"><ele>183.33333333333331</ele><time>2026-03-28T12:28:17.522Z</time></trkpt><trkpt lat="42.0231025" lon="12.7190154"><ele>184.16666666666666</ele><time>2026-03-28T12:28:18.564Z</time></trkpt><trkpt lat="42.023145" lon="12.7191128"><ele>185.0</ele><time>2026-03-28T12:28:19.545Z</time></trkpt><trkpt lat="42.0231925" lon="12.7192013"><ele>185.0</ele><time>2026-03-28T12:28:20.577Z</time></trkpt><trkpt lat="42.023237" lon="12.7192818"><ele>185.0</ele><time>2026-03-28T12:28:21.55Z</time></trkpt><trkpt lat="42.0232761" lon="12.719352"><ele>185.0</ele><time>2026-03-28T12:28:22.531Z</time></trkpt><trkpt lat="42.0233658" lon="12.7194499"><ele>185.0</ele><time>2026-03-28T12:28:24.536Z</time></trkpt><trkpt lat="42.0234835" lon="12.7195066"><ele>185.0</ele><time>2026-03-28T12:28:26.532Z</time></trkpt><trkpt lat="42.0235618" lon="12.7195321"><ele>183.8</ele><time>2026-03-28T12:28:27.536Z</time></trkpt><trkpt lat="42.0236408" lon="12.7195614"><ele>182.6</ele><time>2026-03-28T12:28:28.52Z</time></trkpt><trkpt lat="42.0237148" lon="12.7195945"><ele>181.39999999999998</ele><time>2026-03-28T12:28:29.522Z</time></trkpt><trkpt lat="42.0237824" lon="12.7196324"><ele>180.2</ele><time>2026-03-28T12:28:30.54Z</time></trkpt><trkpt lat="42.0238902" lon="12.7197003"><ele>179.0</ele><time>2026-03-28T12:28:32.513Z</time></trkpt><trkpt lat="42.0239763" lon="12.7197719"><ele>179.0</ele><time>2026-03-28T12:28:34.525Z</time></trkpt><trkpt lat="42.0240708" lon="12.7198518"><ele>179.0</ele><time>2026-03-28T12:28:36.525Z</time></trkpt><trkpt lat="42.0241348" lon="12.7198986"><ele>179.0</ele><time>2026-03-28T12:28:37.531Z</time></trkpt><trkpt lat="42.024195" lon="12.7199335"><ele>179.0</ele><time>2026-03-28T12:28:38.514Z</time></trkpt><trkpt lat="42.0243152" lon="12.719994"><ele>179.0</ele><time>2026-03-28T12:28:40.529Z</time></trkpt><trkpt lat="42.0243815" lon="12.7200271"><ele>179.0</ele><time>2026-03-28T12:28:41.53Z</time></trkpt><trkpt lat="42.024445" lon="12.7200554"><ele>179.66666666666666</ele><time>2026-03-28T12:28:42.528Z</time></trkpt><trkpt lat="42.0245715" lon="12.7200987"><ele>180.33333333333331</ele><time>2026-03-28T12:28:44.529Z</time></trkpt><trkpt lat="42.0246396" lon="12.720115"><ele>181.0</ele><time>2026-03-28T12:28:45.535Z</time></trkpt><trkpt lat="42.0247073" lon="12.7201317"><ele>181.66666666666666</ele><time>2026-03-28T12:28:46.548Z</time></trkpt><trkpt lat="42.0247774" lon="12.7201516"><ele>182.33333333333334</ele><time>2026-03-28T12:28:47.536Z</time></trkpt><trkpt lat="42.024847" lon="12.7201714"><ele>183.0</ele><time>2026-03-28T12:28:48.523Z</time></trkpt><trkpt lat="42.0249239" lon="12.7201984"><ele>183.33333333333334</ele><time>2026-03-28T12:28:49.528Z</time></trkpt><trkpt lat="42.0250071" lon="12.7202328"><ele>183.66666666666666</ele><time>2026-03-28T12:28:50.524Z</time></trkpt><trkpt lat="42.0250868" lon="12.7202752"><ele>184.0</ele><time>2026-03-28T12:28:51.553Z</time></trkpt><trkpt lat="42.0251637" lon="12.7203131"><ele>184.33333333333331</ele><time>2026-03-28T12:28:52.526Z</time></trkpt><trkpt lat="42.0252375" lon="12.7203515"><ele>184.66666666666666</ele><time>2026-03-28T12:28:53.522Z</time></trkpt><trkpt lat="42.0253033" lon="12.7203818"><ele>185.0</ele><time>2026-03-28T12:28:54.528Z</time></trkpt><trkpt lat="42.0253656" lon="12.7204035"><ele>185.2</ele><time>2026-03-28T12:28:55.533Z</time></trkpt><trkpt lat="42.0254888" lon="12.720448"><ele>185.4</ele><time>2026-03-28T12:28:57.531Z</time></trkpt><trkpt lat="42.0255547" lon="12.7204914"><ele>185.60000000000002</ele><time>2026-03-28T12:28:58.527Z</time></trkpt><trkpt lat="42.0256175" lon="12.7205368"><ele>185.8</ele><time>2026-03-28T12:28:59.524Z</time></trkpt><trkpt lat="42.0256736" lon="12.7205791"><ele>186.0</ele><time>2026-03-28T12:29:00.527Z</time></trkpt><trkpt lat="42.0257821" lon="12.7206558"><ele>185.20000000000002</ele><time>2026-03-28T12:29:02.533Z</time></trkpt><trkpt lat="42.0258667" lon="12.7207477"><ele>184.4</ele><time>2026-03-28T12:29:04.544Z</time></trkpt><trkpt lat="42.0259287" lon="12.7208473"><ele>183.6</ele><time>2026-03-28T12:29:06.535Z</time></trkpt><trkpt lat="42.0260152" lon="12.7209557"><ele>182.8</ele><time>2026-03-28T12:29:08.518Z</time></trkpt><trkpt lat="42.0260855" lon="12.7209958"><ele>182.0</ele><time>2026-03-28T12:29:09.531Z</time></trkpt><trkpt lat="42.02616" lon="12.721037"><ele>180.8</ele><time>2026-03-28T12:29:10.529Z</time></trkpt><trkpt lat="42.0262386" lon="12.7210814"><ele>179.6</ele><time>2026-03-28T12:29:11.517Z</time></trkpt><trkpt lat="42.0263222" lon="12.7211289"><ele>178.4</ele><time>2026-03-28T12:29:12.556Z</time></trkpt><trkpt lat="42.0264029" lon="12.7211802"><ele>177.20000000000002</ele><time>2026-03-28T12:29:13.534Z</time></trkpt><trkpt lat="42.0264849" lon="12.7212309"><ele>176.0</ele><time>2026-03-28T12:29:14.545Z</time></trkpt><trkpt lat="42.0265759" lon="12.7212771"><ele>177.0</ele><time>2026-03-28T12:29:15.546Z</time></trkpt><trkpt lat="42.0266633" lon="12.7213266"><ele>178.0</ele><time>2026-03-28T12:29:16.531Z</time></trkpt><trkpt lat="42.0267531" lon="12.7213676"><ele>179.0</ele><time>2026-03-28T12:29:17.526Z</time></trkpt><trkpt lat="42.0268428" lon="12.7214102"><ele>180.0</ele><time>2026-03-28T12:29:18.56Z</time></trkpt><trkpt lat="42.0269253" lon="12.7214448"><ele>181.0</ele><time>2026-03-28T12:29:19.531Z</time></trkpt><trkpt lat="42.0270049" lon="12.7214776"><ele>181.0</ele><time>2026-03-28T12:29:20.531Z</time></trkpt><trkpt lat="42.027083" lon="12.7215097"><ele>181.0</ele><time>2026-03-28T12:29:21.531Z</time></trkpt><trkpt lat="42.0271531" lon="12.7215385"><ele>181.0</ele><time>2026-03-28T12:29:22.571Z</time></trkpt><trkpt lat="42.0272365" lon="12.7215713"><ele>181.0</ele><time>2026-03-28T12:29:24.524Z</time></trkpt><trkpt lat="42.0273173" lon="12.7216255"><ele>181.0</ele><time>2026-03-28T12:29:26.542Z</time></trkpt><trkpt lat="42.0273817" lon="12.7216556"><ele>181.0</ele><time>2026-03-28T12:29:27.535Z</time></trkpt><trkpt lat="42.0274874" lon="12.7216724"><ele>182.0</ele><time>2026-03-28T12:29:29.536Z</time></trkpt><trkpt lat="42.0275516" lon="12.7216591"><ele>183.0</ele><time>2026-03-28T12:29:31.535Z</time></trkpt><trkpt lat="42.027633" lon="12.7216288"><ele>184.0</ele><time>2026-03-28T12:29:33.523Z</time></trkpt><trkpt lat="42.0277299" lon="12.7215667"><ele>185.0</ele><time>2026-03-28T12:29:35.529Z</time></trkpt><trkpt lat="42.0278211" lon="12.7214945"><ele>186.0</ele><time>2026-03-28T12:29:37.542Z</time></trkpt><trkpt lat="42.0279234" lon="12.7214225"><ele>186.0</ele><time>2026-03-28T12:29:39.556Z</time></trkpt><trkpt lat="42.0279855" lon="12.7213815"><ele>186.0</ele><time>2026-03-28T12:29:40.528Z</time></trkpt><trkpt lat="42.0280467" lon="12.7213398"><ele>186.0</ele><time>2026-03-28T12:29:41.528Z</time></trkpt><trkpt lat="42.0281097" lon="12.7212983"><ele>186.0</ele><time>2026-03-28T12:29:42.549Z</time></trkpt><trkpt lat="42.0281697" lon="12.7212567"><ele>186.0</ele><time>2026-03-28T12:29:43.531Z</time></trkpt><trkpt lat="42.0282405" lon="12.7211995"><ele>186.0</ele><time>2026-03-28T12:29:45.535Z</time></trkpt><trkpt lat="42.028343" lon="12.7211578"><ele>185.5</ele><time>2026-03-28T12:29:48.538Z</time></trkpt><trkpt lat="42.0284124" lon="12.721135"><ele>185.0</ele><time>2026-03-28T12:29:49.568Z</time></trkpt><trkpt lat="42.0284947" lon="12.7211067"><ele>184.5</ele><time>2026-03-28T12:29:50.589Z</time></trkpt><trkpt lat="42.0285811" lon="12.7210833"><ele>184.0</ele><time>2026-03-28T12:29:51.542Z</time></trkpt><trkpt lat="42.0286623" lon="12.7210663"><ele>183.5</ele><time>2026-03-28T12:29:52.543Z</time></trkpt><trkpt lat="42.0287695" lon="12.7210738"><ele>183.0</ele><time>2026-03-28T12:29:54.519Z</time></trkpt><trkpt lat="42.0288637" lon="12.7210994"><ele>183.0</ele><time>2026-03-28T12:29:56.53Z</time></trkpt><trkpt lat="42.0289993" lon="12.7211218"><ele>183.0</ele><time>2026-03-28T12:29:58.534Z</time></trkpt><trkpt lat="42.0290811" lon="12.7211327"><ele>183.0</ele><time>2026-03-28T12:29:59.526Z</time></trkpt><trkpt lat="42.029166" lon="12.7211489"><ele>183.0</ele><time>2026-03-28T12:30:00.522Z</time></trkpt><trkpt lat="42.0292459" lon="12.7211649"><ele>183.0</ele><time>2026-03-28T12:30:01.531Z</time></trkpt><trkpt lat="42.0293208" lon="12.7211821"><ele>182.14285714285714</ele><time>2026-03-28T12:30:02.529Z</time></trkpt><trkpt lat="42.0293932" lon="12.7211936"><ele>181.28571428571428</ele><time>2026-03-28T12:30:03.536Z</time></trkpt><trkpt lat="42.0294703" lon="12.7212007"><ele>180.42857142857144</ele><time>2026-03-28T12:30:04.52Z</time></trkpt><trkpt lat="42.0295484" lon="12.7212111"><ele>179.57142857142856</ele><time>2026-03-28T12:30:05.526Z</time></trkpt><trkpt lat="42.0296199" lon="12.7212232"><ele>178.7142857142857</ele><time>2026-03-28T12:30:06.527Z</time></trkpt><trkpt lat="42.0296895" lon="12.7212411"><ele>177.85714285714286</ele><time>2026-03-28T12:30:07.529Z</time></trkpt><trkpt lat="42.0297629" lon="12.7212709"><ele>177.0</ele><time>2026-03-28T12:30:08.538Z</time></trkpt><trkpt lat="42.0298747" lon="12.7213094"><ele>177.0</ele><time>2026-03-28T12:30:10.528Z</time></trkpt><trkpt lat="42.0299715" lon="12.721363"><ele>177.0</ele><time>2026-03-28T12:30:12.537Z</time></trkpt><trkpt lat="42.0300828" lon="12.7214459"><ele>177.0</ele><time>2026-03-28T12:30:14.527Z</time></trkpt><trkpt lat="42.0301455" lon="12.7215014"><ele>177.0</ele><time>2026-03-28T12:30:15.536Z</time></trkpt><trkpt lat="42.0302102" lon="12.7215449"><ele>177.0</ele><time>2026-03-28T12:30:16.548Z</time></trkpt><trkpt lat="42.0302744" lon="12.7215869"><ele>178.16666666666666</ele><time>2026-03-28T12:30:17.541Z</time></trkpt><trkpt lat="42.0303407" lon="12.7216231"><ele>179.33333333333334</ele><time>2026-03-28T12:30:18.544Z</time></trkpt><trkpt lat="42.0304096" lon="12.7216546"><ele>180.5</ele><time>2026-03-28T12:30:19.528Z</time></trkpt><trkpt lat="42.0304813" lon="12.721691"><ele>181.66666666666669</ele><time>2026-03-28T12:30:20.521Z</time></trkpt><trkpt lat="42.0305516" lon="12.7217356"><ele>182.83333333333334</ele><time>2026-03-28T12:30:21.513Z</time></trkpt><trkpt lat="42.0306209" lon="12.7217816"><ele>184.0</ele><time>2026-03-28T12:30:22.527Z</time></trkpt><trkpt lat="42.0306933" lon="12.721817"><ele>184.0</ele><time>2026-03-28T12:30:23.517Z</time></trkpt><trkpt lat="42.030761" lon="12.7218476"><ele>184.0</ele><time>2026-03-28T12:30:24.53Z</time></trkpt><trkpt lat="42.0308243" lon="12.7218656"><ele>184.0</ele><time>2026-03-28T12:30:25.53Z</time></trkpt><trkpt lat="42.0309359" lon="12.7218858"><ele>184.0</ele><time>2026-03-28T12:30:27.538Z</time></trkpt><trkpt lat="42.0310644" lon="12.7219103"><ele>184.0</ele><time>2026-03-28T12:30:29.533Z</time></trkpt><trkpt lat="42.0311386" lon="12.7219262"><ele>183.83333333333334</ele><time>2026-03-28T12:30:30.542Z</time></trkpt><trkpt lat="42.0312117" lon="12.7219413"><ele>183.66666666666669</ele><time>2026-03-28T12:30:31.525Z</time></trkpt><trkpt lat="42.0312926" lon="12.7219371"><ele>183.5</ele><time>2026-03-28T12:30:32.544Z</time></trkpt><trkpt lat="42.03137" lon="12.721926"><ele>183.33333333333334</ele><time>2026-03-28T12:30:33.55Z</time></trkpt><trkpt lat="42.0314469" lon="12.7219258"><ele>183.16666666666666</ele><time>2026-03-28T12:30:34.532Z</time></trkpt><trkpt lat="42.0315221" lon="12.7219348"><ele>183.0</ele><time>2026-03-28T12:30:35.541Z</time></trkpt><trkpt lat="42.0315944" lon="12.7219387"><ele>183.57142857142858</ele><time>2026-03-28T12:30:36.535Z</time></trkpt><trkpt lat="42.0316702" lon="12.721935"><ele>184.14285714285717</ele><time>2026-03-28T12:30:37.529Z</time></trkpt><trkpt lat="42.0317393" lon="12.7219175"><ele>184.71428571428572</ele><time>2026-03-28T12:30:38.533Z</time></trkpt><trkpt lat="42.0318058" lon="12.72189"><ele>185.28571428571428</ele><time>2026-03-28T12:30:39.546Z</time></trkpt><trkpt lat="42.0318706" lon="12.7218644"><ele>185.85714285714286</ele><time>2026-03-28T12:30:40.557Z</time></trkpt><trkpt lat="42.0319382" lon="12.7218356"><ele>186.42857142857142</ele><time>2026-03-28T12:30:41.568Z</time></trkpt><trkpt lat="42.0320049" lon="12.7218258"><ele>187.0</ele><time>2026-03-28T12:30:42.54Z</time></trkpt><trkpt lat="42.0320747" lon="12.7218352"><ele>187.0</ele><time>2026-03-28T12:30:43.552Z</time></trkpt><trkpt lat="42.0321476" lon="12.721847"><ele>187.0</ele><time>2026-03-28T12:30:44.532Z</time></trkpt><trkpt lat="42.0322227" lon="12.7218603"><ele>187.0</ele><time>2026-03-28T12:30:45.527Z</time></trkpt><trkpt lat="42.0323028" lon="12.7218743"><ele>187.0</ele><time>2026-03-28T12:30:46.544Z</time></trkpt><trkpt lat="42.0323806" lon="12.7219008"><ele>187.0</ele><time>2026-03-28T12:30:47.51Z</time></trkpt><trkpt lat="42.0324503" lon="12.7219323"><ele>187.0</ele><time>2026-03-28T12:30:48.532Z</time></trkpt><trkpt lat="42.0325217" lon="12.7219663"><ele>187.16666666666669</ele><time>2026-03-28T12:30:49.535Z</time></trkpt><trkpt lat="42.0325949" lon="12.7220116"><ele>187.33333333333334</ele><time>2026-03-28T12:30:50.532Z</time></trkpt><trkpt lat="42.0326735" lon="12.722059"><ele>187.5</ele><time>2026-03-28T12:30:51.515Z</time></trkpt><trkpt lat="42.0327509" lon="12.7220933"><ele>187.66666666666666</ele><time>2026-03-28T12:30:52.528Z</time></trkpt><trkpt lat="42.0328254" lon="12.7221181"><ele>187.83333333333331</ele><time>2026-03-28T12:30:53.528Z</time></trkpt><trkpt lat="42.0329099" lon="12.7221336"><ele>188.0</ele><time>2026-03-28T12:30:54.533Z</time></trkpt><trkpt lat="42.0329884" lon="12.7221449"><ele>188.0</ele><time>2026-03-28T12:30:55.549Z</time></trkpt><trkpt lat="42.0330685" lon="12.7221494"><ele>188.0</ele><time>2026-03-28T12:30:56.536Z</time></trkpt><trkpt lat="42.0331456" lon="12.7221563"><ele>188.0</ele><time>2026-03-28T12:30:57.534Z</time></trkpt><trkpt lat="42.0332245" lon="12.7221614"><ele>188.0</ele><time>2026-03-28T12:30:58.542Z</time></trkpt><trkpt lat="42.0333066" lon="12.7221682"><ele>188.0</ele><time>2026-03-28T12:30:59.539Z</time></trkpt><trkpt lat="42.0333865" lon="12.7221768"><ele>188.0</ele><time>2026-03-28T12:31:00.542Z</time></trkpt><trkpt lat="42.033461" lon="12.7221853"><ele>188.16666666666666</ele><time>2026-03-28T12:31:01.536Z</time></trkpt><trkpt lat="42.0335384" lon="12.722195"><ele>188.33333333333331</ele><time>2026-03-28T12:31:02.531Z</time></trkpt><trkpt lat="42.0336152" lon="12.7222039"><ele>188.5</ele><time>2026-03-28T12:31:03.528Z</time></trkpt><trkpt lat="42.0336919" lon="12.7222077"><ele>188.66666666666666</ele><time>2026-03-28T12:31:04.535Z</time></trkpt><trkpt lat="42.0337706" lon="12.7222115"><ele>188.83333333333334</ele><time>2026-03-28T12:31:05.526Z</time></trkpt><trkpt lat="42.0338465" lon="12.7222235"><ele>189.0</ele><time>2026-03-28T12:31:06.523Z</time></trkpt><trkpt lat="42.0339236" lon="12.7222377"><ele>189.0</ele><time>2026-03-28T12:31:07.554Z</time></trkpt><trkpt lat="42.0339994" lon="12.722249"><ele>189.0</ele><time>2026-03-28T12:31:08.525Z</time></trkpt><trkpt lat="42.0340714" lon="12.7222532"><ele>189.0</ele><time>2026-03-28T12:31:09.547Z</time></trkpt><trkpt lat="42.0341377" lon="12.7222541"><ele>189.0</ele><time>2026-03-28T12:31:10.552Z</time></trkpt><trkpt lat="42.0342019" lon="12.7222597"><ele>189.0</ele><time>2026-03-28T12:31:11.541Z</time></trkpt><trkpt lat="42.0342718" lon="12.7222629"><ele>189.0</ele><time>2026-03-28T12:31:12.521Z</time></trkpt><trkpt lat="42.0343466" lon="12.7222724"><ele>189.0</ele><time>2026-03-28T12:31:13.527Z</time></trkpt><trkpt lat="42.0344309" lon="12.7222807"><ele>188.42857142857142</ele><time>2026-03-28T12:31:14.525Z</time></trkpt><trkpt lat="42.0345094" lon="12.7222872"><ele>187.85714285714286</ele><time>2026-03-28T12:31:15.529Z</time></trkpt><trkpt lat="42.0345798" lon="12.7222913"><ele>187.28571428571428</ele><time>2026-03-28T12:31:16.528Z</time></trkpt><trkpt lat="42.0346444" lon="12.7222947"><ele>186.71428571428572</ele><time>2026-03-28T12:31:17.516Z</time></trkpt><trkpt lat="42.0347095" lon="12.7222999"><ele>186.14285714285714</ele><time>2026-03-28T12:31:18.537Z</time></trkpt><trkpt lat="42.0347756" lon="12.7223067"><ele>185.57142857142856</ele><time>2026-03-28T12:31:19.528Z</time></trkpt><trkpt lat="42.0348493" lon="12.7223174"><ele>185.0</ele><time>2026-03-28T12:31:20.525Z</time></trkpt><trkpt lat="42.0349326" lon="12.722323"><ele>184.6</ele><time>2026-03-28T12:31:21.526Z</time></trkpt><trkpt lat="42.0350041" lon="12.7223281"><ele>184.2</ele><time>2026-03-28T12:31:22.524Z</time></trkpt><trkpt lat="42.0351371" lon="12.7223395"><ele>183.8</ele><time>2026-03-28T12:31:24.524Z</time></trkpt><trkpt lat="42.0352079" lon="12.722345"><ele>183.4</ele><time>2026-03-28T12:31:25.519Z</time></trkpt><trkpt lat="42.0353337" lon="12.7223568"><ele>183.0</ele><time>2026-03-28T12:31:27.56Z</time></trkpt><trkpt lat="42.0353981" lon="12.722355"><ele>183.0</ele><time>2026-03-28T12:31:28.524Z</time></trkpt><trkpt lat="42.0354635" lon="12.7223659"><ele>183.0</ele><time>2026-03-28T12:31:29.53Z</time></trkpt><trkpt lat="42.0355349" lon="12.722374"><ele>183.0</ele><time>2026-03-28T12:31:30.528Z</time></trkpt><trkpt lat="42.0356114" lon="12.7223823"><ele>183.0</ele><time>2026-03-28T12:31:31.539Z</time></trkpt><trkpt lat="42.0356941" lon="12.7223882"><ele>183.0</ele><time>2026-03-28T12:31:32.54Z</time></trkpt><trkpt lat="42.0357765" lon="12.7223996"><ele>183.0</ele><time>2026-03-28T12:31:33.551Z</time></trkpt><trkpt lat="42.0358569" lon="12.7224112"><ele>182.66666666666666</ele><time>2026-03-28T12:31:34.532Z</time></trkpt><trkpt lat="42.0359412" lon="12.7224234"><ele>182.33333333333334</ele><time>2026-03-28T12:31:35.552Z</time></trkpt><trkpt lat="42.0360179" lon="12.7224301"><ele>182.0</ele><time>2026-03-28T12:31:36.539Z</time></trkpt><trkpt lat="42.0360931" lon="12.7224325"><ele>181.66666666666669</ele><time>2026-03-28T12:31:37.542Z</time></trkpt><trkpt lat="42.0361694" lon="12.7224384"><ele>181.33333333333334</ele><time>2026-03-28T12:31:38.525Z</time></trkpt><trkpt lat="42.0362471" lon="12.7224468"><ele>181.0</ele><time>2026-03-28T12:31:39.523Z</time></trkpt><trkpt lat="42.036325" lon="12.7224562"><ele>181.0</ele><time>2026-03-28T12:31:40.537Z</time></trkpt><trkpt lat="42.0364011" lon="12.7224632"><ele>181.0</ele><time>2026-03-28T12:31:41.516Z</time></trkpt><trkpt lat="42.0364783" lon="12.7224719"><ele>181.0</ele><time>2026-03-28T12:31:42.532Z</time></trkpt><trkpt lat="42.0365603" lon="12.7224832"><ele>181.0</ele><time>2026-03-28T12:31:43.532Z</time></trkpt><trkpt lat="42.0366472" lon="12.7224918"><ele>181.0</ele><time>2026-03-28T12:31:44.535Z</time></trkpt><trkpt lat="42.0367379" lon="12.722499"><ele>181.0</ele><time>2026-03-28T12:31:45.529Z</time></trkpt><trkpt lat="42.0368247" lon="12.7225055"><ele>180.0</ele><time>2026-03-28T12:31:46.527Z</time></trkpt><trkpt lat="42.0369116" lon="12.7225088"><ele>179.0</ele><time>2026-03-28T12:31:47.595Z</time></trkpt><trkpt lat="42.0369969" lon="12.7225162"><ele>178.0</ele><time>2026-03-28T12:31:48.532Z</time></trkpt><trkpt lat="42.0370759" lon="12.7225255"><ele>177.0</ele><time>2026-03-28T12:31:49.519Z</time></trkpt><trkpt lat="42.0371558" lon="12.7225302"><ele>176.0</ele><time>2026-03-28T12:31:50.527Z</time></trkpt><trkpt lat="42.0372345" lon="12.7225322"><ele>175.0</ele><time>2026-03-28T12:31:51.532Z</time></trkpt><trkpt lat="42.037316" lon="12.7225353"><ele>175.0</ele><time>2026-03-28T12:31:52.519Z</time></trkpt><trkpt lat="42.0373977" lon="12.7225369"><ele>175.0</ele><time>2026-03-28T12:31:53.523Z</time></trkpt><trkpt lat="42.0374824" lon="12.7225413"><ele>175.0</ele><time>2026-03-28T12:31:54.54Z</time></trkpt><trkpt lat="42.0375716" lon="12.7225431"><ele>175.0</ele><time>2026-03-28T12:31:55.538Z</time></trkpt><trkpt lat="42.0376624" lon="12.7225467"><ele>175.0</ele><time>2026-03-28T12:31:56.524Z</time></trkpt><trkpt lat="42.0377484" lon="12.7225463"><ele>175.0</ele><time>2026-03-28T12:31:57.52Z</time></trkpt><trkpt lat="42.0378314" lon="12.7225465"><ele>174.0</ele><time>2026-03-28T12:31:58.536Z</time></trkpt><trkpt lat="42.037913" lon="12.7225472"><ele>173.0</ele><time>2026-03-28T12:31:59.525Z</time></trkpt><trkpt lat="42.0379984" lon="12.722546"><ele>172.0</ele><time>2026-03-28T12:32:00.535Z</time></trkpt><trkpt lat="42.0380862" lon="12.7225467"><ele>171.0</ele><time>2026-03-28T12:32:01.527Z</time></trkpt><trkpt lat="42.0381823" lon="12.7225506"><ele>170.0</ele><time>2026-03-28T12:32:02.529Z</time></trkpt><trkpt lat="42.0382794" lon="12.7225541"><ele>169.0</ele><time>2026-03-28T12:32:03.544Z</time></trkpt><trkpt lat="42.0383824" lon="12.7225586"><ele>169.0</ele><time>2026-03-28T12:32:04.525Z</time></trkpt><trkpt lat="42.038488" lon="12.7225695"><ele>169.0</ele><time>2026-03-28T12:32:05.519Z</time></trkpt><trkpt lat="42.0385954" lon="12.7225788"><ele>169.0</ele><time>2026-03-28T12:32:06.525Z</time></trkpt><trkpt lat="42.0386977" lon="12.72259"><ele>169.0</ele><time>2026-03-28T12:32:07.529Z</time></trkpt><trkpt lat="42.0387923" lon="12.7226027"><ele>169.0</ele><time>2026-03-28T12:32:08.521Z</time></trkpt><trkpt lat="42.0388842" lon="12.7226149"><ele>169.0</ele><time>2026-03-28T12:32:09.528Z</time></trkpt><trkpt lat="42.0389806" lon="12.7226283"><ele>169.0</ele><time>2026-03-28T12:32:10.534Z</time></trkpt><trkpt lat="42.0390782" lon="12.7226373"><ele>169.0</ele><time>2026-03-28T12:32:11.545Z</time></trkpt><trkpt lat="42.0391754" lon="12.7226437"><ele>169.0</ele><time>2026-03-28T12:32:12.538Z</time></trkpt><trkpt lat="42.0392751" lon="12.7226508"><ele>169.0</ele><time>2026-03-28T12:32:13.53Z</time></trkpt><trkpt lat="42.0393718" lon="12.7226612"><ele>169.66666666666669</ele><time>2026-03-28T12:32:14.526Z</time></trkpt><trkpt lat="42.0394649" lon="12.7226737"><ele>170.33333333333334</ele><time>2026-03-28T12:32:15.534Z</time></trkpt><trkpt lat="42.0395509" lon="12.722684"><ele>171.0</ele><time>2026-03-28T12:32:16.543Z</time></trkpt><trkpt lat="42.0396311" lon="12.7226938"><ele>171.66666666666666</ele><time>2026-03-28T12:32:17.529Z</time></trkpt><trkpt lat="42.0397097" lon="12.7227122"><ele>172.33333333333331</ele><time>2026-03-28T12:32:18.548Z</time></trkpt><trkpt lat="42.0397889" lon="12.722742"><ele>173.0</ele><time>2026-03-28T12:32:19.515Z</time></trkpt><trkpt lat="42.0398666" lon="12.7227679"><ele>174.16666666666666</ele><time>2026-03-28T12:32:20.527Z</time></trkpt><trkpt lat="42.0399452" lon="12.7227832"><ele>175.33333333333331</ele><time>2026-03-28T12:32:21.53Z</time></trkpt><trkpt lat="42.0400296" lon="12.7227979"><ele>176.5</ele><time>2026-03-28T12:32:22.539Z</time></trkpt><trkpt lat="42.0401124" lon="12.7228202"><ele>177.66666666666666</ele><time>2026-03-28T12:32:23.531Z</time></trkpt><trkpt lat="42.0401992" lon="12.7228422"><ele>178.83333333333334</ele><time>2026-03-28T12:32:24.53Z</time></trkpt><trkpt lat="42.0402847" lon="12.7228665"><ele>180.0</ele><time>2026-03-28T12:32:25.52Z</time></trkpt><trkpt lat="42.0403682" lon="12.7228938"><ele>180.0</ele><time>2026-03-28T12:32:26.522Z</time></trkpt><trkpt lat="42.0404459" lon="12.7229233"><ele>180.0</ele><time>2026-03-28T12:32:27.521Z</time></trkpt><trkpt lat="42.0405164" lon="12.7229511"><ele>180.0</ele><time>2026-03-28T12:32:28.535Z</time></trkpt><trkpt lat="42.0405834" lon="12.7229776"><ele>180.0</ele><time>2026-03-28T12:32:29.53Z</time></trkpt><trkpt lat="42.0406472" lon="12.7230086"><ele>180.0</ele><time>2026-03-28T12:32:30.548Z</time></trkpt><trkpt lat="42.0407065" lon="12.7230522"><ele>180.0</ele><time>2026-03-28T12:32:31.533Z</time></trkpt><trkpt lat="42.0407689" lon="12.7231103"><ele>180.0</ele><time>2026-03-28T12:32:32.53Z</time></trkpt><trkpt lat="42.0408333" lon="12.7231788"><ele>179.66666666666666</ele><time>2026-03-28T12:32:33.523Z</time></trkpt><trkpt lat="42.0409017" lon="12.7232484"><ele>179.33333333333334</ele><time>2026-03-28T12:32:34.573Z</time></trkpt><trkpt lat="42.0409741" lon="12.7233135"><ele>179.0</ele><time>2026-03-28T12:32:35.534Z</time></trkpt><trkpt lat="42.0410494" lon="12.7233713"><ele>178.66666666666669</ele><time>2026-03-28T12:32:36.534Z</time></trkpt><trkpt lat="42.0411245" lon="12.7234148"><ele>178.33333333333334</ele><time>2026-03-28T12:32:37.538Z</time></trkpt><trkpt lat="42.0412007" lon="12.7234511"><ele>178.0</ele><time>2026-03-28T12:32:38.543Z</time></trkpt><trkpt lat="42.0431018" lon="12.723729"><ele>178.0</ele><time>2026-03-28T12:35:16.533Z</time></trkpt><trkpt lat="42.0431291" lon="12.7236525"><ele>178.0</ele><time>2026-03-28T12:35:26.512Z</time></trkpt><trkpt lat="42.0432131" lon="12.7236568"><ele>178.0</ele><time>2026-03-28T12:35:30.575Z</time></trkpt><trkpt lat="42.0432798" lon="12.7237076"><ele>178.0</ele><time>2026-03-28T12:35:33.533Z</time></trkpt><trkpt lat="42.0433603" lon="12.7237478"><ele>178.0</ele><time>2026-03-28T12:35:36.556Z</time></trkpt><trkpt lat="42.043423" lon="12.72379"><ele>178.0</ele><time>2026-03-28T12:35:38.521Z</time></trkpt><trkpt lat="42.0434787" lon="12.723858"><ele>177.2</ele><time>2026-03-28T12:35:40.531Z</time></trkpt><trkpt lat="42.0435451" lon="12.7239384"><ele>176.4</ele><time>2026-03-28T12:35:42.527Z</time></trkpt><trkpt lat="42.0436054" lon="12.7240489"><ele>175.6</ele><time>2026-03-28T12:35:44.532Z</time></trkpt><trkpt lat="42.0436553" lon="12.7241705"><ele>174.79999999999998</ele><time>2026-03-28T12:35:46.534Z</time></trkpt><trkpt lat="42.0436922" lon="12.7242999"><ele>174.0</ele><time>2026-03-28T12:35:48.531Z</time></trkpt><trkpt lat="42.0437286" lon="12.7244247"><ele>174.0</ele><time>2026-03-28T12:35:50.523Z</time></trkpt><trkpt lat="42.0437663" lon="12.7245375"><ele>174.0</ele><time>2026-03-28T12:35:52.539Z</time></trkpt><trkpt lat="42.0438083" lon="12.7246514"><ele>174.0</ele><time>2026-03-28T12:35:54.539Z</time></trkpt><trkpt lat="42.0438362" lon="12.7247474"><ele>174.0</ele><time>2026-03-28T12:35:56.535Z</time></trkpt><trkpt lat="42.0438625" lon="12.72483"><ele>174.0</ele><time>2026-03-28T12:35:58.532Z</time></trkpt><trkpt lat="42.0438897" lon="12.724911"><ele>174.0</ele><time>2026-03-28T12:36:00.536Z</time></trkpt><trkpt lat="42.0439205" lon="12.7249974"><ele>174.0</ele><time>2026-03-28T12:36:02.548Z</time></trkpt><trkpt lat="42.0439446" lon="12.7250867"><ele>174.0</ele><time>2026-03-28T12:36:04.557Z</time></trkpt><trkpt lat="42.0439739" lon="12.7251679"><ele>174.0</ele><time>2026-03-28T12:36:06.539Z</time></trkpt><trkpt lat="42.0440028" lon="12.7252458"><ele>174.0</ele><time>2026-03-28T12:36:08.587Z</time></trkpt><trkpt lat="42.0440279" lon="12.725334"><ele>174.0</ele><time>2026-03-28T12:36:11.543Z</time></trkpt><trkpt lat="42.043994" lon="12.7252374"><ele>174.0</ele><time>2026-03-28T12:36:35.549Z</time></trkpt><trkpt lat="42.0439613" lon="12.7251429"><ele>174.0</ele><time>2026-03-28T12:36:37.527Z</time></trkpt><trkpt lat="42.0439302" lon="12.7250444"><ele>174.0</ele><time>2026-03-28T12:36:39.534Z</time></trkpt><trkpt lat="42.0438949" lon="12.7249327"><ele>174.0</ele><time>2026-03-28T12:36:41.526Z</time></trkpt><trkpt lat="42.0438512" lon="12.7248078"><ele>174.0</ele><time>2026-03-28T12:36:43.54Z</time></trkpt><trkpt lat="42.0438055" lon="12.7246833"><ele>174.0</ele><time>2026-03-28T12:36:45.55Z</time></trkpt><trkpt lat="42.0437622" lon="12.7245556"><ele>174.0</ele><time>2026-03-28T12:36:47.543Z</time></trkpt><trkpt lat="42.0436984" lon="12.7243652"><ele>173.39999999999998</ele><time>2026-03-28T12:36:50.537Z</time></trkpt><trkpt lat="42.0436547" lon="12.7242336"><ele>172.8</ele><time>2026-03-28T12:36:52.545Z</time></trkpt><trkpt lat="42.0436067" lon="12.7241148"><ele>172.2</ele><time>2026-03-28T12:36:54.557Z</time></trkpt><trkpt lat="42.0435635" lon="12.7240158"><ele>171.60000000000002</ele><time>2026-03-28T12:37:36.527Z</time></trkpt><trkpt lat="42.0435189" lon="12.7239058"><ele>171.0</ele><time>2026-03-28T12:37:38.52Z</time></trkpt><trkpt lat="42.0434543" lon="12.7238055"><ele>171.0</ele><time>2026-03-28T12:37:40.534Z</time></trkpt><trkpt lat="42.0433806" lon="12.7237441"><ele>171.0</ele><time>2026-03-28T12:37:42.516Z</time></trkpt><trkpt lat="42.0432986" lon="12.7236901"><ele>171.0</ele><time>2026-03-28T12:37:44.535Z</time></trkpt><trkpt lat="42.0432205" lon="12.7236479"><ele>171.0</ele><time>2026-03-28T12:37:46.538Z</time></trkpt><trkpt lat="42.0431407" lon="12.7236231"><ele>171.0</ele><time>2026-03-28T12:37:48.534Z</time></trkpt><trkpt lat="42.0430609" lon="12.7236159"><ele>171.0</ele><time>2026-03-28T12:37:52.544Z</time></trkpt><trkpt lat="42.0429919" lon="12.7236068"><ele>172.4</ele><time>2026-03-28T12:37:54.532Z</time></trkpt><trkpt lat="42.0429125" lon="12.7235998"><ele>173.8</ele><time>2026-03-28T12:37:56.534Z</time></trkpt><trkpt lat="42.0428153" lon="12.7235905"><ele>175.20000000000002</ele><time>2026-03-28T12:37:58.555Z</time></trkpt><trkpt lat="42.042704" lon="12.7235843"><ele>176.60000000000002</ele><time>2026-03-28T12:38:00.543Z</time></trkpt><trkpt lat="42.0425935" lon="12.7235833"><ele>178.0</ele><time>2026-03-28T12:38:02.539Z</time></trkpt><trkpt lat="42.0424992" lon="12.723581"><ele>178.60000000000002</ele><time>2026-03-28T12:38:04.546Z</time></trkpt><trkpt lat="42.0424107" lon="12.7235724"><ele>179.20000000000002</ele><time>2026-03-28T12:38:06.526Z</time></trkpt><trkpt lat="42.0423115" lon="12.7235627"><ele>179.8</ele><time>2026-03-28T12:38:08.527Z</time></trkpt><trkpt lat="42.0422017" lon="12.72356"><ele>180.4</ele><time>2026-03-28T12:38:10.51Z</time></trkpt><trkpt lat="42.0420891" lon="12.7235604"><ele>181.0</ele><time>2026-03-28T12:38:12.534Z</time></trkpt><trkpt lat="42.041975" lon="12.7235678"><ele>181.0</ele><time>2026-03-28T12:38:14.531Z</time></trkpt><trkpt lat="42.0418559" lon="12.723591"><ele>181.0</ele><time>2026-03-28T12:38:16.536Z</time></trkpt><trkpt lat="42.0417319" lon="12.7236123"><ele>181.0</ele><time>2026-03-28T12:38:18.533Z</time></trkpt><trkpt lat="42.041666" lon="12.7236153"><ele>181.0</ele><time>2026-03-28T12:38:19.538Z</time></trkpt><trkpt lat="42.0415437" lon="12.7236113"><ele>181.0</ele><time>2026-03-28T12:38:21.537Z</time></trkpt><trkpt lat="42.0414222" lon="12.7235793"><ele>177.5</ele><time>2026-03-28T12:38:23.528Z</time></trkpt><trkpt lat="42.0413028" lon="12.7235255"><ele>174.0</ele><time>2026-03-28T12:38:25.539Z</time></trkpt><trkpt lat="42.0411798" lon="12.7234746"><ele>170.5</ele><time>2026-03-28T12:38:27.55Z</time></trkpt><trkpt lat="42.0410579" lon="12.7234121"><ele>167.0</ele><time>2026-03-28T12:38:29.541Z</time></trkpt><trkpt lat="42.0409938" lon="12.7233673"><ele>167.0</ele><time>2026-03-28T12:38:30.522Z</time></trkpt><trkpt lat="42.0409361" lon="12.7233197"><ele>167.0</ele><time>2026-03-28T12:38:31.529Z</time></trkpt><trkpt lat="42.0408733" lon="12.7232656"><ele>167.0</ele><time>2026-03-28T12:38:32.524Z</time></trkpt><trkpt lat="42.0408131" lon="12.7232077"><ele>167.0</ele><time>2026-03-28T12:38:33.588Z</time></trkpt><trkpt lat="42.0407543" lon="12.7231471"><ele>167.0</ele><time>2026-03-28T12:38:34.526Z</time></trkpt><trkpt lat="42.040697" lon="12.7230869"><ele>167.0</ele><time>2026-03-28T12:38:35.529Z</time></trkpt><trkpt lat="42.0406367" lon="12.7230336"><ele>167.0</ele><time>2026-03-28T12:38:36.525Z</time></trkpt><trkpt lat="42.0405732" lon="12.7229883"><ele>169.16666666666666</ele><time>2026-03-28T12:38:37.519Z</time></trkpt><trkpt lat="42.0405028" lon="12.7229433"><ele>171.33333333333331</ele><time>2026-03-28T12:38:38.616Z</time></trkpt><trkpt lat="42.0404207" lon="12.7229046"><ele>173.5</ele><time>2026-03-28T12:38:39.534Z</time></trkpt><trkpt lat="42.0403385" lon="12.7228731"><ele>175.66666666666666</ele><time>2026-03-28T12:38:40.527Z</time></trkpt><trkpt lat="42.0402635" lon="12.7228425"><ele>177.83333333333334</ele><time>2026-03-28T12:38:41.534Z</time></trkpt><trkpt lat="42.0401934" lon="12.7228248"><ele>180.0</ele><time>2026-03-28T12:38:42.535Z</time></trkpt><trkpt lat="42.0401292" lon="12.722808"><ele>180.0</ele><time>2026-03-28T12:38:43.52Z</time></trkpt><trkpt lat="42.0400151" lon="12.72278"><ele>180.0</ele><time>2026-03-28T12:38:45.549Z</time></trkpt><trkpt lat="42.0398967" lon="12.722753"><ele>180.0</ele><time>2026-03-28T12:38:47.521Z</time></trkpt><trkpt lat="42.0398316" lon="12.7227353"><ele>180.0</ele><time>2026-03-28T12:38:48.525Z</time></trkpt><trkpt lat="42.0397631" lon="12.7227151"><ele>180.0</ele><time>2026-03-28T12:38:49.526Z</time></trkpt><trkpt lat="42.0396678" lon="12.7226897"><ele>178.83333333333334</ele><time>2026-03-28T12:38:51.539Z</time></trkpt><trkpt lat="42.0395695" lon="12.7226654"><ele>177.66666666666666</ele><time>2026-03-28T12:38:53.591Z</time></trkpt><trkpt lat="42.039503" lon="12.7226558"><ele>176.5</ele><time>2026-03-28T12:38:54.524Z</time></trkpt><trkpt lat="42.0394393" lon="12.7226433"><ele>175.33333333333331</ele><time>2026-03-28T12:38:55.523Z</time></trkpt><trkpt lat="42.0393272" lon="12.7226304"><ele>174.16666666666666</ele><time>2026-03-28T12:38:57.558Z</time></trkpt><trkpt lat="42.0392564" lon="12.7226275"><ele>173.0</ele><time>2026-03-28T12:38:58.53Z</time></trkpt><trkpt lat="42.0391835" lon="12.7226265"><ele>172.2</ele><time>2026-03-28T12:38:59.529Z</time></trkpt><trkpt lat="42.0391142" lon="12.7226259"><ele>171.4</ele><time>2026-03-28T12:39:00.544Z</time></trkpt><trkpt lat="42.0390005" lon="12.7226099"><ele>170.6</ele><time>2026-03-28T12:39:02.532Z</time></trkpt><trkpt lat="42.0389312" lon="12.7226005"><ele>169.79999999999998</ele><time>2026-03-28T12:39:03.522Z</time></trkpt><trkpt lat="42.0388619" lon="12.7225857"><ele>169.0</ele><time>2026-03-28T12:39:04.522Z</time></trkpt><trkpt lat="42.038734" lon="12.7225783"><ele>169.0</ele><time>2026-03-28T12:39:06.523Z</time></trkpt><trkpt lat="42.0386606" lon="12.7225699"><ele>169.0</ele><time>2026-03-28T12:39:07.538Z</time></trkpt><trkpt lat="42.0385824" lon="12.7225623"><ele>169.0</ele><time>2026-03-28T12:39:08.525Z</time></trkpt><trkpt lat="42.0384981" lon="12.7225571"><ele>169.0</ele><time>2026-03-28T12:39:09.535Z</time></trkpt><trkpt lat="42.0384152" lon="12.72255"><ele>169.0</ele><time>2026-03-28T12:39:10.513Z</time></trkpt><trkpt lat="42.0383327" lon="12.7225448"><ele>169.0</ele><time>2026-03-28T12:39:11.537Z</time></trkpt><trkpt lat="42.0382525" lon="12.7225377"><ele>169.0</ele><time>2026-03-28T12:39:12.533Z</time></trkpt><trkpt lat="42.0381706" lon="12.7225332"><ele>169.0</ele><time>2026-03-28T12:39:13.511Z</time></trkpt><trkpt lat="42.0380835" lon="12.7225307"><ele>169.0</ele><time>2026-03-28T12:39:14.521Z</time></trkpt><trkpt lat="42.0379908" lon="12.7225281"><ele>169.0</ele><time>2026-03-28T12:39:15.527Z</time></trkpt><trkpt lat="42.0378992" lon="12.7225276"><ele>169.0</ele><time>2026-03-28T12:39:16.523Z</time></trkpt><trkpt lat="42.0378082" lon="12.722527"><ele>169.0</ele><time>2026-03-28T12:39:17.532Z</time></trkpt><trkpt lat="42.0377169" lon="12.7225284"><ele>169.0</ele><time>2026-03-28T12:39:18.528Z</time></trkpt><trkpt lat="42.0376272" lon="12.722527"><ele>169.0</ele><time>2026-03-28T12:39:19.533Z</time></trkpt><trkpt lat="42.0365521" lon="12.7224617"><ele>171.0</ele><time>2026-03-28T12:39:32.52Z</time></trkpt><trkpt lat="42.0364746" lon="12.7224577"><ele>173.0</ele><time>2026-03-28T12:39:33.522Z</time></trkpt><trkpt lat="42.0363977" lon="12.7224525"><ele>175.0</ele><time>2026-03-28T12:39:34.557Z</time></trkpt><trkpt lat="42.0363177" lon="12.7224452"><ele>177.0</ele><time>2026-03-28T12:39:35.571Z</time></trkpt><trkpt lat="42.0362365" lon="12.7224383"><ele>179.0</ele><time>2026-03-28T12:39:36.577Z</time></trkpt><trkpt lat="42.0361565" lon="12.7224325"><ele>181.0</ele><time>2026-03-28T12:39:37.521Z</time></trkpt><trkpt lat="42.0360758" lon="12.7224273"><ele>181.0</ele><time>2026-03-28T12:39:38.528Z</time></trkpt><trkpt lat="42.0360004" lon="12.7224268"><ele>181.0</ele><time>2026-03-28T12:39:39.569Z</time></trkpt><trkpt lat="42.0359268" lon="12.7224238"><ele>181.0</ele><time>2026-03-28T12:39:40.554Z</time></trkpt><trkpt lat="42.035852" lon="12.7224135"><ele>181.0</ele><time>2026-03-28T12:39:41.547Z</time></trkpt><trkpt lat="42.0357819" lon="12.7224035"><ele>181.0</ele><time>2026-03-28T12:39:42.536Z</time></trkpt><trkpt lat="42.0357416" lon="12.7223362"><ele>181.0</ele><time>2026-03-28T12:43:06.506Z</time></trkpt><trkpt lat="42.0357635" lon="12.722253"><ele>181.0</ele><time>2026-03-28T12:43:08.512Z</time></trkpt><trkpt lat="42.0357596" lon="12.7221204"><ele>181.4</ele><time>2026-03-28T12:43:10.52Z</time></trkpt><trkpt lat="42.0357508" lon="12.7219476"><ele>181.8</ele><time>2026-03-28T12:43:12.521Z</time></trkpt><trkpt lat="42.0357485" lon="12.7218565"><ele>182.20000000000002</ele><time>2026-03-28T12:43:13.522Z</time></trkpt><trkpt lat="42.0357446" lon="12.7217719"><ele>182.60000000000002</ele><time>2026-03-28T12:43:14.533Z</time></trkpt><trkpt lat="42.0357362" lon="12.7216046"><ele>183.0</ele><time>2026-03-28T12:43:16.545Z</time></trkpt><trkpt lat="42.0357305" lon="12.7214424"><ele>183.2</ele><time>2026-03-28T12:43:18.518Z</time></trkpt><trkpt lat="42.0357283" lon="12.7212839"><ele>183.4</ele><time>2026-03-28T12:43:20.532Z</time></trkpt><trkpt lat="42.0357304" lon="12.7211364"><ele>183.6</ele><time>2026-03-28T12:43:22.549Z</time></trkpt><trkpt lat="42.0357286" lon="12.7209852"><ele>183.79999999999998</ele><time>2026-03-28T12:43:24.524Z</time></trkpt><trkpt lat="42.0357565" lon="12.72088"><ele>184.0</ele><time>2026-03-28T12:43:26.517Z</time></trkpt><trkpt lat="42.0358294" lon="12.7208202"><ele>181.5</ele><time>2026-03-28T12:43:28.515Z</time></trkpt><trkpt lat="42.0359304" lon="12.72076"><ele>179.0</ele><time>2026-03-28T12:43:30.533Z</time></trkpt><trkpt lat="42.0360453" lon="12.7207064"><ele>176.5</ele><time>2026-03-28T12:43:32.512Z</time></trkpt><trkpt lat="42.0361587" lon="12.7206419"><ele>174.0</ele><time>2026-03-28T12:43:34.537Z</time></trkpt><trkpt lat="42.0362802" lon="12.7205881"><ele>174.0</ele><time>2026-03-28T12:43:36.527Z</time></trkpt><trkpt lat="42.0363422" lon="12.7205675"><ele>174.0</ele><time>2026-03-28T12:43:37.548Z</time></trkpt><trkpt lat="42.0364048" lon="12.7205484"><ele>174.0</ele><time>2026-03-28T12:43:38.552Z</time></trkpt><trkpt lat="42.0364713" lon="12.7205337"><ele>174.0</ele><time>2026-03-28T12:43:39.54Z</time></trkpt><trkpt lat="42.0365358" lon="12.7205242"><ele>174.0</ele><time>2026-03-28T12:43:40.517Z</time></trkpt><trkpt lat="42.0366014" lon="12.7205131"><ele>174.0</ele><time>2026-03-28T12:43:41.52Z</time></trkpt><trkpt lat="42.0366643" lon="12.7205037"><ele>174.0</ele><time>2026-03-28T12:43:42.509Z</time></trkpt><trkpt lat="42.036728" lon="12.7205059"><ele>173.0</ele><time>2026-03-28T12:43:43.537Z</time></trkpt><trkpt lat="42.0368501" lon="12.7205148"><ele>172.0</ele><time>2026-03-28T12:43:45.523Z</time></trkpt><trkpt lat="42.0369754" lon="12.7205271"><ele>171.0</ele><time>2026-03-28T12:43:47.542Z</time></trkpt><trkpt lat="42.0370446" lon="12.7205283"><ele>170.0</ele><time>2026-03-28T12:43:48.542Z</time></trkpt><trkpt lat="42.0371132" lon="12.7205337"><ele>169.0</ele><time>2026-03-28T12:43:49.526Z</time></trkpt><trkpt lat="42.0371823" lon="12.7205397"><ele>169.0</ele><time>2026-03-28T12:43:50.534Z</time></trkpt><trkpt lat="42.0372508" lon="12.7205338"><ele>169.0</ele><time>2026-03-28T12:43:51.536Z</time></trkpt><trkpt lat="42.037322" lon="12.7205367"><ele>169.0</ele><time>2026-03-28T12:43:52.534Z</time></trkpt><trkpt lat="42.0373921" lon="12.7205413"><ele>169.0</ele><time>2026-03-28T12:43:53.529Z</time></trkpt><trkpt lat="42.0374578" lon="12.7205451"><ele>169.0</ele><time>2026-03-28T12:43:54.551Z</time></trkpt><trkpt lat="42.0375272" lon="12.7205532"><ele>169.0</ele><time>2026-03-28T12:43:55.524Z</time></trkpt><trkpt lat="42.037591" lon="12.7205539"><ele>169.0</ele><time>2026-03-28T12:43:56.526Z</time></trkpt><trkpt lat="42.0376574" lon="12.7205596"><ele>167.83333333333334</ele><time>2026-03-28T12:43:57.542Z</time></trkpt><trkpt lat="42.0377206" lon="12.720565"><ele>166.66666666666669</ele><time>2026-03-28T12:43:58.535Z</time></trkpt><trkpt lat="42.0378473" lon="12.7205753"><ele>165.5</ele><time>2026-03-28T12:44:00.509Z</time></trkpt><trkpt lat="42.0379123" lon="12.7205752"><ele>164.33333333333334</ele><time>2026-03-28T12:44:01.55Z</time></trkpt><trkpt lat="42.0379821" lon="12.7205767"><ele>163.16666666666666</ele><time>2026-03-28T12:44:02.513Z</time></trkpt><trkpt lat="42.0380515" lon="12.7205788"><ele>162.0</ele><time>2026-03-28T12:44:03.508Z</time></trkpt><trkpt lat="42.0381207" lon="12.7205814"><ele>162.0</ele><time>2026-03-28T12:44:04.518Z</time></trkpt><trkpt lat="42.0381888" lon="12.720587"><ele>162.0</ele><time>2026-03-28T12:44:05.518Z</time></trkpt><trkpt lat="42.0382612" lon="12.7205928"><ele>162.0</ele><time>2026-03-28T12:44:06.526Z</time></trkpt><trkpt lat="42.0383351" lon="12.720595"><ele>162.0</ele><time>2026-03-28T12:44:07.526Z</time></trkpt><trkpt lat="42.0384097" lon="12.720601"><ele>162.0</ele><time>2026-03-28T12:44:08.55Z</time></trkpt><trkpt lat="42.0384862" lon="12.7206074"><ele>162.0</ele><time>2026-03-28T12:44:09.524Z</time></trkpt><trkpt lat="42.0385628" lon="12.7206137"><ele>162.0</ele><time>2026-03-28T12:44:10.52Z</time></trkpt><trkpt lat="42.0386416" lon="12.7206155"><ele>161.66666666666666</ele><time>2026-03-28T12:44:11.518Z</time></trkpt><trkpt lat="42.0387281" lon="12.7206131"><ele>161.33333333333334</ele><time>2026-03-28T12:44:12.515Z</time></trkpt><trkpt lat="42.0388165" lon="12.720617"><ele>161.0</ele><time>2026-03-28T12:44:13.543Z</time></trkpt><trkpt lat="42.0389024" lon="12.7206229"><ele>160.66666666666669</ele><time>2026-03-28T12:44:14.534Z</time></trkpt><trkpt lat="42.0389897" lon="12.720628"><ele>160.33333333333334</ele><time>2026-03-28T12:44:15.528Z</time></trkpt><trkpt lat="42.0390762" lon="12.7206361"><ele>160.0</ele><time>2026-03-28T12:44:16.532Z</time></trkpt><trkpt lat="42.0391602" lon="12.7206461"><ele>159.33333333333334</ele><time>2026-03-28T12:44:17.537Z</time></trkpt><trkpt lat="42.0392384" lon="12.7206517"><ele>158.66666666666669</ele><time>2026-03-28T12:44:18.554Z</time></trkpt><trkpt lat="42.0393088" lon="12.7206539"><ele>158.0</ele><time>2026-03-28T12:44:19.54Z</time></trkpt><trkpt lat="42.039376" lon="12.7206597"><ele>157.33333333333334</ele><time>2026-03-28T12:44:20.54Z</time></trkpt><trkpt lat="42.0394426" lon="12.7206643"><ele>156.66666666666666</ele><time>2026-03-28T12:44:21.555Z</time></trkpt><trkpt lat="42.0395076" lon="12.7206643"><ele>156.0</ele><time>2026-03-28T12:44:22.534Z</time></trkpt><trkpt lat="42.0396302" lon="12.7206745"><ele>156.0</ele><time>2026-03-28T12:44:24.53Z</time></trkpt><trkpt lat="42.039749" lon="12.7206794"><ele>156.0</ele><time>2026-03-28T12:44:26.535Z</time></trkpt><trkpt lat="42.0398484" lon="12.7206786"><ele>156.0</ele><time>2026-03-28T12:44:28.562Z</time></trkpt><trkpt lat="42.0399463" lon="12.7206738"><ele>156.0</ele><time>2026-03-28T12:44:30.54Z</time></trkpt><trkpt lat="42.0400606" lon="12.7206856"><ele>156.0</ele><time>2026-03-28T12:44:32.545Z</time></trkpt><trkpt lat="42.0401246" lon="12.7206932"><ele>155.0</ele><time>2026-03-28T12:44:33.514Z</time></trkpt><trkpt lat="42.0401887" lon="12.7206976"><ele>154.0</ele><time>2026-03-28T12:44:34.546Z</time></trkpt><trkpt lat="42.0402538" lon="12.7207005"><ele>153.0</ele><time>2026-03-28T12:44:35.519Z</time></trkpt><trkpt lat="42.0403784" lon="12.7206972"><ele>152.0</ele><time>2026-03-28T12:44:37.528Z</time></trkpt><trkpt lat="42.0404866" lon="12.7206703"><ele>151.0</ele><time>2026-03-28T12:44:39.55Z</time></trkpt><trkpt lat="42.0405466" lon="12.7206056"><ele>150.0</ele><time>2026-03-28T12:44:41.536Z</time></trkpt><trkpt lat="42.0405797" lon="12.7205053"><ele>150.0</ele><time>2026-03-28T12:44:43.527Z</time></trkpt><trkpt lat="42.0406142" lon="12.7203824"><ele>150.0</ele><time>2026-03-28T12:44:45.517Z</time></trkpt><trkpt lat="42.0406526" lon="12.7202433"><ele>150.0</ele><time>2026-03-28T12:44:47.526Z</time></trkpt><trkpt lat="42.0406807" lon="12.7201054"><ele>150.0</ele><time>2026-03-28T12:44:49.531Z</time></trkpt><trkpt lat="42.040715" lon="12.7199616"><ele>150.0</ele><time>2026-03-28T12:44:51.534Z</time></trkpt><trkpt lat="42.0407549" lon="12.7198359"><ele>151.8</ele><time>2026-03-28T12:44:53.554Z</time></trkpt><trkpt lat="42.0407768" lon="12.7196924"><ele>153.6</ele><time>2026-03-28T12:44:55.557Z</time></trkpt><trkpt lat="42.0408141" lon="12.7195578"><ele>155.4</ele><time>2026-03-28T12:44:57.528Z</time></trkpt><trkpt lat="42.0408897" lon="12.7194708"><ele>157.2</ele><time>2026-03-28T12:44:59.53Z</time></trkpt><trkpt lat="42.0410039" lon="12.7194121"><ele>159.0</ele><time>2026-03-28T12:45:01.542Z</time></trkpt><trkpt lat="42.0411157" lon="12.7193626"><ele>162.0</ele><time>2026-03-28T12:45:03.545Z</time></trkpt><trkpt lat="42.0412298" lon="12.7193268"><ele>165.0</ele><time>2026-03-28T12:45:05.538Z</time></trkpt><trkpt lat="42.0413543" lon="12.7193302"><ele>168.0</ele><time>2026-03-28T12:45:07.546Z</time></trkpt><trkpt lat="42.041423" lon="12.7193371"><ele>171.0</ele><time>2026-03-28T12:45:08.566Z</time></trkpt><trkpt lat="42.0414915" lon="12.7193448"><ele>174.0</ele><time>2026-03-28T12:45:09.53Z</time></trkpt><trkpt lat="42.0415595" lon="12.7193515"><ele>177.0</ele><time>2026-03-28T12:45:10.55Z</time></trkpt><trkpt lat="42.0416295" lon="12.7193599"><ele>176.5</ele><time>2026-03-28T12:45:11.525Z</time></trkpt><trkpt lat="42.0416973" lon="12.7193743"><ele>176.0</ele><time>2026-03-28T12:45:12.528Z</time></trkpt><trkpt lat="42.0417615" lon="12.7193841"><ele>175.5</ele><time>2026-03-28T12:45:13.525Z</time></trkpt><trkpt lat="42.0418705" lon="12.7193728"><ele>175.0</ele><time>2026-03-28T12:45:15.529Z</time></trkpt><trkpt lat="42.0419685" lon="12.7192832"><ele>174.5</ele><time>2026-03-28T12:45:17.519Z</time></trkpt><trkpt lat="42.0420059" lon="12.7192131"><ele>174.0</ele><time>2026-03-28T12:45:18.519Z</time></trkpt><trkpt lat="42.0420432" lon="12.7191351"><ele>174.0</ele><time>2026-03-28T12:45:19.529Z</time></trkpt><trkpt lat="42.0420824" lon="12.7190553"><ele>174.0</ele><time>2026-03-28T12:45:20.563Z</time></trkpt><trkpt lat="42.0421208" lon="12.7189743"><ele>174.0</ele><time>2026-03-28T12:45:21.544Z</time></trkpt><trkpt lat="42.042158" lon="12.7188959"><ele>174.0</ele><time>2026-03-28T12:45:22.574Z</time></trkpt><trkpt lat="42.0422379" lon="12.7187638"><ele>174.0</ele><time>2026-03-28T12:45:24.546Z</time></trkpt><trkpt lat="42.0423338" lon="12.7186409"><ele>174.0</ele><time>2026-03-28T12:45:26.532Z</time></trkpt><trkpt lat="42.042387" lon="12.7185764"><ele>174.0</ele><time>2026-03-28T12:45:27.541Z</time></trkpt><trkpt lat="42.0424361" lon="12.718513"><ele>174.0</ele><time>2026-03-28T12:45:28.544Z</time></trkpt><trkpt lat="42.0424849" lon="12.7184548"><ele>174.0</ele><time>2026-03-28T12:45:29.547Z</time></trkpt><trkpt lat="42.0425357" lon="12.7183994"><ele>174.0</ele><time>2026-03-28T12:45:30.537Z</time></trkpt><trkpt lat="42.0425909" lon="12.7183488"><ele>174.0</ele><time>2026-03-28T12:45:31.544Z</time></trkpt><trkpt lat="42.0426447" lon="12.7182959"><ele>174.0</ele><time>2026-03-28T12:45:32.537Z</time></trkpt><trkpt lat="42.0427035" lon="12.718248"><ele>174.28571428571428</ele><time>2026-03-28T12:45:33.549Z</time></trkpt><trkpt lat="42.0427653" lon="12.7182037"><ele>174.57142857142858</ele><time>2026-03-28T12:45:34.548Z</time></trkpt><trkpt lat="42.0428271" lon="12.7181628"><ele>174.85714285714286</ele><time>2026-03-28T12:45:35.561Z</time></trkpt><trkpt lat="42.0428964" lon="12.7181393"><ele>175.14285714285714</ele><time>2026-03-28T12:45:36.534Z</time></trkpt><trkpt lat="42.0429709" lon="12.7181281"><ele>175.42857142857142</ele><time>2026-03-28T12:45:37.541Z</time></trkpt><trkpt lat="42.0430423" lon="12.7180986"><ele>175.71428571428572</ele><time>2026-03-28T12:45:38.537Z</time></trkpt><trkpt lat="42.0431006" lon="12.718052"><ele>176.0</ele><time>2026-03-28T12:45:39.535Z</time></trkpt><trkpt lat="42.0431705" lon="12.7179919"><ele>176.0</ele><time>2026-03-28T12:45:40.531Z</time></trkpt><trkpt lat="42.0432456" lon="12.7179256"><ele>176.0</ele><time>2026-03-28T12:45:41.532Z</time></trkpt><trkpt lat="42.0433228" lon="12.717858"><ele>176.0</ele><time>2026-03-28T12:45:42.521Z</time></trkpt><trkpt lat="42.0433997" lon="12.7177847"><ele>176.0</ele><time>2026-03-28T12:45:43.527Z</time></trkpt><trkpt lat="42.0434766" lon="12.71771"><ele>176.0</ele><time>2026-03-28T12:45:44.549Z</time></trkpt><trkpt lat="42.043559" lon="12.7176366"><ele>177.83333333333331</ele><time>2026-03-28T12:45:45.56Z</time></trkpt><trkpt lat="42.0436357" lon="12.7175728"><ele>179.66666666666666</ele><time>2026-03-28T12:45:46.541Z</time></trkpt><trkpt lat="42.043701" lon="12.7175146"><ele>181.5</ele><time>2026-03-28T12:45:47.53Z</time></trkpt><trkpt lat="42.0437534" lon="12.7174653"><ele>183.33333333333334</ele><time>2026-03-28T12:45:48.523Z</time></trkpt><trkpt lat="42.0437903" lon="12.7173889"><ele>185.16666666666669</ele><time>2026-03-28T12:45:50.548Z</time></trkpt><trkpt lat="42.0437486" lon="12.7172905"><ele>187.0</ele><time>2026-03-28T12:45:53.525Z</time></trkpt><trkpt lat="42.0436468" lon="12.7172123"><ele>187.0</ele><time>2026-03-28T12:45:55.539Z</time></trkpt><trkpt lat="42.0435789" lon="12.7171693"><ele>187.0</ele><time>2026-03-28T12:45:56.53Z</time></trkpt><trkpt lat="42.043502" lon="12.7171429"><ele>187.0</ele><time>2026-03-28T12:45:57.536Z</time></trkpt><trkpt lat="42.0434139" lon="12.7171304"><ele>187.0</ele><time>2026-03-28T12:45:58.535Z</time></trkpt><trkpt lat="42.0433233" lon="12.7171262"><ele>187.0</ele><time>2026-03-28T12:45:59.55Z</time></trkpt><trkpt lat="42.0432373" lon="12.7171313"><ele>187.0</ele><time>2026-03-28T12:46:00.548Z</time></trkpt><trkpt lat="42.0431559" lon="12.7171295"><ele>187.66666666666669</ele><time>2026-03-28T12:46:01.555Z</time></trkpt><trkpt lat="42.0430763" lon="12.7171095"><ele>188.33333333333334</ele><time>2026-03-28T12:46:02.551Z</time></trkpt><trkpt lat="42.0430001" lon="12.7170725"><ele>189.0</ele><time>2026-03-28T12:46:03.525Z</time></trkpt><trkpt lat="42.0429334" lon="12.7170157"><ele>189.66666666666666</ele><time>2026-03-28T12:46:04.566Z</time></trkpt><trkpt lat="42.0428679" lon="12.7169503"><ele>190.33333333333331</ele><time>2026-03-28T12:46:05.536Z</time></trkpt><trkpt lat="42.0428099" lon="12.7168741"><ele>191.0</ele><time>2026-03-28T12:46:06.542Z</time></trkpt><trkpt lat="42.0427527" lon="12.716778"><ele>193.60000000000002</ele><time>2026-03-28T12:46:07.54Z</time></trkpt><trkpt lat="42.0426845" lon="12.7166953"><ele>196.2</ele><time>2026-03-28T12:46:08.543Z</time></trkpt><trkpt lat="42.0426046" lon="12.7166289"><ele>198.8</ele><time>2026-03-28T12:46:09.538Z</time></trkpt><trkpt lat="42.0425261" lon="12.7165663"><ele>201.39999999999998</ele><time>2026-03-28T12:46:10.541Z</time></trkpt><trkpt lat="42.042445" lon="12.716502"><ele>204.0</ele><time>2026-03-28T12:46:11.531Z</time></trkpt><trkpt lat="42.042363" lon="12.7164413"><ele>204.33333333333334</ele><time>2026-03-28T12:46:12.532Z</time></trkpt><trkpt lat="42.0422802" lon="12.7163746"><ele>204.66666666666669</ele><time>2026-03-28T12:46:13.523Z</time></trkpt><trkpt lat="42.0422007" lon="12.7163072"><ele>205.0</ele><time>2026-03-28T12:46:14.531Z</time></trkpt><trkpt lat="42.0421326" lon="12.716242"><ele>205.33333333333334</ele><time>2026-03-28T12:46:15.558Z</time></trkpt><trkpt lat="42.0420739" lon="12.7161669"><ele>205.66666666666669</ele><time>2026-03-28T12:46:16.565Z</time></trkpt><trkpt lat="42.0420169" lon="12.7160735"><ele>206.0</ele><time>2026-03-28T12:46:17.539Z</time></trkpt><trkpt lat="42.0419756" lon="12.7159722"><ele>208.0</ele><time>2026-03-28T12:46:18.563Z</time></trkpt><trkpt lat="42.04193" lon="12.7158726"><ele>210.0</ele><time>2026-03-28T12:46:19.534Z</time></trkpt><trkpt lat="42.0418785" lon="12.7157719"><ele>212.00000000000003</ele><time>2026-03-28T12:46:20.545Z</time></trkpt><trkpt lat="42.0418214" lon="12.7156609"><ele>214.0</ele><time>2026-03-28T12:46:21.534Z</time></trkpt><trkpt lat="42.0417665" lon="12.7155437"><ele>216.0</ele><time>2026-03-28T12:46:22.543Z</time></trkpt><trkpt lat="42.0417144" lon="12.7154305"><ele>216.0</ele><time>2026-03-28T12:46:23.534Z</time></trkpt><trkpt lat="42.0416627" lon="12.7153262"><ele>216.0</ele><time>2026-03-28T12:46:24.548Z</time></trkpt><trkpt lat="42.0416104" lon="12.7152275"><ele>216.0</ele><time>2026-03-28T12:46:25.554Z</time></trkpt><trkpt lat="42.0415658" lon="12.7151268"><ele>216.0</ele><time>2026-03-28T12:46:26.558Z</time></trkpt><trkpt lat="42.0415372" lon="12.7150343"><ele>216.0</ele><time>2026-03-28T12:46:27.552Z</time></trkpt><trkpt lat="42.041512" lon="12.7149486"><ele>216.0</ele><time>2026-03-28T12:46:29.536Z</time></trkpt><trkpt lat="42.0414676" lon="12.7148653"><ele>221.20000000000002</ele><time>2026-03-28T12:46:55.596Z</time></trkpt><trkpt lat="42.0413897" lon="12.7147094"><ele>226.40000000000003</ele><time>2026-03-28T12:46:57.533Z</time></trkpt><trkpt lat="42.0413326" lon="12.7146101"><ele>231.6</ele><time>2026-03-28T12:46:58.53Z</time></trkpt><trkpt lat="42.0412736" lon="12.7145055"><ele>236.8</ele><time>2026-03-28T12:46:59.536Z</time></trkpt><trkpt lat="42.0412153" lon="12.7143917"><ele>242.0</ele><time>2026-03-28T12:47:00.53Z</time></trkpt><trkpt lat="42.0411731" lon="12.714273"><ele>242.39999999999998</ele><time>2026-03-28T12:47:01.592Z</time></trkpt><trkpt lat="42.0411432" lon="12.7141461"><ele>242.79999999999998</ele><time>2026-03-28T12:47:02.531Z</time></trkpt><trkpt lat="42.0411329" lon="12.7140099"><ele>243.2</ele><time>2026-03-28T12:47:03.527Z</time></trkpt><trkpt lat="42.0411348" lon="12.7138698"><ele>243.6</ele><time>2026-03-28T12:47:04.53Z</time></trkpt><trkpt lat="42.0411352" lon="12.7137471"><ele>244.0</ele><time>2026-03-28T12:47:05.531Z</time></trkpt><trkpt lat="42.0411329" lon="12.7136438"><ele>243.39999999999998</ele><time>2026-03-28T12:47:06.524Z</time></trkpt><trkpt lat="42.0411182" lon="12.7135421"><ele>242.79999999999998</ele><time>2026-03-28T12:47:07.556Z</time></trkpt><trkpt lat="42.0410789" lon="12.7134279"><ele>242.20000000000002</ele><time>2026-03-28T12:47:08.527Z</time></trkpt><trkpt lat="42.0410242" lon="12.7133045"><ele>241.60000000000002</ele><time>2026-03-28T12:47:09.55Z</time></trkpt><trkpt lat="42.0409643" lon="12.7131714"><ele>241.0</ele><time>2026-03-28T12:47:10.526Z</time></trkpt><trkpt lat="42.040908" lon="12.7130375"><ele>241.0</ele><time>2026-03-28T12:47:11.536Z</time></trkpt><trkpt lat="42.0408768" lon="12.7128864"><ele>241.0</ele><time>2026-03-28T12:47:12.523Z</time></trkpt><trkpt lat="42.040867" lon="12.7127254"><ele>241.0</ele><time>2026-03-28T12:47:13.542Z</time></trkpt><trkpt lat="42.0408714" lon="12.7125678"><ele>241.0</ele><time>2026-03-28T12:47:14.512Z</time></trkpt><trkpt lat="42.0408737" lon="12.7124171"><ele>240.49999999999997</ele><time>2026-03-28T12:47:15.524Z</time></trkpt><trkpt lat="42.0408581" lon="12.7122882"><ele>240.0</ele><time>2026-03-28T12:47:16.536Z</time></trkpt><trkpt lat="42.040834" lon="12.712179"><ele>239.5</ele><time>2026-03-28T12:47:17.539Z</time></trkpt><trkpt lat="42.0407914" lon="12.7120975"><ele>239.0</ele><time>2026-03-28T12:47:18.531Z</time></trkpt><trkpt lat="42.0407214" lon="12.7120306"><ele>238.49999999999997</ele><time>2026-03-28T12:47:19.529Z</time></trkpt><trkpt lat="42.040632" lon="12.7119706"><ele>238.0</ele><time>2026-03-28T12:47:20.527Z</time></trkpt><trkpt lat="42.0405476" lon="12.711893"><ele>242.4</ele><time>2026-03-28T12:47:21.538Z</time></trkpt><trkpt lat="42.0404787" lon="12.7117944"><ele>246.8</ele><time>2026-03-28T12:47:22.548Z</time></trkpt><trkpt lat="42.0404243" lon="12.7116915"><ele>251.2</ele><time>2026-03-28T12:47:23.543Z</time></trkpt><trkpt lat="42.04038" lon="12.7115785"><ele>255.6</ele><time>2026-03-28T12:47:24.603Z</time></trkpt><trkpt lat="42.0403636" lon="12.7114466"><ele>260.0</ele><time>2026-03-28T12:47:25.544Z</time></trkpt><trkpt lat="42.0403719" lon="12.7113193"><ele>260.0</ele><time>2026-03-28T12:47:26.527Z</time></trkpt><trkpt lat="42.0403971" lon="12.7111879"><ele>260.0</ele><time>2026-03-28T12:47:27.532Z</time></trkpt><trkpt lat="42.0404424" lon="12.7110521"><ele>260.0</ele><time>2026-03-28T12:47:28.531Z</time></trkpt><trkpt lat="42.0405022" lon="12.7109151"><ele>260.0</ele><time>2026-03-28T12:47:29.586Z</time></trkpt><trkpt lat="42.0405665" lon="12.7107815"><ele>260.0</ele><time>2026-03-28T12:47:30.532Z</time></trkpt><trkpt lat="42.0406246" lon="12.7106402"><ele>259.75</ele><time>2026-03-28T12:47:31.541Z</time></trkpt><trkpt lat="42.040674" lon="12.7105008"><ele>259.5</ele><time>2026-03-28T12:47:32.546Z</time></trkpt><trkpt lat="42.0407206" lon="12.710358"><ele>259.25</ele><time>2026-03-28T12:47:33.541Z</time></trkpt><trkpt lat="42.0407666" lon="12.7102184"><ele>259.0</ele><time>2026-03-28T12:47:34.531Z</time></trkpt><trkpt lat="42.0408068" lon="12.7100786"><ele>256.8333333333333</ele><time>2026-03-28T12:47:35.535Z</time></trkpt><trkpt lat="42.0408452" lon="12.7099476"><ele>254.66666666666666</ele><time>2026-03-28T12:47:36.527Z</time></trkpt><trkpt lat="42.0408901" lon="12.7098275"><ele>252.5</ele><time>2026-03-28T12:47:37.529Z</time></trkpt><trkpt lat="42.0409306" lon="12.7097285"><ele>250.33333333333331</ele><time>2026-03-28T12:47:38.528Z</time></trkpt><trkpt lat="42.0409584" lon="12.7096512"><ele>248.16666666666666</ele><time>2026-03-28T12:47:39.537Z</time></trkpt><trkpt lat="42.0409765" lon="12.7095335"><ele>246.0</ele><time>2026-03-28T12:47:41.536Z</time></trkpt><trkpt lat="42.0409105" lon="12.7095176"><ele>246.0</ele><time>2026-03-28T12:47:44.55Z</time></trkpt><trkpt lat="42.040833" lon="12.7095484"><ele>246.0</ele><time>2026-03-28T12:47:46.521Z</time></trkpt><trkpt lat="42.040701" lon="12.7095877"><ele>246.0</ele><time>2026-03-28T12:47:48.52Z</time></trkpt><trkpt lat="42.0406279" lon="12.7096074"><ele>246.0</ele><time>2026-03-28T12:47:49.534Z</time></trkpt><trkpt lat="42.0405523" lon="12.7096377"><ele>246.0</ele><time>2026-03-28T12:47:50.573Z</time></trkpt><trkpt lat="42.0404852" lon="12.7096836"><ele>246.0</ele><time>2026-03-28T12:47:51.529Z</time></trkpt><trkpt lat="42.040425" lon="12.7097399"><ele>248.5714285714286</ele><time>2026-03-28T12:47:52.543Z</time></trkpt><trkpt lat="42.0403719" lon="12.7098061"><ele>251.14285714285717</ele><time>2026-03-28T12:47:53.535Z</time></trkpt><trkpt lat="42.0403191" lon="12.7098669"><ele>253.71428571428572</ele><time>2026-03-28T12:47:54.519Z</time></trkpt><trkpt lat="42.0402651" lon="12.7099173"><ele>256.28571428571433</ele><time>2026-03-28T12:47:55.539Z</time></trkpt><trkpt lat="42.0402102" lon="12.7099615"><ele>258.8571428571429</ele><time>2026-03-28T12:47:56.519Z</time></trkpt><trkpt lat="42.040151" lon="12.7100024"><ele>261.42857142857144</ele><time>2026-03-28T12:47:57.604Z</time></trkpt><trkpt lat="42.0400882" lon="12.7100416"><ele>264.0</ele><time>2026-03-28T12:47:58.529Z</time></trkpt><trkpt lat="42.0400187" lon="12.7100842"><ele>266.8</ele><time>2026-03-28T12:47:59.535Z</time></trkpt><trkpt lat="42.0399449" lon="12.7101307"><ele>269.59999999999997</ele><time>2026-03-28T12:48:00.529Z</time></trkpt><trkpt lat="42.0398638" lon="12.7101746"><ele>272.4</ele><time>2026-03-28T12:48:01.555Z</time></trkpt><trkpt lat="42.0397765" lon="12.7102145"><ele>275.2</ele><time>2026-03-28T12:48:02.531Z</time></trkpt><trkpt lat="42.039685" lon="12.7102507"><ele>278.0</ele><time>2026-03-28T12:48:03.542Z</time></trkpt><trkpt lat="42.0395932" lon="12.7102812"><ele>278.0</ele><time>2026-03-28T12:48:04.538Z</time></trkpt><trkpt lat="42.0394965" lon="12.7103188"><ele>278.0</ele><time>2026-03-28T12:48:05.561Z</time></trkpt><trkpt lat="42.0394026" lon="12.7103619"><ele>278.0</ele><time>2026-03-28T12:48:06.532Z</time></trkpt><trkpt lat="42.0393014" lon="12.7104049"><ele>278.0</ele><time>2026-03-28T12:48:07.531Z</time></trkpt><trkpt lat="42.0392007" lon="12.7104449"><ele>278.0</ele><time>2026-03-28T12:48:08.536Z</time></trkpt><trkpt lat="42.0391015" lon="12.7104839"><ele>282.8</ele><time>2026-03-28T12:48:09.53Z</time></trkpt><trkpt lat="42.0390088" lon="12.7105198"><ele>287.6</ele><time>2026-03-28T12:48:10.54Z</time></trkpt><trkpt lat="42.0389163" lon="12.7105522"><ele>292.4</ele><time>2026-03-28T12:48:11.544Z</time></trkpt><trkpt lat="42.0388257" lon="12.7105847"><ele>297.2</ele><time>2026-03-28T12:48:12.549Z</time></trkpt><trkpt lat="42.0387321" lon="12.7106203"><ele>302.0</ele><time>2026-03-28T12:48:13.528Z</time></trkpt><trkpt lat="42.0386422" lon="12.7106593"><ele>302.00000000000006</ele><time>2026-03-28T12:48:14.538Z</time></trkpt><trkpt lat="42.0385615" lon="12.7107032"><ele>302.0</ele><time>2026-03-28T12:48:15.526Z</time></trkpt><trkpt lat="42.038488" lon="12.7107428"><ele>302.0</ele><time>2026-03-28T12:48:16.62Z</time></trkpt><trkpt lat="42.0384268" lon="12.7107744"><ele>302.0</ele><time>2026-03-28T12:48:17.559Z</time></trkpt><trkpt lat="42.0383684" lon="12.7108072"><ele>302.0</ele><time>2026-03-28T12:48:18.543Z</time></trkpt><trkpt lat="42.0383101" lon="12.7108423"><ele>302.00000000000006</ele><time>2026-03-28T12:48:19.543Z</time></trkpt><trkpt lat="42.038225" lon="12.7108341"><ele>302.0</ele><time>2026-03-28T12:48:21.533Z</time></trkpt><trkpt lat="42.0381811" lon="12.7107143"><ele>302.83333333333337</ele><time>2026-03-28T12:48:23.61Z</time></trkpt><trkpt lat="42.0381991" lon="12.7105521"><ele>303.6666666666667</ele><time>2026-03-28T12:48:25.523Z</time></trkpt><trkpt lat="42.0382155" lon="12.710453"><ele>304.5</ele><time>2026-03-28T12:48:26.533Z</time></trkpt><trkpt lat="42.0382266" lon="12.7103487"><ele>305.3333333333333</ele><time>2026-03-28T12:48:27.532Z</time></trkpt><trkpt lat="42.038225" lon="12.7102541"><ele>306.16666666666663</ele><time>2026-03-28T12:48:28.522Z</time></trkpt><trkpt lat="42.0381749" lon="12.710151"><ele>307.0</ele><time>2026-03-28T12:48:30.537Z</time></trkpt><trkpt lat="42.0380689" lon="12.7101914"><ele>311.0</ele><time>2026-03-28T12:48:32.541Z</time></trkpt><trkpt lat="42.0379555" lon="12.7102843"><ele>315.0</ele><time>2026-03-28T12:48:34.605Z</time></trkpt><trkpt lat="42.0378886" lon="12.7103438"><ele>319.0</ele><time>2026-03-28T12:48:35.539Z</time></trkpt><trkpt lat="42.0378205" lon="12.7103921"><ele>323.0</ele><time>2026-03-28T12:48:36.533Z</time></trkpt><trkpt lat="42.0378067" lon="12.7104768"><ele>327.0</ele><time>2026-03-28T12:48:39.523Z</time></trkpt><trkpt lat="42.0378368" lon="12.7106068"><ele>327.0</ele><time>2026-03-28T12:48:41.585Z</time></trkpt><trkpt lat="42.0378437" lon="12.7107076"><ele>327.0</ele><time>2026-03-28T12:48:42.516Z</time></trkpt><trkpt lat="42.037839" lon="12.7108199"><ele>327.0</ele><time>2026-03-28T12:48:43.532Z</time></trkpt><trkpt lat="42.0378259" lon="12.7109454"><ele>327.0</ele><time>2026-03-28T12:48:44.535Z</time></trkpt><trkpt lat="42.037806" lon="12.7110721"><ele>327.0</ele><time>2026-03-28T12:48:45.523Z</time></trkpt><trkpt lat="42.0377879" lon="12.7112001"><ele>327.0</ele><time>2026-03-28T12:48:46.529Z</time></trkpt><trkpt lat="42.0377708" lon="12.7113201"><ele>328.0</ele><time>2026-03-28T12:48:47.522Z</time></trkpt><trkpt lat="42.0377511" lon="12.7114329"><ele>329.0</ele><time>2026-03-28T12:48:48.541Z</time></trkpt><trkpt lat="42.0377295" lon="12.7115401"><ele>330.0</ele><time>2026-03-28T12:48:49.527Z</time></trkpt><trkpt lat="42.0376974" lon="12.7116452"><ele>331.0</ele><time>2026-03-28T12:48:50.524Z</time></trkpt><trkpt lat="42.0376525" lon="12.7117532"><ele>332.0</ele><time>2026-03-28T12:48:51.527Z</time></trkpt><trkpt lat="42.0376041" lon="12.7118734"><ele>333.0</ele><time>2026-03-28T12:48:52.525Z</time></trkpt><trkpt lat="42.0375615" lon="12.7120007"><ele>333.6666666666667</ele><time>2026-03-28T12:48:53.532Z</time></trkpt><trkpt lat="42.0375466" lon="12.7121138"><ele>334.3333333333333</ele><time>2026-03-28T12:48:54.535Z</time></trkpt><trkpt lat="42.0375659" lon="12.7122106"><ele>335.0</ele><time>2026-03-28T12:48:55.537Z</time></trkpt><trkpt lat="42.0376167" lon="12.7122901"><ele>335.66666666666663</ele><time>2026-03-28T12:48:56.538Z</time></trkpt><trkpt lat="42.0376845" lon="12.7123524"><ele>336.3333333333333</ele><time>2026-03-28T12:48:57.534Z</time></trkpt><trkpt lat="42.0377809" lon="12.7124019"><ele>337.0</ele><time>2026-03-28T12:48:58.519Z</time></trkpt><trkpt lat="42.0378917" lon="12.7124608"><ele>337.0</ele><time>2026-03-28T12:48:59.523Z</time></trkpt><trkpt lat="42.0380073" lon="12.7125543"><ele>337.0</ele><time>2026-03-28T12:49:00.537Z</time></trkpt><trkpt lat="42.0381208" lon="12.7126603"><ele>337.0</ele><time>2026-03-28T12:49:01.535Z</time></trkpt><trkpt lat="42.0382306" lon="12.7127551"><ele>337.0</ele><time>2026-03-28T12:49:02.536Z</time></trkpt><trkpt lat="42.0383407" lon="12.7128492"><ele>334.0</ele><time>2026-03-28T12:49:03.523Z</time></trkpt><trkpt lat="42.0384323" lon="12.7129568"><ele>331.0</ele><time>2026-03-28T12:49:04.579Z</time></trkpt><trkpt lat="42.0385094" lon="12.7130762"><ele>328.0</ele><time>2026-03-28T12:49:05.527Z</time></trkpt><trkpt lat="42.0385728" lon="12.7132011"><ele>325.0</ele><time>2026-03-28T12:49:06.532Z</time></trkpt><trkpt lat="42.0386286" lon="12.7133223"><ele>325.0</ele><time>2026-03-28T12:49:07.526Z</time></trkpt><trkpt lat="42.0386765" lon="12.7134386"><ele>325.0</ele><time>2026-03-28T12:49:08.53Z</time></trkpt><trkpt lat="42.0387078" lon="12.7135594"><ele>325.0</ele><time>2026-03-28T12:49:09.522Z</time></trkpt><trkpt lat="42.038728" lon="12.7136867"><ele>325.0</ele><time>2026-03-28T12:49:10.531Z</time></trkpt><trkpt lat="42.0387212" lon="12.7138163"><ele>325.0</ele><time>2026-03-28T12:49:11.522Z</time></trkpt><trkpt lat="42.0386939" lon="12.7139333"><ele>324.4</ele><time>2026-03-28T12:49:12.519Z</time></trkpt><trkpt lat="42.0386553" lon="12.7140335"><ele>323.8</ele><time>2026-03-28T12:49:13.597Z</time></trkpt><trkpt lat="42.0386061" lon="12.7141294"><ele>323.20000000000005</ele><time>2026-03-28T12:49:14.516Z</time></trkpt><trkpt lat="42.0385474" lon="12.7142292"><ele>322.6</ele><time>2026-03-28T12:49:15.539Z</time></trkpt><trkpt lat="42.0384791" lon="12.7143251"><ele>322.0</ele><time>2026-03-28T12:49:16.542Z</time></trkpt><trkpt lat="42.0384064" lon="12.7144183"><ele>321.40000000000003</ele><time>2026-03-28T12:49:17.564Z</time></trkpt><trkpt lat="42.0383338" lon="12.7145079"><ele>320.8</ele><time>2026-03-28T12:49:18.555Z</time></trkpt><trkpt lat="42.0382567" lon="12.7145871"><ele>320.2</ele><time>2026-03-28T12:49:19.525Z</time></trkpt><trkpt lat="42.0381799" lon="12.7146592"><ele>319.6</ele><time>2026-03-28T12:49:20.533Z</time></trkpt><trkpt lat="42.0380976" lon="12.7147363"><ele>319.0</ele><time>2026-03-28T12:49:21.555Z</time></trkpt><trkpt lat="42.0380155" lon="12.7148203"><ele>319.0</ele><time>2026-03-28T12:49:22.546Z</time></trkpt><trkpt lat="42.0379244" lon="12.7149012"><ele>319.0</ele><time>2026-03-28T12:49:23.561Z</time></trkpt><trkpt lat="42.0378254" lon="12.7149696"><ele>319.0</ele><time>2026-03-28T12:49:24.536Z</time></trkpt><trkpt lat="42.037719" lon="12.7150338"><ele>319.0</ele><time>2026-03-28T12:49:25.528Z</time></trkpt><trkpt lat="42.0376087" lon="12.7150905"><ele>319.0</ele><time>2026-03-28T12:49:26.528Z</time></trkpt><trkpt lat="42.0375069" lon="12.7151284"><ele>319.0</ele><time>2026-03-28T12:49:27.531Z</time></trkpt><trkpt lat="42.0374081" lon="12.7151366"><ele>319.0</ele><time>2026-03-28T12:49:28.527Z</time></trkpt><trkpt lat="42.0373121" lon="12.715134"><ele>319.0</ele><time>2026-03-28T12:49:29.535Z</time></trkpt><trkpt lat="42.0372135" lon="12.7151365"><ele>319.0</ele><time>2026-03-28T12:49:30.529Z</time></trkpt><trkpt lat="42.037114" lon="12.7151375"><ele>321.0</ele><time>2026-03-28T12:49:31.528Z</time></trkpt><trkpt lat="42.0370082" lon="12.7151374"><ele>323.0</ele><time>2026-03-28T12:49:32.557Z</time></trkpt><trkpt lat="42.036899" lon="12.7151422"><ele>325.0</ele><time>2026-03-28T12:49:33.535Z</time></trkpt><trkpt lat="42.0367892" lon="12.715146"><ele>327.0</ele><time>2026-03-28T12:49:34.646Z</time></trkpt><trkpt lat="42.0365667" lon="12.7151495"><ele>328.40000000000003</ele><time>2026-03-28T12:49:36.529Z</time></trkpt><trkpt lat="42.0364602" lon="12.7151447"><ele>329.8</ele><time>2026-03-28T12:49:37.529Z</time></trkpt><trkpt lat="42.0363645" lon="12.7151494"><ele>331.2</ele><time>2026-03-28T12:49:38.525Z</time></trkpt><trkpt lat="42.0362698" lon="12.7151626"><ele>332.6</ele><time>2026-03-28T12:49:39.602Z</time></trkpt><trkpt lat="42.0361746" lon="12.7151676"><ele>334.0</ele><time>2026-03-28T12:49:40.522Z</time></trkpt><trkpt lat="42.0360771" lon="12.7151743"><ele>334.0</ele><time>2026-03-28T12:49:41.53Z</time></trkpt><trkpt lat="42.0359707" lon="12.7151779"><ele>334.0</ele><time>2026-03-28T12:49:42.533Z</time></trkpt><trkpt lat="42.0358589" lon="12.7151854"><ele>334.0</ele><time>2026-03-28T12:49:43.529Z</time></trkpt><trkpt lat="42.0357618" lon="12.7151911"><ele>334.0</ele><time>2026-03-28T12:49:44.593Z</time></trkpt><trkpt lat="42.0356627" lon="12.7151943"><ele>334.0</ele><time>2026-03-28T12:49:45.542Z</time></trkpt><trkpt lat="42.0355703" lon="12.7151967"><ele>335.85714285714283</ele><time>2026-03-28T12:49:46.534Z</time></trkpt><trkpt lat="42.035491" lon="12.7152027"><ele>337.7142857142857</ele><time>2026-03-28T12:49:47.53Z</time></trkpt><trkpt lat="42.0354216" lon="12.7152089"><ele>339.57142857142856</ele><time>2026-03-28T12:49:48.559Z</time></trkpt><trkpt lat="42.0353537" lon="12.7152079"><ele>341.42857142857144</ele><time>2026-03-28T12:49:49.548Z</time></trkpt><trkpt lat="42.0352835" lon="12.7152112"><ele>343.2857142857143</ele><time>2026-03-28T12:49:50.548Z</time></trkpt><trkpt lat="42.035208" lon="12.7152206"><ele>345.14285714285717</ele><time>2026-03-28T12:49:51.527Z</time></trkpt><trkpt lat="42.035133" lon="12.715232"><ele>347.0</ele><time>2026-03-28T12:49:52.547Z</time></trkpt><trkpt lat="42.0350558" lon="12.7152378"><ele>345.20000000000005</ele><time>2026-03-28T12:49:53.549Z</time></trkpt><trkpt lat="42.0349693" lon="12.7152591"><ele>343.4</ele><time>2026-03-28T12:49:54.556Z</time></trkpt><trkpt lat="42.0348754" lon="12.7152964"><ele>341.6</ele><time>2026-03-28T12:49:55.604Z</time></trkpt><trkpt lat="42.0347779" lon="12.7153416"><ele>339.79999999999995</ele><time>2026-03-28T12:49:56.538Z</time></trkpt><trkpt lat="42.0346887" lon="12.7153963"><ele>338.0</ele><time>2026-03-28T12:49:57.534Z</time></trkpt><trkpt lat="42.0346087" lon="12.7154502"><ele>338.0</ele><time>2026-03-28T12:49:58.536Z</time></trkpt><trkpt lat="42.0345352" lon="12.7154969"><ele>338.0</ele><time>2026-03-28T12:49:59.531Z</time></trkpt><trkpt lat="42.0344648" lon="12.7155502"><ele>338.0</ele><time>2026-03-28T12:50:00.528Z</time></trkpt><trkpt lat="42.0343916" lon="12.7156126"><ele>338.0</ele><time>2026-03-28T12:50:01.529Z</time></trkpt><trkpt lat="42.0343161" lon="12.7156779"><ele>338.0</ele><time>2026-03-28T12:50:02.52Z</time></trkpt><trkpt lat="42.034229" lon="12.7157411"><ele>338.0</ele><time>2026-03-28T12:50:03.52Z</time></trkpt><trkpt lat="42.0341312" lon="12.7157971"><ele>337.4</ele><time>2026-03-28T12:50:04.546Z</time></trkpt><trkpt lat="42.0340303" lon="12.7158401"><ele>336.79999999999995</ele><time>2026-03-28T12:50:05.541Z</time></trkpt><trkpt lat="42.0339323" lon="12.7158784"><ele>336.2</ele><time>2026-03-28T12:50:06.59Z</time></trkpt><trkpt lat="42.0338406" lon="12.7159046"><ele>335.6</ele><time>2026-03-28T12:50:07.537Z</time></trkpt><trkpt lat="42.0337514" lon="12.7159224"><ele>335.0</ele><time>2026-03-28T12:50:08.524Z</time></trkpt><trkpt lat="42.0336633" lon="12.7159296"><ele>335.0</ele><time>2026-03-28T12:50:09.545Z</time></trkpt><trkpt lat="42.0335791" lon="12.7159193"><ele>335.0</ele><time>2026-03-28T12:50:10.52Z</time></trkpt><trkpt lat="42.0335028" lon="12.7159038"><ele>335.0</ele><time>2026-03-28T12:50:11.526Z</time></trkpt><trkpt lat="42.0334319" lon="12.7158765"><ele>335.0</ele><time>2026-03-28T12:50:12.526Z</time></trkpt><trkpt lat="42.0333643" lon="12.7158331"><ele>335.0</ele><time>2026-03-28T12:50:13.548Z</time></trkpt><trkpt lat="42.033304" lon="12.7157723"><ele>335.0</ele><time>2026-03-28T12:50:14.517Z</time></trkpt><trkpt lat="42.0332488" lon="12.7156718"><ele>335.0</ele><time>2026-03-28T12:50:16.531Z</time></trkpt><trkpt lat="42.0333167" lon="12.7156357"><ele>335.0</ele><time>2026-03-28T12:50:21.521Z</time></trkpt><trkpt lat="42.0333651" lon="12.7156949"><ele>335.0</ele><time>2026-03-28T12:50:23.532Z</time></trkpt><trkpt lat="42.0334586" lon="12.7156929"><ele>335.0</ele><time>2026-03-28T12:50:25.522Z</time></trkpt><trkpt lat="42.0335199" lon="12.7156589"><ele>335.0</ele><time>2026-03-28T12:50:26.599Z</time></trkpt><trkpt lat="42.0335817" lon="12.7156246"><ele>335.0</ele><time>2026-03-28T12:50:27.518Z</time></trkpt><trkpt lat="42.0336618" lon="12.7155661"><ele>335.0</ele><time>2026-03-28T12:50:29.56Z</time></trkpt><trkpt lat="42.0337123" lon="12.7154904"><ele>335.0</ele><time>2026-03-28T12:50:31.55Z</time></trkpt><trkpt lat="42.0337513" lon="12.7153588"><ele>335.0</ele><time>2026-03-28T12:50:33.532Z</time></trkpt><trkpt lat="42.0337987" lon="12.7152174"><ele>335.0</ele><time>2026-03-28T12:50:35.554Z</time></trkpt><trkpt lat="42.0338576" lon="12.7150632"><ele>335.0</ele><time>2026-03-28T12:50:37.534Z</time></trkpt><trkpt lat="42.0338816" lon="12.7149723"><ele>336.83333333333337</ele><time>2026-03-28T12:50:38.548Z</time></trkpt><trkpt lat="42.0338995" lon="12.7148736"><ele>338.6666666666667</ele><time>2026-03-28T12:50:39.642Z</time></trkpt><trkpt lat="42.033918" lon="12.7147885"><ele>340.5</ele><time>2026-03-28T12:50:40.555Z</time></trkpt><trkpt lat="42.0339507" lon="12.7146567"><ele>342.3333333333333</ele><time>2026-03-28T12:50:42.58Z</time></trkpt><trkpt lat="42.0339748" lon="12.7145588"><ele>344.16666666666663</ele><time>2026-03-28T12:50:44.546Z</time></trkpt><trkpt lat="42.0339952" lon="12.7144514"><ele>346.0</ele><time>2026-03-28T12:50:46.572Z</time></trkpt><trkpt lat="42.0340242" lon="12.7143525"><ele>348.16666666666663</ele><time>2026-03-28T12:50:48.549Z</time></trkpt><trkpt lat="42.0340303" lon="12.7142417"><ele>350.3333333333333</ele><time>2026-03-28T12:50:50.546Z</time></trkpt><trkpt lat="42.0339958" lon="12.7141183"><ele>352.5</ele><time>2026-03-28T12:50:52.523Z</time></trkpt><trkpt lat="42.0339573" lon="12.7140441"><ele>354.6666666666667</ele><time>2026-03-28T12:50:53.548Z</time></trkpt><trkpt lat="42.0339108" lon="12.713968"><ele>356.83333333333337</ele><time>2026-03-28T12:50:54.534Z</time></trkpt><trkpt lat="42.0338634" lon="12.713902"><ele>359.0</ele><time>2026-03-28T12:50:55.607Z</time></trkpt><trkpt lat="42.033816" lon="12.713837"><ele>359.0</ele><time>2026-03-28T12:50:56.548Z</time></trkpt><trkpt lat="42.033765" lon="12.713782"><ele>359.0</ele><time>2026-03-28T12:50:57.558Z</time></trkpt><trkpt lat="42.03367" lon="12.7136929"><ele>359.0</ele><time>2026-03-28T12:50:59.536Z</time></trkpt><trkpt lat="42.0335654" lon="12.713607"><ele>359.0</ele><time>2026-03-28T12:51:01.617Z</time></trkpt><trkpt lat="42.033506" lon="12.7135752"><ele>359.0</ele><time>2026-03-28T12:51:02.534Z</time></trkpt><trkpt lat="42.0333913" lon="12.7135438"><ele>359.83333333333337</ele><time>2026-03-28T12:51:04.53Z</time></trkpt><trkpt lat="42.033317" lon="12.7135287"><ele>360.6666666666667</ele><time>2026-03-28T12:51:06.558Z</time></trkpt><trkpt lat="42.0332428" lon="12.7135212"><ele>361.5</ele><time>2026-03-28T12:51:08.578Z</time></trkpt><trkpt lat="42.0331723" lon="12.7135185"><ele>362.3333333333333</ele><time>2026-03-28T12:51:10.542Z</time></trkpt><trkpt lat="42.0330856" lon="12.7135034"><ele>363.16666666666663</ele><time>2026-03-28T12:51:13.535Z</time></trkpt><trkpt lat="42.033003" lon="12.713501"><ele>364.0</ele><time>2026-03-28T12:51:15.531Z</time></trkpt><trkpt lat="42.0329099" lon="12.7134731"><ele>358.5</ele><time>2026-03-28T12:51:17.534Z</time></trkpt><trkpt lat="42.0328369" lon="12.7134235"><ele>353.0</ele><time>2026-03-28T12:51:19.568Z</time></trkpt><trkpt lat="42.0328012" lon="12.7133289"><ele>347.5</ele><time>2026-03-28T12:51:21.524Z</time></trkpt><trkpt lat="42.0328177" lon="12.7132287"><ele>342.0</ele><time>2026-03-28T12:51:23.536Z</time></trkpt><trkpt lat="42.0328671" lon="12.7131372"><ele>336.5</ele><time>2026-03-28T12:51:25.517Z</time></trkpt><trkpt lat="42.0329344" lon="12.7130658"><ele>331.0</ele><time>2026-03-28T12:51:27.532Z</time></trkpt><trkpt lat="42.033019" lon="12.7129867"><ele>331.0</ele><time>2026-03-28T12:51:29.569Z</time></trkpt><trkpt lat="42.0330764" lon="12.7129335"><ele>331.0</ele><time>2026-03-28T12:51:30.525Z</time></trkpt><trkpt lat="42.033139" lon="12.7128789"><ele>331.0</ele><time>2026-03-28T12:51:31.527Z</time></trkpt><trkpt lat="42.0332129" lon="12.7128311"><ele>331.0</ele><time>2026-03-28T12:51:32.54Z</time></trkpt><trkpt lat="42.0332917" lon="12.712782"><ele>331.0</ele><time>2026-03-28T12:51:33.533Z</time></trkpt><trkpt lat="42.0333648" lon="12.712731"><ele>331.0</ele><time>2026-03-28T12:51:34.534Z</time></trkpt><trkpt lat="42.0334326" lon="12.7126683"><ele>333.3333333333333</ele><time>2026-03-28T12:51:35.593Z</time></trkpt><trkpt lat="42.0334932" lon="12.7125925"><ele>335.66666666666663</ele><time>2026-03-28T12:51:36.537Z</time></trkpt><trkpt lat="42.0335575" lon="12.7125083"><ele>338.0</ele><time>2026-03-28T12:51:37.533Z</time></trkpt><trkpt lat="42.0336204" lon="12.7124196"><ele>340.3333333333333</ele><time>2026-03-28T12:51:38.538Z</time></trkpt><trkpt lat="42.0336825" lon="12.7123291"><ele>342.6666666666667</ele><time>2026-03-28T12:51:39.541Z</time></trkpt><trkpt lat="42.0337422" lon="12.7122422"><ele>345.0</ele><time>2026-03-28T12:51:40.581Z</time></trkpt><trkpt lat="42.0337997" lon="12.7121535"><ele>345.0</ele><time>2026-03-28T12:51:41.538Z</time></trkpt><trkpt lat="42.0338531" lon="12.7120649"><ele>345.0</ele><time>2026-03-28T12:51:42.518Z</time></trkpt><trkpt lat="42.0339057" lon="12.711978"><ele>345.0</ele><time>2026-03-28T12:51:43.549Z</time></trkpt><trkpt lat="42.0339581" lon="12.7118869"><ele>345.0</ele><time>2026-03-28T12:51:44.548Z</time></trkpt><trkpt lat="42.0340101" lon="12.711799"><ele>345.0</ele><time>2026-03-28T12:51:45.532Z</time></trkpt><trkpt lat="42.0340658" lon="12.7117107"><ele>345.0</ele><time>2026-03-28T12:51:46.519Z</time></trkpt><trkpt lat="42.0341196" lon="12.7116188"><ele>345.8</ele><time>2026-03-28T12:51:47.562Z</time></trkpt><trkpt lat="42.0341734" lon="12.7115226"><ele>346.6</ele><time>2026-03-28T12:51:48.529Z</time></trkpt><trkpt lat="42.0342338" lon="12.7114276"><ele>347.4</ele><time>2026-03-28T12:51:49.525Z</time></trkpt><trkpt lat="42.0342984" lon="12.7113354"><ele>348.2</ele><time>2026-03-28T12:51:50.525Z</time></trkpt><trkpt lat="42.0343718" lon="12.7112541"><ele>349.0</ele><time>2026-03-28T12:51:51.534Z</time></trkpt><trkpt lat="42.034447" lon="12.7111873"><ele>349.0</ele><time>2026-03-28T12:51:52.556Z</time></trkpt><trkpt lat="42.0345257" lon="12.7111262"><ele>349.0</ele><time>2026-03-28T12:51:53.518Z</time></trkpt><trkpt lat="42.0346076" lon="12.7110695"><ele>349.0</ele><time>2026-03-28T12:51:54.532Z</time></trkpt><trkpt lat="42.0346914" lon="12.7110135"><ele>349.0</ele><time>2026-03-28T12:51:55.536Z</time></trkpt><trkpt lat="42.0347786" lon="12.7109602"><ele>349.0</ele><time>2026-03-28T12:51:56.518Z</time></trkpt><trkpt lat="42.034864" lon="12.7109055"><ele>346.0</ele><time>2026-03-28T12:51:57.557Z</time></trkpt><trkpt lat="42.034948" lon="12.7108527"><ele>343.0</ele><time>2026-03-28T12:51:58.525Z</time></trkpt><trkpt lat="42.0350341" lon="12.7108036"><ele>340.0</ele><time>2026-03-28T12:51:59.523Z</time></trkpt><trkpt lat="42.0351207" lon="12.71075"><ele>337.0</ele><time>2026-03-28T12:52:00.525Z</time></trkpt><trkpt lat="42.035208" lon="12.7106949"><ele>334.0</ele><time>2026-03-28T12:52:01.556Z</time></trkpt><trkpt lat="42.0352947" lon="12.7106408"><ele>334.0</ele><time>2026-03-28T12:52:02.526Z</time></trkpt><trkpt lat="42.0353791" lon="12.7105978"><ele>334.0</ele><time>2026-03-28T12:52:03.528Z</time></trkpt><trkpt lat="42.0354624" lon="12.7105697"><ele>334.0</ele><time>2026-03-28T12:52:04.611Z</time></trkpt><trkpt lat="42.035545" lon="12.7105445"><ele>334.0</ele><time>2026-03-28T12:52:05.527Z</time></trkpt><trkpt lat="42.0356268" lon="12.7105276"><ele>334.0</ele><time>2026-03-28T12:52:06.529Z</time></trkpt><trkpt lat="42.0357142" lon="12.7105325"><ele>334.0</ele><time>2026-03-28T12:52:07.53Z</time></trkpt><trkpt lat="42.0358076" lon="12.710553"><ele>336.79999999999995</ele><time>2026-03-28T12:52:08.527Z</time></trkpt><trkpt lat="42.0359015" lon="12.7105823"><ele>339.59999999999997</ele><time>2026-03-28T12:52:09.528Z</time></trkpt><trkpt lat="42.0359982" lon="12.7106166"><ele>342.4</ele><time>2026-03-28T12:52:10.548Z</time></trkpt><trkpt lat="42.036099" lon="12.7106496"><ele>345.2</ele><time>2026-03-28T12:52:11.567Z</time></trkpt><trkpt lat="42.0362017" lon="12.7106799"><ele>348.0</ele><time>2026-03-28T12:52:12.536Z</time></trkpt><trkpt lat="42.0363042" lon="12.7107088"><ele>348.0</ele><time>2026-03-28T12:52:13.52Z</time></trkpt><trkpt lat="42.0364033" lon="12.7107351"><ele>348.0</ele><time>2026-03-28T12:52:14.516Z</time></trkpt><trkpt lat="42.0364923" lon="12.7107604"><ele>348.0</ele><time>2026-03-28T12:52:15.525Z</time></trkpt><trkpt lat="42.0365768" lon="12.7107896"><ele>348.0</ele><time>2026-03-28T12:52:16.512Z</time></trkpt><trkpt lat="42.0366567" lon="12.7108309"><ele>348.0</ele><time>2026-03-28T12:52:17.529Z</time></trkpt><trkpt lat="42.036723" lon="12.7108786"><ele>348.0</ele><time>2026-03-28T12:52:18.525Z</time></trkpt><trkpt lat="42.0367794" lon="12.7109378"><ele>346.59999999999997</ele><time>2026-03-28T12:52:19.538Z</time></trkpt><trkpt lat="42.0368464" lon="12.7110334"><ele>345.2</ele><time>2026-03-28T12:52:21.519Z</time></trkpt><trkpt lat="42.0369095" lon="12.71105"><ele>343.8</ele><time>2026-03-28T12:52:39.52Z</time></trkpt><trkpt lat="42.0369927" lon="12.7109919"><ele>342.4</ele><time>2026-03-28T12:52:42.565Z</time></trkpt><trkpt lat="42.0370667" lon="12.7110307"><ele>341.0</ele><time>2026-03-28T12:52:44.52Z</time></trkpt><trkpt lat="42.037119" lon="12.7111774"><ele>345.20000000000005</ele><time>2026-03-28T12:52:46.549Z</time></trkpt><trkpt lat="42.0371511" lon="12.7112894"><ele>349.40000000000003</ele><time>2026-03-28T12:52:47.519Z</time></trkpt><trkpt lat="42.0371813" lon="12.711412"><ele>353.6</ele><time>2026-03-28T12:52:48.525Z</time></trkpt><trkpt lat="42.0372108" lon="12.7115403"><ele>357.8</ele><time>2026-03-28T12:52:49.53Z</time></trkpt><trkpt lat="42.0372328" lon="12.7116652"><ele>362.0</ele><time>2026-03-28T12:52:50.55Z</time></trkpt><trkpt lat="42.0372432" lon="12.7117949"><ele>362.1666666666667</ele><time>2026-03-28T12:52:51.534Z</time></trkpt><trkpt lat="42.0372445" lon="12.7119134"><ele>362.33333333333337</ele><time>2026-03-28T12:52:52.53Z</time></trkpt><trkpt lat="42.0372418" lon="12.7120259"><ele>362.5</ele><time>2026-03-28T12:52:53.55Z</time></trkpt><trkpt lat="42.0372379" lon="12.7121331"><ele>362.6666666666667</ele><time>2026-03-28T12:52:54.528Z</time></trkpt><trkpt lat="42.0372319" lon="12.7122351"><ele>362.8333333333333</ele><time>2026-03-28T12:52:55.624Z</time></trkpt><trkpt lat="42.0372354" lon="12.712372"><ele>363.0</ele><time>2026-03-28T12:52:57.541Z</time></trkpt><trkpt lat="42.0372768" lon="12.7125008"><ele>363.0</ele><time>2026-03-28T12:52:59.533Z</time></trkpt><trkpt lat="42.0373581" lon="12.7126078"><ele>363.0</ele><time>2026-03-28T12:53:01.522Z</time></trkpt><trkpt lat="42.03743" lon="12.7126206"><ele>363.0</ele><time>2026-03-28T12:53:14.522Z</time></trkpt><trkpt lat="42.0374708" lon="12.7125472"><ele>363.0</ele><time>2026-03-28T12:53:16.518Z</time></trkpt><trkpt lat="42.0374512" lon="12.7122335"><ele>363.0</ele><time>2026-03-28T12:53:19.532Z</time></trkpt><trkpt lat="42.0374555" lon="12.7120774"><ele>363.0</ele><time>2026-03-28T12:53:20.522Z</time></trkpt><trkpt lat="42.0374808" lon="12.7119165"><ele>363.0</ele><time>2026-03-28T12:53:21.529Z</time></trkpt><trkpt lat="42.0375118" lon="12.7117486"><ele>363.0</ele><time>2026-03-28T12:53:22.549Z</time></trkpt><trkpt lat="42.0375403" lon="12.7115774"><ele>355.5</ele><time>2026-03-28T12:53:23.522Z</time></trkpt><trkpt lat="42.0375633" lon="12.7114059"><ele>348.0</ele><time>2026-03-28T12:53:24.528Z</time></trkpt><trkpt lat="42.0375868" lon="12.7112344"><ele>340.5</ele><time>2026-03-28T12:53:25.518Z</time></trkpt><trkpt lat="42.037606" lon="12.7110749"><ele>333.0</ele><time>2026-03-28T12:53:26.564Z</time></trkpt><trkpt lat="42.0376197" lon="12.7109244"><ele>331.79999999999995</ele><time>2026-03-28T12:53:27.53Z</time></trkpt><trkpt lat="42.0376177" lon="12.7107858"><ele>330.6</ele><time>2026-03-28T12:53:28.528Z</time></trkpt><trkpt lat="42.0375833" lon="12.7106596"><ele>329.4</ele><time>2026-03-28T12:53:29.538Z</time></trkpt><trkpt lat="42.037531" lon="12.7105413"><ele>328.20000000000005</ele><time>2026-03-28T12:53:30.525Z</time></trkpt><trkpt lat="42.03746" lon="12.7104311"><ele>327.0</ele><time>2026-03-28T12:53:31.608Z</time></trkpt><trkpt lat="42.0373687" lon="12.7103444"><ele>330.5</ele><time>2026-03-28T12:53:32.522Z</time></trkpt><trkpt lat="42.0372729" lon="12.7102625"><ele>334.0</ele><time>2026-03-28T12:53:33.526Z</time></trkpt><trkpt lat="42.0371595" lon="12.7101818"><ele>337.5</ele><time>2026-03-28T12:53:34.534Z</time></trkpt><trkpt lat="42.0370283" lon="12.7101217"><ele>341.0</ele><time>2026-03-28T12:53:35.53Z</time></trkpt><trkpt lat="42.0368915" lon="12.7100794"><ele>333.5</ele><time>2026-03-28T12:53:36.519Z</time></trkpt><trkpt lat="42.0367515" lon="12.710043"><ele>326.0</ele><time>2026-03-28T12:53:37.523Z</time></trkpt><trkpt lat="42.0366089" lon="12.7100054"><ele>318.5</ele><time>2026-03-28T12:53:38.541Z</time></trkpt><trkpt lat="42.0364626" lon="12.7099769"><ele>311.0</ele><time>2026-03-28T12:53:39.536Z</time></trkpt><trkpt lat="42.0363149" lon="12.7099475"><ele>311.0</ele><time>2026-03-28T12:53:40.587Z</time></trkpt><trkpt lat="42.0361649" lon="12.7099238"><ele>311.0</ele><time>2026-03-28T12:53:41.529Z</time></trkpt><trkpt lat="42.0360137" lon="12.7099042"><ele>311.0</ele><time>2026-03-28T12:53:42.517Z</time></trkpt><trkpt lat="42.035858" lon="12.7098882"><ele>307.6666666666667</ele><time>2026-03-28T12:53:43.538Z</time></trkpt><trkpt lat="42.0357025" lon="12.7098833"><ele>304.3333333333333</ele><time>2026-03-28T12:53:44.52Z</time></trkpt><trkpt lat="42.0355485" lon="12.709898"><ele>301.0</ele><time>2026-03-28T12:53:45.53Z</time></trkpt><trkpt lat="42.0353939" lon="12.7099265"><ele>301.0</ele><time>2026-03-28T12:53:46.541Z</time></trkpt><trkpt lat="42.0352394" lon="12.7099583"><ele>301.0</ele><time>2026-03-28T12:53:47.533Z</time></trkpt><trkpt lat="42.0350931" lon="12.7099943"><ele>301.0</ele><time>2026-03-28T12:53:48.535Z</time></trkpt><trkpt lat="42.0349445" lon="12.7100311"><ele>297.0</ele><time>2026-03-28T12:53:49.611Z</time></trkpt><trkpt lat="42.0348004" lon="12.7100704"><ele>293.0</ele><time>2026-03-28T12:53:50.538Z</time></trkpt><trkpt lat="42.0346569" lon="12.7101115"><ele>289.0</ele><time>2026-03-28T12:53:51.527Z</time></trkpt><trkpt lat="42.0345194" lon="12.7101624"><ele>285.0</ele><time>2026-03-28T12:53:52.532Z</time></trkpt><trkpt lat="42.0343867" lon="12.7102241"><ele>286.25</ele><time>2026-03-28T12:53:53.53Z</time></trkpt><trkpt lat="42.0342542" lon="12.7102955"><ele>287.5</ele><time>2026-03-28T12:53:54.539Z</time></trkpt><trkpt lat="42.0341242" lon="12.7103673"><ele>288.75</ele><time>2026-03-28T12:53:55.553Z</time></trkpt><trkpt lat="42.0339963" lon="12.7104367"><ele>290.0</ele><time>2026-03-28T12:53:56.532Z</time></trkpt><trkpt lat="42.0338655" lon="12.7105048"><ele>290.0</ele><time>2026-03-28T12:53:57.568Z</time></trkpt><trkpt lat="42.033732" lon="12.7105766"><ele>290.0</ele><time>2026-03-28T12:53:58.532Z</time></trkpt><trkpt lat="42.0335963" lon="12.7106509"><ele>290.0</ele><time>2026-03-28T12:53:59.545Z</time></trkpt><trkpt lat="42.0334569" lon="12.7107281"><ele>290.0</ele><time>2026-03-28T12:54:00.533Z</time></trkpt><trkpt lat="42.0333188" lon="12.710805"><ele>283.33333333333337</ele><time>2026-03-28T12:54:01.535Z</time></trkpt><trkpt lat="42.0331741" lon="12.7108781"><ele>276.6666666666667</ele><time>2026-03-28T12:54:02.551Z</time></trkpt><trkpt lat="42.0330357" lon="12.7109502"><ele>270.0</ele><time>2026-03-28T12:54:03.563Z</time></trkpt><trkpt lat="42.0328978" lon="12.7110181"><ele>270.5</ele><time>2026-03-28T12:54:04.584Z</time></trkpt><trkpt lat="42.0327641" lon="12.711083"><ele>271.0</ele><time>2026-03-28T12:54:05.546Z</time></trkpt><trkpt lat="42.0326345" lon="12.7111452"><ele>271.5</ele><time>2026-03-28T12:54:06.522Z</time></trkpt><trkpt lat="42.0325051" lon="12.7112138"><ele>272.0</ele><time>2026-03-28T12:54:07.546Z</time></trkpt><trkpt lat="42.0323765" lon="12.7112811"><ele>272.0</ele><time>2026-03-28T12:54:08.56Z</time></trkpt><trkpt lat="42.0322521" lon="12.7113499"><ele>272.0</ele><time>2026-03-28T12:54:09.554Z</time></trkpt><trkpt lat="42.0321389" lon="12.7114198"><ele>272.0</ele><time>2026-03-28T12:54:10.519Z</time></trkpt><trkpt lat="42.0320439" lon="12.711495"><ele>272.0</ele><time>2026-03-28T12:54:11.543Z</time></trkpt><trkpt lat="42.0319556" lon="12.7115635"><ele>272.0</ele><time>2026-03-28T12:54:12.525Z</time></trkpt><trkpt lat="42.0318795" lon="12.7116196"><ele>272.0</ele><time>2026-03-28T12:54:13.526Z</time></trkpt><trkpt lat="42.0318119" lon="12.7116627"><ele>272.0</ele><time>2026-03-28T12:54:14.521Z</time></trkpt><trkpt lat="42.0317475" lon="12.7116761"><ele>272.0</ele><time>2026-03-28T12:54:15.531Z</time></trkpt><trkpt lat="42.0316596" lon="12.7115725"><ele>272.0</ele><time>2026-03-28T12:54:17.52Z</time></trkpt><trkpt lat="42.0316721" lon="12.7114888"><ele>272.0</ele><time>2026-03-28T12:54:18.524Z</time></trkpt><trkpt lat="42.0317233" lon="12.7114166"><ele>272.0</ele><time>2026-03-28T12:54:19.54Z</time></trkpt><trkpt lat="42.031805" lon="12.7113497"><ele>272.0</ele><time>2026-03-28T12:54:20.529Z</time></trkpt><trkpt lat="42.0319053" lon="12.7112947"><ele>272.0</ele><time>2026-03-28T12:54:21.516Z</time></trkpt><trkpt lat="42.032018" lon="12.7112379"><ele>272.0</ele><time>2026-03-28T12:54:22.567Z</time></trkpt><trkpt lat="42.0321364" lon="12.7111607"><ele>271.5</ele><time>2026-03-28T12:54:23.538Z</time></trkpt><trkpt lat="42.0322498" lon="12.7110669"><ele>271.0</ele><time>2026-03-28T12:54:24.527Z</time></trkpt><trkpt lat="42.0323611" lon="12.7109495"><ele>270.5</ele><time>2026-03-28T12:54:25.529Z</time></trkpt><trkpt lat="42.0324725" lon="12.7108087"><ele>270.0</ele><time>2026-03-28T12:54:26.525Z</time></trkpt><trkpt lat="42.0325865" lon="12.7106558"><ele>270.0</ele><time>2026-03-28T12:54:27.54Z</time></trkpt><trkpt lat="42.0327072" lon="12.7105004"><ele>270.0</ele><time>2026-03-28T12:54:28.527Z</time></trkpt><trkpt lat="42.0328301" lon="12.7103485"><ele>270.0</ele><time>2026-03-28T12:54:29.548Z</time></trkpt><trkpt lat="42.0329463" lon="12.7101977"><ele>263.3333333333333</ele><time>2026-03-28T12:54:30.53Z</time></trkpt><trkpt lat="42.0330601" lon="12.7100517"><ele>256.66666666666663</ele><time>2026-03-28T12:54:31.537Z</time></trkpt><trkpt lat="42.0331688" lon="12.7099142"><ele>250.0</ele><time>2026-03-28T12:54:32.533Z</time></trkpt><trkpt lat="42.0332759" lon="12.7097819"><ele>249.0</ele><time>2026-03-28T12:54:33.511Z</time></trkpt><trkpt lat="42.033378" lon="12.7096494"><ele>248.0</ele><time>2026-03-28T12:54:34.561Z</time></trkpt><trkpt lat="42.0334791" lon="12.7095237"><ele>247.0</ele><time>2026-03-28T12:54:35.525Z</time></trkpt><trkpt lat="42.0335831" lon="12.709395"><ele>246.0</ele><time>2026-03-28T12:54:36.527Z</time></trkpt><trkpt lat="42.0336908" lon="12.7092594"><ele>246.0</ele><time>2026-03-28T12:54:37.524Z</time></trkpt><trkpt lat="42.0338033" lon="12.7091169"><ele>246.0</ele><time>2026-03-28T12:54:38.525Z</time></trkpt><trkpt lat="42.0339144" lon="12.7089769"><ele>246.0</ele><time>2026-03-28T12:54:39.522Z</time></trkpt><trkpt lat="42.0340292" lon="12.7088438"><ele>244.25</ele><time>2026-03-28T12:54:40.523Z</time></trkpt><trkpt lat="42.0341486" lon="12.7087224"><ele>242.5</ele><time>2026-03-28T12:54:41.527Z</time></trkpt><trkpt lat="42.0342661" lon="12.7086045"><ele>240.75</ele><time>2026-03-28T12:54:42.534Z</time></trkpt><trkpt lat="42.0343838" lon="12.708497"><ele>239.0</ele><time>2026-03-28T12:54:43.533Z</time></trkpt><trkpt lat="42.0345028" lon="12.7083924"><ele>239.0</ele><time>2026-03-28T12:54:44.536Z</time></trkpt><trkpt lat="42.0346203" lon="12.7082813"><ele>239.0</ele><time>2026-03-28T12:54:45.537Z</time></trkpt><trkpt lat="42.0347374" lon="12.7081702"><ele>239.0</ele><time>2026-03-28T12:54:46.519Z</time></trkpt><trkpt lat="42.0348585" lon="12.7080673"><ele>239.0</ele><time>2026-03-28T12:54:47.518Z</time></trkpt><trkpt lat="42.0349823" lon="12.7079664"><ele>239.5</ele><time>2026-03-28T12:54:48.522Z</time></trkpt><trkpt lat="42.0351017" lon="12.7078694"><ele>240.0</ele><time>2026-03-28T12:54:49.543Z</time></trkpt><trkpt lat="42.0352179" lon="12.7077719"><ele>240.5</ele><time>2026-03-28T12:54:50.58Z</time></trkpt><trkpt lat="42.0353324" lon="12.7076769"><ele>241.0</ele><time>2026-03-28T12:54:51.524Z</time></trkpt><trkpt lat="42.0354433" lon="12.7075792"><ele>239.4</ele><time>2026-03-28T12:54:52.537Z</time></trkpt><trkpt lat="42.0355516" lon="12.7074841"><ele>237.8</ele><time>2026-03-28T12:54:53.529Z</time></trkpt><trkpt lat="42.0356513" lon="12.7073972"><ele>236.20000000000002</ele><time>2026-03-28T12:54:54.548Z</time></trkpt><trkpt lat="42.0357293" lon="12.7073275"><ele>234.60000000000002</ele><time>2026-03-28T12:54:55.57Z</time></trkpt><trkpt lat="42.0357817" lon="12.7072632"><ele>233.0</ele><time>2026-03-28T12:54:56.53Z</time></trkpt><trkpt lat="42.0358366" lon="12.7071395"><ele>233.0</ele><time>2026-03-28T12:54:58.529Z</time></trkpt><trkpt lat="42.035788" lon="12.7070045"><ele>233.0</ele><time>2026-03-28T12:55:04.53Z</time></trkpt><trkpt lat="42.0356462" lon="12.7069562"><ele>233.0</ele><time>2026-03-28T12:55:06.524Z</time></trkpt><trkpt lat="42.035555" lon="12.706929"><ele>233.0</ele><time>2026-03-28T12:55:07.522Z</time></trkpt><trkpt lat="42.0354421" lon="12.7069187"><ele>233.0</ele><time>2026-03-28T12:55:08.528Z</time></trkpt><trkpt lat="42.0353141" lon="12.7069217"><ele>233.0</ele><time>2026-03-28T12:55:09.536Z</time></trkpt><trkpt lat="42.0351742" lon="12.7069251"><ele>233.0</ele><time>2026-03-28T12:55:10.566Z</time></trkpt><trkpt lat="42.0350314" lon="12.7069219"><ele>233.0</ele><time>2026-03-28T12:55:11.531Z</time></trkpt><trkpt lat="42.0348852" lon="12.7069215"><ele>232.0</ele><time>2026-03-28T12:55:12.524Z</time></trkpt><trkpt lat="42.0347333" lon="12.706922"><ele>231.0</ele><time>2026-03-28T12:55:13.527Z</time></trkpt><trkpt lat="42.0345807" lon="12.7069274"><ele>230.0</ele><time>2026-03-28T12:55:14.521Z</time></trkpt><trkpt lat="42.0344252" lon="12.7069313"><ele>230.0</ele><time>2026-03-28T12:55:15.519Z</time></trkpt><trkpt lat="42.0342704" lon="12.7069374"><ele>230.0</ele><time>2026-03-28T12:55:16.532Z</time></trkpt><trkpt lat="42.0341173" lon="12.7069412"><ele>230.0</ele><time>2026-03-28T12:55:17.527Z</time></trkpt><trkpt lat="42.0339649" lon="12.7069411"><ele>228.66666666666669</ele><time>2026-03-28T12:55:18.533Z</time></trkpt><trkpt lat="42.0338154" lon="12.7069431"><ele>227.33333333333331</ele><time>2026-03-28T12:55:19.547Z</time></trkpt><trkpt lat="42.0336637" lon="12.7069434"><ele>226.0</ele><time>2026-03-28T12:55:20.533Z</time></trkpt><trkpt lat="42.033515" lon="12.7069486"><ele>226.0</ele><time>2026-03-28T12:55:21.539Z</time></trkpt><trkpt lat="42.0333642" lon="12.7069541"><ele>226.0</ele><time>2026-03-28T12:55:22.525Z</time></trkpt><trkpt lat="42.0332146" lon="12.7069555"><ele>226.0</ele><time>2026-03-28T12:55:23.537Z</time></trkpt><trkpt lat="42.0330703" lon="12.7069611"><ele>226.0</ele><time>2026-03-28T12:55:24.533Z</time></trkpt><trkpt lat="42.0329307" lon="12.7069756"><ele>224.25</ele><time>2026-03-28T12:55:25.552Z</time></trkpt><trkpt lat="42.032792" lon="12.707024"><ele>222.5</ele><time>2026-03-28T12:55:26.546Z</time></trkpt><trkpt lat="42.0326528" lon="12.7070956"><ele>220.75</ele><time>2026-03-28T12:55:27.538Z</time></trkpt><trkpt lat="42.0325187" lon="12.7071658"><ele>219.0</ele><time>2026-03-28T12:55:28.556Z</time></trkpt><trkpt lat="42.0323877" lon="12.7072385"><ele>217.25</ele><time>2026-03-28T12:55:29.547Z</time></trkpt><trkpt lat="42.0322559" lon="12.7073108"><ele>215.5</ele><time>2026-03-28T12:55:30.553Z</time></trkpt><trkpt lat="42.0321216" lon="12.7073722"><ele>213.75</ele><time>2026-03-28T12:55:31.536Z</time></trkpt><trkpt lat="42.0319771" lon="12.7074094"><ele>212.0</ele><time>2026-03-28T12:55:32.538Z</time></trkpt><trkpt lat="42.0318349" lon="12.7074157"><ele>212.0</ele><time>2026-03-28T12:55:33.626Z</time></trkpt><trkpt lat="42.0316891" lon="12.7074137"><ele>212.0</ele><time>2026-03-28T12:55:34.56Z</time></trkpt><trkpt lat="42.0315432" lon="12.7074162"><ele>212.0</ele><time>2026-03-28T12:55:35.525Z</time></trkpt><trkpt lat="42.0313956" lon="12.7074236"><ele>212.0</ele><time>2026-03-28T12:55:36.53Z</time></trkpt><trkpt lat="42.0312495" lon="12.7074386"><ele>210.75</ele><time>2026-03-28T12:55:37.553Z</time></trkpt><trkpt lat="42.031106" lon="12.7074542"><ele>209.5</ele><time>2026-03-28T12:55:38.62Z</time></trkpt><trkpt lat="42.0309595" lon="12.7074709"><ele>208.25</ele><time>2026-03-28T12:55:39.534Z</time></trkpt><trkpt lat="42.0308177" lon="12.7074858"><ele>207.0</ele><time>2026-03-28T12:55:40.543Z</time></trkpt><trkpt lat="42.0306842" lon="12.7074972"><ele>205.5</ele><time>2026-03-28T12:55:41.53Z</time></trkpt><trkpt lat="42.0305608" lon="12.7075077"><ele>204.0</ele><time>2026-03-28T12:55:42.537Z</time></trkpt><trkpt lat="42.0304387" lon="12.7075244"><ele>202.5</ele><time>2026-03-28T12:55:43.525Z</time></trkpt><trkpt lat="42.0303241" lon="12.7075576"><ele>201.0</ele><time>2026-03-28T12:55:44.553Z</time></trkpt><trkpt lat="42.0302074" lon="12.7076223"><ele>201.0</ele><time>2026-03-28T12:55:45.542Z</time></trkpt><trkpt lat="42.0300871" lon="12.7077023"><ele>201.0</ele><time>2026-03-28T12:55:46.518Z</time></trkpt><trkpt lat="42.0299646" lon="12.7077905"><ele>201.0</ele><time>2026-03-28T12:55:47.535Z</time></trkpt><trkpt lat="42.029839" lon="12.7078825"><ele>201.0</ele><time>2026-03-28T12:55:48.516Z</time></trkpt><trkpt lat="42.0297059" lon="12.7079799"><ele>201.0</ele><time>2026-03-28T12:55:49.541Z</time></trkpt><trkpt lat="42.0295696" lon="12.708073"><ele>201.0</ele><time>2026-03-28T12:55:50.545Z</time></trkpt><trkpt lat="42.0294247" lon="12.7081634"><ele>201.0</ele><time>2026-03-28T12:55:51.536Z</time></trkpt><trkpt lat="42.0292851" lon="12.7082483"><ele>201.0</ele><time>2026-03-28T12:55:52.639Z</time></trkpt><trkpt lat="42.0291473" lon="12.7083219"><ele>201.0</ele><time>2026-03-28T12:55:53.569Z</time></trkpt><trkpt lat="42.0290118" lon="12.7083906"><ele>201.0</ele><time>2026-03-28T12:55:54.539Z</time></trkpt><trkpt lat="42.0288802" lon="12.7084517"><ele>201.0</ele><time>2026-03-28T12:55:55.531Z</time></trkpt><trkpt lat="42.0287536" lon="12.7085113"><ele>201.4</ele><time>2026-03-28T12:55:56.537Z</time></trkpt><trkpt lat="42.0286402" lon="12.708566"><ele>201.8</ele><time>2026-03-28T12:55:57.535Z</time></trkpt><trkpt lat="42.0285546" lon="12.7086092"><ele>202.20000000000002</ele><time>2026-03-28T12:55:58.54Z</time></trkpt><trkpt lat="42.0284697" lon="12.7086913"><ele>202.60000000000002</ele><time>2026-03-28T12:56:00.538Z</time></trkpt><trkpt lat="42.0284629" lon="12.7087998"><ele>203.0</ele><time>2026-03-28T12:56:02.537Z</time></trkpt><trkpt lat="42.0284755" lon="12.7089386"><ele>203.00000000000003</ele><time>2026-03-28T12:56:04.54Z</time></trkpt><trkpt lat="42.0284909" lon="12.7090223"><ele>203.0</ele><time>2026-03-28T12:56:05.563Z</time></trkpt><trkpt lat="42.0285104" lon="12.7091184"><ele>203.0</ele><time>2026-03-28T12:56:06.54Z</time></trkpt><trkpt lat="42.0285267" lon="12.7092169"><ele>203.0</ele><time>2026-03-28T12:56:07.552Z</time></trkpt><trkpt lat="42.028534" lon="12.7093055"><ele>203.00000000000003</ele><time>2026-03-28T12:56:08.547Z</time></trkpt><trkpt lat="42.0285689" lon="12.7094377"><ele>203.0</ele><time>2026-03-28T12:56:10.541Z</time></trkpt><trkpt lat="42.0286262" lon="12.7095017"><ele>204.4</ele><time>2026-03-28T12:56:12.546Z</time></trkpt><trkpt lat="42.0287338" lon="12.7095798"><ele>205.8</ele><time>2026-03-28T12:56:14.533Z</time></trkpt><trkpt lat="42.0288506" lon="12.7096537"><ele>207.2</ele><time>2026-03-28T12:56:16.585Z</time></trkpt><trkpt lat="42.0289132" lon="12.7096788"><ele>208.6</ele><time>2026-03-28T12:56:17.545Z</time></trkpt><trkpt lat="42.028977" lon="12.709713"><ele>210.0</ele><time>2026-03-28T12:56:18.527Z</time></trkpt><trkpt lat="42.0290412" lon="12.7097495"><ele>210.0</ele><time>2026-03-28T12:56:19.538Z</time></trkpt><trkpt lat="42.0291021" lon="12.7097868"><ele>210.0</ele><time>2026-03-28T12:56:20.528Z</time></trkpt><trkpt lat="42.0291632" lon="12.7098239"><ele>210.0</ele><time>2026-03-28T12:56:21.594Z</time></trkpt><trkpt lat="42.0292308" lon="12.709856"><ele>210.0</ele><time>2026-03-28T12:56:22.54Z</time></trkpt><trkpt lat="42.0292996" lon="12.7098915"><ele>210.0</ele><time>2026-03-28T12:56:23.545Z</time></trkpt><trkpt lat="42.0293643" lon="12.7099293"><ele>210.0</ele><time>2026-03-28T12:56:24.535Z</time></trkpt><trkpt lat="42.0294228" lon="12.7099798"><ele>210.0</ele><time>2026-03-28T12:56:25.549Z</time></trkpt><trkpt lat="42.029472" lon="12.7100461"><ele>211.16666666666666</ele><time>2026-03-28T12:56:26.511Z</time></trkpt><trkpt lat="42.0295193" lon="12.7101217"><ele>212.33333333333331</ele><time>2026-03-28T12:56:27.525Z</time></trkpt><trkpt lat="42.0295649" lon="12.7102086"><ele>213.5</ele><time>2026-03-28T12:56:28.543Z</time></trkpt><trkpt lat="42.0296074" lon="12.7103041"><ele>214.66666666666666</ele><time>2026-03-28T12:56:29.528Z</time></trkpt><trkpt lat="42.0296442" lon="12.7103865"><ele>215.83333333333331</ele><time>2026-03-28T12:56:30.588Z</time></trkpt><trkpt lat="42.0296855" lon="12.7104678"><ele>217.0</ele><time>2026-03-28T12:56:31.531Z</time></trkpt><trkpt lat="42.0297294" lon="12.710544"><ele>217.66666666666666</ele><time>2026-03-28T12:56:32.525Z</time></trkpt><trkpt lat="42.0297795" lon="12.7106185"><ele>218.33333333333331</ele><time>2026-03-28T12:56:33.522Z</time></trkpt><trkpt lat="42.029828" lon="12.7106943"><ele>219.0</ele><time>2026-03-28T12:56:34.536Z</time></trkpt><trkpt lat="42.0298749" lon="12.7107662"><ele>219.66666666666669</ele><time>2026-03-28T12:56:35.596Z</time></trkpt><trkpt lat="42.0299215" lon="12.7108353"><ele>220.33333333333334</ele><time>2026-03-28T12:56:36.528Z</time></trkpt><trkpt lat="42.0299765" lon="12.710895"><ele>221.0</ele><time>2026-03-28T12:56:37.536Z</time></trkpt><trkpt lat="42.0300717" lon="12.7109507"><ele>222.16666666666669</ele><time>2026-03-28T12:56:39.532Z</time></trkpt><trkpt lat="42.0301623" lon="12.7109718"><ele>223.33333333333334</ele><time>2026-03-28T12:56:42.524Z</time></trkpt><trkpt lat="42.030235" lon="12.7110084"><ele>224.5</ele><time>2026-03-28T12:56:44.537Z</time></trkpt><trkpt lat="42.0302945" lon="12.711061"><ele>225.66666666666669</ele><time>2026-03-28T12:56:46.533Z</time></trkpt><trkpt lat="42.0303146" lon="12.7111635"><ele>226.83333333333334</ele><time>2026-03-28T12:56:57.532Z</time></trkpt><trkpt lat="42.0303132" lon="12.7112879"><ele>228.0</ele><time>2026-03-28T12:57:00.543Z</time></trkpt><trkpt lat="42.0303013" lon="12.7113932"><ele>229.66666666666666</ele><time>2026-03-28T12:57:02.595Z</time></trkpt><trkpt lat="42.0302913" lon="12.7115361"><ele>231.33333333333331</ele><time>2026-03-28T12:57:04.518Z</time></trkpt><trkpt lat="42.0302686" lon="12.7116577"><ele>233.0</ele><time>2026-03-28T12:57:06.526Z</time></trkpt><trkpt lat="42.0302445" lon="12.7117675"><ele>234.66666666666666</ele><time>2026-03-28T12:57:09.528Z</time></trkpt><trkpt lat="42.0301908" lon="12.7118141"><ele>236.33333333333331</ele><time>2026-03-28T12:57:17.52Z</time></trkpt><trkpt lat="42.0301138" lon="12.7118768"><ele>238.0</ele><time>2026-03-28T12:57:20.536Z</time></trkpt><trkpt lat="42.0300371" lon="12.7119459"><ele>235.99999999999997</ele><time>2026-03-28T12:57:22.539Z</time></trkpt><trkpt lat="42.0299559" lon="12.7120028"><ele>234.0</ele><time>2026-03-28T12:57:24.533Z</time></trkpt><trkpt lat="42.0298936" lon="12.7120638"><ele>232.0</ele><time>2026-03-28T12:57:26.537Z</time></trkpt><trkpt lat="42.0298269" lon="12.712119"><ele>230.0</ele><time>2026-03-28T12:57:28.534Z</time></trkpt><trkpt lat="42.0297514" lon="12.7121543"><ele>227.99999999999997</ele><time>2026-03-28T12:57:30.528Z</time></trkpt><trkpt lat="42.0296514" lon="12.7121601"><ele>226.0</ele><time>2026-03-28T12:57:33.536Z</time></trkpt><trkpt lat="42.0295613" lon="12.7121397"><ele>225.99999999999997</ele><time>2026-03-28T12:57:36.541Z</time></trkpt><trkpt lat="42.0294999" lon="12.7121652"><ele>226.0</ele><time>2026-03-28T12:57:38.536Z</time></trkpt><trkpt lat="42.0294447" lon="12.7122182"><ele>226.0</ele><time>2026-03-28T12:57:40.492Z</time></trkpt><trkpt lat="42.0294131" lon="12.7123535"><ele>226.0</ele><time>2026-03-28T12:57:42.561Z</time></trkpt><trkpt lat="42.0293778" lon="12.7124492"><ele>225.99999999999997</ele><time>2026-03-28T12:57:44.542Z</time></trkpt><trkpt lat="42.0293195" lon="12.7125359"><ele>226.0</ele><time>2026-03-28T12:57:46.565Z</time></trkpt><trkpt lat="42.0292599" lon="12.7126103"><ele>225.99999999999997</ele><time>2026-03-28T12:57:48.548Z</time></trkpt><trkpt lat="42.0292135" lon="12.712692"><ele>226.0</ele><time>2026-03-28T12:57:50.469Z</time></trkpt><trkpt lat="42.0291791" lon="12.7127944"><ele>226.0</ele><time>2026-03-28T12:57:52.557Z</time></trkpt><trkpt lat="42.0291371" lon="12.7128709"><ele>226.0</ele><time>2026-03-28T12:57:54.529Z</time></trkpt><trkpt lat="42.0290858" lon="12.7129358"><ele>225.99999999999997</ele><time>2026-03-28T12:57:57.526Z</time></trkpt><trkpt lat="42.0290664" lon="12.7130599"><ele>226.0</ele><time>2026-03-28T12:58:00.527Z</time></trkpt><trkpt lat="42.0291034" lon="12.7132055"><ele>224.20000000000002</ele><time>2026-03-28T12:58:02.547Z</time></trkpt><trkpt lat="42.0291281" lon="12.7133128"><ele>222.40000000000003</ele><time>2026-03-28T12:58:03.541Z</time></trkpt><trkpt lat="42.0291538" lon="12.7134329"><ele>220.6</ele><time>2026-03-28T12:58:04.541Z</time></trkpt><trkpt lat="42.0291793" lon="12.7135652"><ele>218.8</ele><time>2026-03-28T12:58:05.532Z</time></trkpt><trkpt lat="42.0292016" lon="12.7137055"><ele>217.0</ele><time>2026-03-28T12:58:06.54Z</time></trkpt><trkpt lat="42.0292253" lon="12.7138498"><ele>216.0</ele><time>2026-03-28T12:58:07.528Z</time></trkpt><trkpt lat="42.0292472" lon="12.7139941"><ele>215.0</ele><time>2026-03-28T12:58:08.573Z</time></trkpt><trkpt lat="42.0292682" lon="12.714142"><ele>214.0</ele><time>2026-03-28T12:58:09.536Z</time></trkpt><trkpt lat="42.0292927" lon="12.714287"><ele>213.0</ele><time>2026-03-28T12:58:10.536Z</time></trkpt><trkpt lat="42.0293227" lon="12.7144331"><ele>212.0</ele><time>2026-03-28T12:58:11.544Z</time></trkpt><trkpt lat="42.0293588" lon="12.7145818"><ele>211.25</ele><time>2026-03-28T12:58:12.58Z</time></trkpt><trkpt lat="42.0293943" lon="12.7147296"><ele>210.5</ele><time>2026-03-28T12:58:13.533Z</time></trkpt><trkpt lat="42.0294298" lon="12.7148809"><ele>209.75</ele><time>2026-03-28T12:58:14.592Z</time></trkpt><trkpt lat="42.0294656" lon="12.7150299"><ele>209.0</ele><time>2026-03-28T12:58:15.573Z</time></trkpt><trkpt lat="42.0295029" lon="12.7151786"><ele>209.2</ele><time>2026-03-28T12:58:16.523Z</time></trkpt><trkpt lat="42.0295437" lon="12.7153165"><ele>209.39999999999998</ele><time>2026-03-28T12:58:17.577Z</time></trkpt><trkpt lat="42.0295885" lon="12.7154482"><ele>209.6</ele><time>2026-03-28T12:58:18.574Z</time></trkpt><trkpt lat="42.0296394" lon="12.7155642"><ele>209.8</ele><time>2026-03-28T12:58:19.565Z</time></trkpt><trkpt lat="42.0296877" lon="12.7156594"><ele>210.0</ele><time>2026-03-28T12:58:20.56Z</time></trkpt><trkpt lat="42.0297287" lon="12.7157419"><ele>210.0</ele><time>2026-03-28T12:58:21.536Z</time></trkpt><trkpt lat="42.0297496" lon="12.715827"><ele>210.0</ele><time>2026-03-28T12:58:22.535Z</time></trkpt><trkpt lat="42.0297462" lon="12.7159358"><ele>210.0</ele><time>2026-03-28T12:58:23.522Z</time></trkpt><trkpt lat="42.0297325" lon="12.7160519"><ele>210.0</ele><time>2026-03-28T12:58:24.526Z</time></trkpt><trkpt lat="42.0297236" lon="12.7161768"><ele>210.0</ele><time>2026-03-28T12:58:25.535Z</time></trkpt><trkpt lat="42.029715" lon="12.7163086"><ele>210.0</ele><time>2026-03-28T12:58:26.54Z</time></trkpt><trkpt lat="42.0297044" lon="12.7164531"><ele>210.2</ele><time>2026-03-28T12:58:27.594Z</time></trkpt><trkpt lat="42.0296945" lon="12.716598"><ele>210.4</ele><time>2026-03-28T12:58:28.536Z</time></trkpt><trkpt lat="42.0296853" lon="12.7167299"><ele>210.60000000000002</ele><time>2026-03-28T12:58:29.529Z</time></trkpt><trkpt lat="42.0296789" lon="12.7168331"><ele>210.8</ele><time>2026-03-28T12:58:30.533Z</time></trkpt><trkpt lat="42.0296019" lon="12.7169621"><ele>211.0</ele><time>2026-03-28T12:58:32.537Z</time></trkpt><trkpt lat="42.0295269" lon="12.716982"><ele>209.25</ele><time>2026-03-28T12:58:33.522Z</time></trkpt><trkpt lat="42.0294192" lon="12.716988"><ele>207.5</ele><time>2026-03-28T12:58:34.559Z</time></trkpt><trkpt lat="42.0293057" lon="12.7170087"><ele>205.75</ele><time>2026-03-28T12:58:35.543Z</time></trkpt><trkpt lat="42.0291898" lon="12.7170434"><ele>204.0</ele><time>2026-03-28T12:58:36.523Z</time></trkpt><trkpt lat="42.0290749" lon="12.7170833"><ele>204.0</ele><time>2026-03-28T12:58:37.517Z</time></trkpt><trkpt lat="42.0289617" lon="12.7171247"><ele>204.0</ele><time>2026-03-28T12:58:38.532Z</time></trkpt><trkpt lat="42.0288552" lon="12.7171696"><ele>204.0</ele><time>2026-03-28T12:58:39.525Z</time></trkpt><trkpt lat="42.0287536" lon="12.7172144"><ele>204.0</ele><time>2026-03-28T12:58:40.526Z</time></trkpt><trkpt lat="42.0286605" lon="12.7172638"><ele>204.0</ele><time>2026-03-28T12:58:41.528Z</time></trkpt><trkpt lat="42.0285942" lon="12.7173396"><ele>204.0</ele><time>2026-03-28T12:58:42.537Z</time></trkpt><trkpt lat="42.0285482" lon="12.7174575"><ele>204.0</ele><time>2026-03-28T12:58:43.523Z</time></trkpt><trkpt lat="42.0285041" lon="12.7175838"><ele>204.0</ele><time>2026-03-28T12:58:44.529Z</time></trkpt><trkpt lat="42.0284652" lon="12.717722"><ele>204.0</ele><time>2026-03-28T12:58:45.537Z</time></trkpt><trkpt lat="42.0284262" lon="12.71786"><ele>204.0</ele><time>2026-03-28T12:58:46.534Z</time></trkpt><trkpt lat="42.0283893" lon="12.717988"><ele>204.33333333333334</ele><time>2026-03-28T12:58:47.615Z</time></trkpt><trkpt lat="42.0283566" lon="12.7181039"><ele>204.66666666666669</ele><time>2026-03-28T12:58:48.533Z</time></trkpt><trkpt lat="42.0283214" lon="12.7182046"><ele>205.0</ele><time>2026-03-28T12:58:49.55Z</time></trkpt><trkpt lat="42.0282772" lon="12.7183029"><ele>205.33333333333334</ele><time>2026-03-28T12:58:50.543Z</time></trkpt><trkpt lat="42.0282171" lon="12.7183863"><ele>205.66666666666669</ele><time>2026-03-28T12:58:51.556Z</time></trkpt><trkpt lat="42.0281469" lon="12.718442"><ele>206.0</ele><time>2026-03-28T12:58:52.524Z</time></trkpt><trkpt lat="42.0280669" lon="12.7184767"><ele>202.8</ele><time>2026-03-28T12:58:53.527Z</time></trkpt><trkpt lat="42.0279924" lon="12.7185124"><ele>199.60000000000002</ele><time>2026-03-28T12:58:54.528Z</time></trkpt><trkpt lat="42.0279358" lon="12.718586"><ele>196.4</ele><time>2026-03-28T12:58:55.529Z</time></trkpt><trkpt lat="42.0279024" lon="12.7186829"><ele>193.2</ele><time>2026-03-28T12:58:56.605Z</time></trkpt><trkpt lat="42.0278944" lon="12.7188164"><ele>190.0</ele><time>2026-03-28T12:58:57.534Z</time></trkpt><trkpt lat="42.0279047" lon="12.7189752"><ele>189.5</ele><time>2026-03-28T12:58:58.522Z</time></trkpt><trkpt lat="42.0279265" lon="12.7191475"><ele>189.0</ele><time>2026-03-28T12:58:59.516Z</time></trkpt><trkpt lat="42.0279492" lon="12.7193154"><ele>188.5</ele><time>2026-03-28T12:59:00.548Z</time></trkpt><trkpt lat="42.0279868" lon="12.7194835"><ele>188.0</ele><time>2026-03-28T12:59:01.531Z</time></trkpt><trkpt lat="42.0288614" lon="12.7210608"><ele>187.16666666666666</ele><time>2026-03-28T13:07:26.526Z</time></trkpt><trkpt lat="42.0288348" lon="12.7211462"><ele>186.33333333333331</ele><time>2026-03-28T13:07:39.518Z</time></trkpt><trkpt lat="42.0288616" lon="12.7212636"><ele>185.5</ele><time>2026-03-28T13:07:42.514Z</time></trkpt><trkpt lat="42.0289419" lon="12.7213941"><ele>184.66666666666666</ele><time>2026-03-28T13:07:44.518Z</time></trkpt><trkpt lat="42.0289868" lon="12.7214816"><ele>183.83333333333334</ele><time>2026-03-28T13:07:45.531Z</time></trkpt><trkpt lat="42.0290339" lon="12.7215754"><ele>183.0</ele><time>2026-03-28T13:07:46.513Z</time></trkpt><trkpt lat="42.0290762" lon="12.72167"><ele>183.0</ele><time>2026-03-28T13:07:47.54Z</time></trkpt><trkpt lat="42.0291219" lon="12.7217691"><ele>183.0</ele><time>2026-03-28T13:07:48.52Z</time></trkpt><trkpt lat="42.0291669" lon="12.7218696"><ele>183.0</ele><time>2026-03-28T13:07:49.546Z</time></trkpt><trkpt lat="42.0292095" lon="12.721968"><ele>183.0</ele><time>2026-03-28T13:07:50.529Z</time></trkpt><trkpt lat="42.0292448" lon="12.7220666"><ele>183.0</ele><time>2026-03-28T13:07:51.538Z</time></trkpt><trkpt lat="42.0292843" lon="12.7221575"><ele>183.0</ele><time>2026-03-28T13:07:52.545Z</time></trkpt><trkpt lat="42.0293263" lon="12.7222566"><ele>183.0</ele><time>2026-03-28T13:07:53.526Z</time></trkpt><trkpt lat="42.0293697" lon="12.7223659"><ele>183.0</ele><time>2026-03-28T13:07:54.532Z</time></trkpt><trkpt lat="42.029414" lon="12.7224749"><ele>183.0</ele><time>2026-03-28T13:07:55.524Z</time></trkpt><trkpt lat="42.0294575" lon="12.7225898"><ele>183.0</ele><time>2026-03-28T13:07:56.528Z</time></trkpt><trkpt lat="42.0295057" lon="12.7227107"><ele>183.0</ele><time>2026-03-28T13:07:57.527Z</time></trkpt><trkpt lat="42.0295553" lon="12.7228296"><ele>183.0</ele><time>2026-03-28T13:07:58.533Z</time></trkpt><trkpt lat="42.0296064" lon="12.7229459"><ele>183.0</ele><time>2026-03-28T13:07:59.513Z</time></trkpt><trkpt lat="42.0296628" lon="12.7230617"><ele>183.0</ele><time>2026-03-28T13:08:00.528Z</time></trkpt><trkpt lat="42.0297157" lon="12.7231729"><ele>183.0</ele><time>2026-03-28T13:08:01.521Z</time></trkpt><trkpt lat="42.0297696" lon="12.7232799"><ele>183.0</ele><time>2026-03-28T13:08:02.512Z</time></trkpt><trkpt lat="42.0298206" lon="12.7233743"><ele>183.0</ele><time>2026-03-28T13:08:03.53Z</time></trkpt><trkpt lat="42.0298629" lon="12.7234551"><ele>183.0</ele><time>2026-03-28T13:08:04.526Z</time></trkpt><trkpt lat="42.0298904" lon="12.7235342"><ele>183.0</ele><time>2026-03-28T13:08:05.51Z</time></trkpt><trkpt lat="42.0299027" lon="12.72367"><ele>183.0</ele><time>2026-03-28T13:08:07.537Z</time></trkpt><trkpt lat="42.0298166" lon="12.7237636"><ele>183.0</ele><time>2026-03-28T13:08:09.508Z</time></trkpt><trkpt lat="42.0297567" lon="12.7238028"><ele>183.0</ele><time>2026-03-28T13:08:10.518Z</time></trkpt><trkpt lat="42.0296822" lon="12.7238492"><ele>186.2</ele><time>2026-03-28T13:08:11.528Z</time></trkpt><trkpt lat="42.0296005" lon="12.7239074"><ele>189.4</ele><time>2026-03-28T13:08:12.529Z</time></trkpt><trkpt lat="42.0295119" lon="12.7239738"><ele>192.6</ele><time>2026-03-28T13:08:13.524Z</time></trkpt><trkpt lat="42.0294054" lon="12.7240412"><ele>195.79999999999998</ele><time>2026-03-28T13:08:14.551Z</time></trkpt><trkpt lat="42.0292956" lon="12.724113"><ele>199.0</ele><time>2026-03-28T13:08:15.517Z</time></trkpt><trkpt lat="42.0291847" lon="12.7241915"><ele>200.0</ele><time>2026-03-28T13:08:16.527Z</time></trkpt><trkpt lat="42.0290713" lon="12.7242742"><ele>201.0</ele><time>2026-03-28T13:08:17.526Z</time></trkpt><trkpt lat="42.0289583" lon="12.7243642"><ele>202.0</ele><time>2026-03-28T13:08:18.548Z</time></trkpt><trkpt lat="42.0288413" lon="12.7244561"><ele>203.0</ele><time>2026-03-28T13:08:19.561Z</time></trkpt><trkpt lat="42.028727" lon="12.7245455"><ele>203.0</ele><time>2026-03-28T13:08:20.522Z</time></trkpt><trkpt lat="42.0286022" lon="12.7246388"><ele>203.0</ele><time>2026-03-28T13:08:21.545Z</time></trkpt><trkpt lat="42.0284816" lon="12.7247294"><ele>203.0</ele><time>2026-03-28T13:08:22.543Z</time></trkpt><trkpt lat="42.0283562" lon="12.7248182"><ele>203.0</ele><time>2026-03-28T13:08:23.543Z</time></trkpt><trkpt lat="42.0282325" lon="12.724899"><ele>201.25</ele><time>2026-03-28T13:08:24.529Z</time></trkpt><trkpt lat="42.0281073" lon="12.7249699"><ele>199.5</ele><time>2026-03-28T13:08:25.518Z</time></trkpt><trkpt lat="42.0279771" lon="12.7250313"><ele>197.75</ele><time>2026-03-28T13:08:26.539Z</time></trkpt><trkpt lat="42.0278484" lon="12.7250869"><ele>196.0</ele><time>2026-03-28T13:08:27.521Z</time></trkpt><trkpt lat="42.0277263" lon="12.7251379"><ele>196.0</ele><time>2026-03-28T13:08:28.525Z</time></trkpt><trkpt lat="42.0276232" lon="12.7251799"><ele>196.0</ele><time>2026-03-28T13:08:29.521Z</time></trkpt><trkpt lat="42.0275388" lon="12.7252357"><ele>196.0</ele><time>2026-03-28T13:08:30.556Z</time></trkpt><trkpt lat="42.0274756" lon="12.7253045"><ele>196.0</ele><time>2026-03-28T13:08:31.524Z</time></trkpt><trkpt lat="42.0274291" lon="12.7253903"><ele>196.0</ele><time>2026-03-28T13:08:32.521Z</time></trkpt><trkpt lat="42.0273955" lon="12.7255018"><ele>196.8</ele><time>2026-03-28T13:08:33.52Z</time></trkpt><trkpt lat="42.0273757" lon="12.7256268"><ele>197.60000000000002</ele><time>2026-03-28T13:08:34.542Z</time></trkpt><trkpt lat="42.0273601" lon="12.7257642"><ele>198.4</ele><time>2026-03-28T13:08:35.532Z</time></trkpt><trkpt lat="42.0273398" lon="12.7259236"><ele>199.2</ele><time>2026-03-28T13:08:36.53Z</time></trkpt><trkpt lat="42.0273209" lon="12.7260896"><ele>200.0</ele><time>2026-03-28T13:08:37.532Z</time></trkpt><trkpt lat="42.0272995" lon="12.7262604"><ele>200.0</ele><time>2026-03-28T13:08:38.524Z</time></trkpt><trkpt lat="42.0272666" lon="12.7264285"><ele>200.0</ele><time>2026-03-28T13:08:39.531Z</time></trkpt><trkpt lat="42.0272192" lon="12.7265869"><ele>200.0</ele><time>2026-03-28T13:08:40.518Z</time></trkpt><trkpt lat="42.0271599" lon="12.7267357"><ele>200.0</ele><time>2026-03-28T13:08:41.516Z</time></trkpt><trkpt lat="42.0271013" lon="12.7268576"><ele>202.6</ele><time>2026-03-28T13:08:42.527Z</time></trkpt><trkpt lat="42.027049" lon="12.7269638"><ele>205.2</ele><time>2026-03-28T13:08:43.539Z</time></trkpt><trkpt lat="42.0270085" lon="12.7270608"><ele>207.8</ele><time>2026-03-28T13:08:44.538Z</time></trkpt><trkpt lat="42.0269642" lon="12.7271622"><ele>210.4</ele><time>2026-03-28T13:08:45.515Z</time></trkpt><trkpt lat="42.026915" lon="12.7272742"><ele>213.0</ele><time>2026-03-28T13:08:46.537Z</time></trkpt><trkpt lat="42.0268638" lon="12.7273995"><ele>213.0</ele><time>2026-03-28T13:08:47.552Z</time></trkpt><trkpt lat="42.0268051" lon="12.7275383"><ele>213.0</ele><time>2026-03-28T13:08:48.532Z</time></trkpt><trkpt lat="42.0267459" lon="12.7276848"><ele>213.0</ele><time>2026-03-28T13:08:49.523Z</time></trkpt><trkpt lat="42.0266925" lon="12.7278364"><ele>213.0</ele><time>2026-03-28T13:08:50.517Z</time></trkpt><trkpt lat="42.0266585" lon="12.7279957"><ele>211.8</ele><time>2026-03-28T13:08:51.569Z</time></trkpt><trkpt lat="42.0266427" lon="12.7281485"><ele>210.60000000000002</ele><time>2026-03-28T13:08:52.537Z</time></trkpt><trkpt lat="42.0266476" lon="12.7282909"><ele>209.39999999999998</ele><time>2026-03-28T13:08:53.539Z</time></trkpt><trkpt lat="42.0266724" lon="12.7284315"><ele>208.2</ele><time>2026-03-28T13:08:54.525Z</time></trkpt><trkpt lat="42.026697" lon="12.7285696"><ele>207.0</ele><time>2026-03-28T13:08:55.54Z</time></trkpt><trkpt lat="42.0267182" lon="12.7286991"><ele>207.83333333333334</ele><time>2026-03-28T13:08:56.535Z</time></trkpt><trkpt lat="42.0267273" lon="12.7288183"><ele>208.66666666666669</ele><time>2026-03-28T13:08:57.54Z</time></trkpt><trkpt lat="42.026722" lon="12.7289196"><ele>209.5</ele><time>2026-03-28T13:08:58.536Z</time></trkpt><trkpt lat="42.0266988" lon="12.7290162"><ele>210.33333333333334</ele><time>2026-03-28T13:08:59.528Z</time></trkpt><trkpt lat="42.026665" lon="12.7291269"><ele>211.16666666666669</ele><time>2026-03-28T13:09:00.532Z</time></trkpt><trkpt lat="42.0266291" lon="12.7292499"><ele>212.0</ele><time>2026-03-28T13:09:01.542Z</time></trkpt><trkpt lat="42.0265857" lon="12.7293916"><ele>214.0</ele><time>2026-03-28T13:09:02.532Z</time></trkpt><trkpt lat="42.0265493" lon="12.72955"><ele>216.0</ele><time>2026-03-28T13:09:03.521Z</time></trkpt><trkpt lat="42.0265138" lon="12.7297188"><ele>218.0</ele><time>2026-03-28T13:09:04.556Z</time></trkpt><trkpt lat="42.0264739" lon="12.7298786"><ele>220.0</ele><time>2026-03-28T13:09:05.518Z</time></trkpt><trkpt lat="42.026441" lon="12.7300331"><ele>220.0</ele><time>2026-03-28T13:09:06.51Z</time></trkpt><trkpt lat="42.0264158" lon="12.7301823"><ele>220.0</ele><time>2026-03-28T13:09:07.527Z</time></trkpt><trkpt lat="42.0263971" lon="12.7303262"><ele>220.0</ele><time>2026-03-28T13:09:08.542Z</time></trkpt><trkpt lat="42.0263896" lon="12.7304623"><ele>220.0</ele><time>2026-03-28T13:09:09.529Z</time></trkpt><trkpt lat="42.0263953" lon="12.7305803"><ele>220.0</ele><time>2026-03-28T13:09:10.525Z</time></trkpt><trkpt lat="42.0264308" lon="12.7306859"><ele>221.8</ele><time>2026-03-28T13:09:11.547Z</time></trkpt><trkpt lat="42.0264876" lon="12.7307873"><ele>223.6</ele><time>2026-03-28T13:09:12.511Z</time></trkpt><trkpt lat="42.0265451" lon="12.7308857"><ele>225.39999999999998</ele><time>2026-03-28T13:09:13.521Z</time></trkpt><trkpt lat="42.0265727" lon="12.7309946"><ele>227.2</ele><time>2026-03-28T13:09:14.526Z</time></trkpt><trkpt lat="42.0265666" lon="12.7311194"><ele>229.0</ele><time>2026-03-28T13:09:15.532Z</time></trkpt><trkpt lat="42.0265473" lon="12.7312573"><ele>230.39999999999998</ele><time>2026-03-28T13:09:16.524Z</time></trkpt><trkpt lat="42.026522" lon="12.7313986"><ele>231.79999999999998</ele><time>2026-03-28T13:09:17.52Z</time></trkpt><trkpt lat="42.0265004" lon="12.7315482"><ele>233.20000000000002</ele><time>2026-03-28T13:09:18.53Z</time></trkpt><trkpt lat="42.0264871" lon="12.7317047"><ele>234.60000000000002</ele><time>2026-03-28T13:09:19.55Z</time></trkpt><trkpt lat="42.0264794" lon="12.731849"><ele>236.0</ele><time>2026-03-28T13:09:20.53Z</time></trkpt><trkpt lat="42.0264784" lon="12.731986"><ele>236.5</ele><time>2026-03-28T13:09:21.533Z</time></trkpt><trkpt lat="42.0264815" lon="12.732139"><ele>237.0</ele><time>2026-03-28T13:09:22.541Z</time></trkpt><trkpt lat="42.0264851" lon="12.7323091"><ele>237.5</ele><time>2026-03-28T13:09:23.539Z</time></trkpt><trkpt lat="42.0264889" lon="12.7324835"><ele>238.0</ele><time>2026-03-28T13:09:24.544Z</time></trkpt><trkpt lat="42.0264972" lon="12.7326598"><ele>238.0</ele><time>2026-03-28T13:09:25.531Z</time></trkpt><trkpt lat="42.0265109" lon="12.7328425"><ele>238.0</ele><time>2026-03-28T13:09:26.532Z</time></trkpt><trkpt lat="42.0265227" lon="12.7330209"><ele>238.0</ele><time>2026-03-28T13:09:27.553Z</time></trkpt><trkpt lat="42.0265297" lon="12.73319"><ele>238.0</ele><time>2026-03-28T13:09:28.531Z</time></trkpt><trkpt lat="42.0265323" lon="12.7333493"><ele>238.0</ele><time>2026-03-28T13:09:29.533Z</time></trkpt><trkpt lat="42.0265296" lon="12.7335057"><ele>238.0</ele><time>2026-03-28T13:09:30.523Z</time></trkpt><trkpt lat="42.0265222" lon="12.7336518"><ele>238.0</ele><time>2026-03-28T13:09:31.535Z</time></trkpt><trkpt lat="42.0265091" lon="12.7337856"><ele>238.0</ele><time>2026-03-28T13:09:32.541Z</time></trkpt><trkpt lat="42.026493" lon="12.733909"><ele>238.0</ele><time>2026-03-28T13:09:33.552Z</time></trkpt><trkpt lat="42.0264748" lon="12.7340326"><ele>238.16666666666666</ele><time>2026-03-28T13:09:34.566Z</time></trkpt><trkpt lat="42.0264565" lon="12.7341472"><ele>238.33333333333331</ele><time>2026-03-28T13:09:35.577Z</time></trkpt><trkpt lat="42.0264405" lon="12.7342593"><ele>238.5</ele><time>2026-03-28T13:09:36.53Z</time></trkpt><trkpt lat="42.0264198" lon="12.7343573"><ele>238.66666666666669</ele><time>2026-03-28T13:09:37.539Z</time></trkpt><trkpt lat="42.0263991" lon="12.7344422"><ele>238.83333333333334</ele><time>2026-03-28T13:09:38.534Z</time></trkpt><trkpt lat="42.0263633" lon="12.7345913"><ele>239.0</ele><time>2026-03-28T13:09:40.542Z</time></trkpt><trkpt lat="42.0263381" lon="12.7346722"><ele>239.16666666666669</ele><time>2026-03-28T13:09:41.539Z</time></trkpt><trkpt lat="42.0262921" lon="12.734746"><ele>239.33333333333334</ele><time>2026-03-28T13:09:42.522Z</time></trkpt><trkpt lat="42.0262435" lon="12.7348064"><ele>239.5</ele><time>2026-03-28T13:09:43.543Z</time></trkpt><trkpt lat="42.026172" lon="12.7348821"><ele>239.66666666666669</ele><time>2026-03-28T13:09:45.542Z</time></trkpt><trkpt lat="42.0260795" lon="12.7349844"><ele>239.83333333333334</ele><time>2026-03-28T13:09:49.558Z</time></trkpt><trkpt lat="42.0260275" lon="12.7350556"><ele>240.0</ele><time>2026-03-28T13:09:50.545Z</time></trkpt><trkpt lat="42.0259671" lon="12.7351426"><ele>240.0</ele><time>2026-03-28T13:09:51.542Z</time></trkpt><trkpt lat="42.0258908" lon="12.7352318"><ele>240.0</ele><time>2026-03-28T13:09:52.563Z</time></trkpt><trkpt lat="42.0258158" lon="12.735327"><ele>240.0</ele><time>2026-03-28T13:09:53.536Z</time></trkpt><trkpt lat="42.0257381" lon="12.7354327"><ele>240.0</ele><time>2026-03-28T13:09:54.546Z</time></trkpt><trkpt lat="42.0256671" lon="12.7355476"><ele>240.0</ele><time>2026-03-28T13:09:55.571Z</time></trkpt><trkpt lat="42.025595" lon="12.735643"><ele>240.0</ele><time>2026-03-28T13:09:56.559Z</time></trkpt><trkpt lat="42.0255258" lon="12.7357358"><ele>240.0</ele><time>2026-03-28T13:09:57.54Z</time></trkpt><trkpt lat="42.0254515" lon="12.7358266"><ele>240.0</ele><time>2026-03-28T13:09:58.541Z</time></trkpt><trkpt lat="42.0253795" lon="12.7359173"><ele>240.0</ele><time>2026-03-28T13:09:59.531Z</time></trkpt><trkpt lat="42.0253138" lon="12.7360293"><ele>240.0</ele><time>2026-03-28T13:10:00.528Z</time></trkpt><trkpt lat="42.0252578" lon="12.7361604"><ele>242.25</ele><time>2026-03-28T13:10:01.537Z</time></trkpt><trkpt lat="42.0252059" lon="12.7363048"><ele>244.5</ele><time>2026-03-28T13:10:02.556Z</time></trkpt><trkpt lat="42.0251582" lon="12.7364579"><ele>246.75</ele><time>2026-03-28T13:10:03.581Z</time></trkpt><trkpt lat="42.0251152" lon="12.7366153"><ele>249.0</ele><time>2026-03-28T13:10:04.545Z</time></trkpt><trkpt lat="42.0250822" lon="12.7367685"><ele>250.0</ele><time>2026-03-28T13:10:05.64Z</time></trkpt><trkpt lat="42.0250505" lon="12.7369198"><ele>250.99999999999997</ele><time>2026-03-28T13:10:06.576Z</time></trkpt><trkpt lat="42.0250212" lon="12.7370572"><ele>251.99999999999997</ele><time>2026-03-28T13:10:07.558Z</time></trkpt><trkpt lat="42.0249879" lon="12.7371874"><ele>253.0</ele><time>2026-03-28T13:10:08.597Z</time></trkpt><trkpt lat="42.0249578" lon="12.7373253"><ele>254.0</ele><time>2026-03-28T13:10:09.546Z</time></trkpt><trkpt lat="42.0249293" lon="12.737459"><ele>250.39999999999998</ele><time>2026-03-28T13:10:10.531Z</time></trkpt><trkpt lat="42.0249011" lon="12.7375778"><ele>246.79999999999998</ele><time>2026-03-28T13:10:11.536Z</time></trkpt><trkpt lat="42.0248764" lon="12.7376897"><ele>243.20000000000002</ele><time>2026-03-28T13:10:12.524Z</time></trkpt><trkpt lat="42.024869" lon="12.7377975"><ele>239.60000000000002</ele><time>2026-03-28T13:10:13.537Z</time></trkpt><trkpt lat="42.024878" lon="12.7379171"><ele>236.0</ele><time>2026-03-28T13:10:14.527Z</time></trkpt><trkpt lat="42.0248972" lon="12.7380541"><ele>236.0</ele><time>2026-03-28T13:10:15.53Z</time></trkpt><trkpt lat="42.0249317" lon="12.7382042"><ele>236.00000000000003</ele><time>2026-03-28T13:10:16.542Z</time></trkpt><trkpt lat="42.024966" lon="12.738359"><ele>236.00000000000003</ele><time>2026-03-28T13:10:17.538Z</time></trkpt><trkpt lat="42.0249834" lon="12.7384984"><ele>236.0</ele><time>2026-03-28T13:10:18.545Z</time></trkpt><trkpt lat="42.0249961" lon="12.7386182"><ele>236.0</ele><time>2026-03-28T13:10:19.537Z</time></trkpt><trkpt lat="42.0249923" lon="12.7387279"><ele>237.83333333333334</ele><time>2026-03-28T13:10:20.527Z</time></trkpt><trkpt lat="42.0249717" lon="12.7388106"><ele>239.66666666666669</ele><time>2026-03-28T13:10:21.544Z</time></trkpt><trkpt lat="42.0249452" lon="12.7388947"><ele>241.5</ele><time>2026-03-28T13:10:22.53Z</time></trkpt><trkpt lat="42.0249259" lon="12.7389979"><ele>243.33333333333331</ele><time>2026-03-28T13:10:23.524Z</time></trkpt><trkpt lat="42.0249013" lon="12.7391198"><ele>245.16666666666666</ele><time>2026-03-28T13:10:24.538Z</time></trkpt><trkpt lat="42.024878" lon="12.7392406"><ele>247.0</ele><time>2026-03-28T13:10:25.535Z</time></trkpt><trkpt lat="42.024856" lon="12.7393634"><ele>251.0</ele><time>2026-03-28T13:10:26.537Z</time></trkpt><trkpt lat="42.0248326" lon="12.7394905"><ele>255.0</ele><time>2026-03-28T13:10:27.543Z</time></trkpt><trkpt lat="42.0248047" lon="12.7396126"><ele>259.0</ele><time>2026-03-28T13:10:28.532Z</time></trkpt><trkpt lat="42.024776" lon="12.7397341"><ele>263.0</ele><time>2026-03-28T13:10:29.545Z</time></trkpt><trkpt lat="42.0247473" lon="12.7398464"><ele>267.0</ele><time>2026-03-28T13:10:30.539Z</time></trkpt><trkpt lat="42.0247194" lon="12.7399529"><ele>267.0</ele><time>2026-03-28T13:10:31.57Z</time></trkpt><trkpt lat="42.0246903" lon="12.7400403"><ele>267.0</ele><time>2026-03-28T13:10:32.564Z</time></trkpt><trkpt lat="42.0245902" lon="12.7401238"><ele>267.0</ele><time>2026-03-28T13:10:34.546Z</time></trkpt><trkpt lat="42.024525" lon="12.7401379"><ele>267.0</ele><time>2026-03-28T13:10:35.537Z</time></trkpt><trkpt lat="42.0244515" lon="12.7401373"><ele>267.0</ele><time>2026-03-28T13:10:36.539Z</time></trkpt><trkpt lat="42.024384" lon="12.7401258"><ele>267.0</ele><time>2026-03-28T13:10:37.554Z</time></trkpt><trkpt lat="42.0243127" lon="12.7401019"><ele>267.0</ele><time>2026-03-28T13:10:38.546Z</time></trkpt><trkpt lat="42.0242286" lon="12.7400758"><ele>267.0</ele><time>2026-03-28T13:10:39.532Z</time></trkpt><trkpt lat="42.0241338" lon="12.7400462"><ele>267.0</ele><time>2026-03-28T13:10:40.531Z</time></trkpt><trkpt lat="42.02403" lon="12.7400108"><ele>267.0</ele><time>2026-03-28T13:10:41.539Z</time></trkpt><trkpt lat="42.0239157" lon="12.7399971"><ele>267.0</ele><time>2026-03-28T13:10:42.527Z</time></trkpt><trkpt lat="42.0237959" lon="12.7399792"><ele>269.3333333333333</ele><time>2026-03-28T13:10:43.546Z</time></trkpt><trkpt lat="42.0236806" lon="12.7399633"><ele>271.6666666666667</ele><time>2026-03-28T13:10:44.539Z</time></trkpt><trkpt lat="42.0235879" lon="12.7399482"><ele>274.0</ele><time>2026-03-28T13:10:45.585Z</time></trkpt><trkpt lat="42.0235248" lon="12.7399305"><ele>276.33333333333337</ele><time>2026-03-28T13:10:46.539Z</time></trkpt><trkpt lat="42.0234584" lon="12.7399011"><ele>278.6666666666667</ele><time>2026-03-28T13:10:47.552Z</time></trkpt><trkpt lat="42.0233762" lon="12.7398533"><ele>281.0</ele><time>2026-03-28T13:10:48.538Z</time></trkpt><trkpt lat="42.0232853" lon="12.7398006"><ele>281.7142857142857</ele><time>2026-03-28T13:10:49.59Z</time></trkpt><trkpt lat="42.0231953" lon="12.7397572"><ele>282.42857142857144</ele><time>2026-03-28T13:10:50.543Z</time></trkpt><trkpt lat="42.0231186" lon="12.7397103"><ele>283.1428571428571</ele><time>2026-03-28T13:10:51.541Z</time></trkpt><trkpt lat="42.0230526" lon="12.7396697"><ele>283.8571428571429</ele><time>2026-03-28T13:10:52.557Z</time></trkpt><trkpt lat="42.0229898" lon="12.7396359"><ele>284.57142857142856</ele><time>2026-03-28T13:10:53.539Z</time></trkpt><trkpt lat="42.022928" lon="12.7396141"><ele>285.2857142857143</ele><time>2026-03-28T13:10:54.57Z</time></trkpt><trkpt lat="42.0228645" lon="12.7396036"><ele>286.0</ele><time>2026-03-28T13:10:55.571Z</time></trkpt><trkpt lat="42.0227818" lon="12.7396052"><ele>286.0</ele><time>2026-03-28T13:10:56.542Z</time></trkpt><trkpt lat="42.0226886" lon="12.739625"><ele>286.0</ele><time>2026-03-28T13:10:57.557Z</time></trkpt><trkpt lat="42.0225913" lon="12.7396654"><ele>286.0</ele><time>2026-03-28T13:10:58.547Z</time></trkpt><trkpt lat="42.0224923" lon="12.7397144"><ele>286.0</ele><time>2026-03-28T13:10:59.562Z</time></trkpt><trkpt lat="42.0224044" lon="12.7397633"><ele>286.0</ele><time>2026-03-28T13:11:00.541Z</time></trkpt><trkpt lat="42.0223258" lon="12.7398256"><ele>287.5</ele><time>2026-03-28T13:11:01.547Z</time></trkpt><trkpt lat="42.0222543" lon="12.73989"><ele>289.0</ele><time>2026-03-28T13:11:02.566Z</time></trkpt><trkpt lat="42.0221868" lon="12.7399593"><ele>290.5</ele><time>2026-03-28T13:11:03.538Z</time></trkpt><trkpt lat="42.0221245" lon="12.7400411"><ele>292.0</ele><time>2026-03-28T13:11:04.565Z</time></trkpt><trkpt lat="42.0220656" lon="12.740135"><ele>293.5</ele><time>2026-03-28T13:11:05.545Z</time></trkpt><trkpt lat="42.0220111" lon="12.7402375"><ele>295.0</ele><time>2026-03-28T13:11:06.573Z</time></trkpt><trkpt lat="42.0219598" lon="12.7403305"><ele>295.0</ele><time>2026-03-28T13:11:07.542Z</time></trkpt><trkpt lat="42.0219211" lon="12.7404005"><ele>295.0</ele><time>2026-03-28T13:11:08.572Z</time></trkpt><trkpt lat="42.0218572" lon="12.7405264"><ele>295.0</ele><time>2026-03-28T13:11:10.545Z</time></trkpt><trkpt lat="42.0218132" lon="12.7406337"><ele>295.0</ele><time>2026-03-28T13:11:13.577Z</time></trkpt><trkpt lat="42.0217642" lon="12.7406887"><ele>295.0</ele><time>2026-03-28T13:11:14.579Z</time></trkpt><trkpt lat="42.0217129" lon="12.7407566"><ele>295.0</ele><time>2026-03-28T13:11:15.549Z</time></trkpt><trkpt lat="42.0216573" lon="12.7408283"><ele>296.0</ele><time>2026-03-28T13:11:16.537Z</time></trkpt><trkpt lat="42.0215866" lon="12.7408927"><ele>297.0</ele><time>2026-03-28T13:11:17.583Z</time></trkpt><trkpt lat="42.0215152" lon="12.7409413"><ele>298.0</ele><time>2026-03-28T13:11:18.532Z</time></trkpt><trkpt lat="42.0214534" lon="12.7409901"><ele>299.0</ele><time>2026-03-28T13:11:19.543Z</time></trkpt><trkpt lat="42.0214" lon="12.7410373"><ele>300.0</ele><time>2026-03-28T13:11:20.566Z</time></trkpt><trkpt lat="42.0213146" lon="12.7411056"><ele>301.0</ele><time>2026-03-28T13:11:22.548Z</time></trkpt><trkpt lat="42.0212428" lon="12.7411713"><ele>301.0</ele><time>2026-03-28T13:11:24.567Z</time></trkpt><trkpt lat="42.0211302" lon="12.7412386"><ele>301.0</ele><time>2026-03-28T13:11:26.563Z</time></trkpt><trkpt lat="42.0210184" lon="12.7412935"><ele>301.0</ele><time>2026-03-28T13:11:28.577Z</time></trkpt><trkpt lat="42.0209538" lon="12.7412918"><ele>301.0</ele><time>2026-03-28T13:11:29.555Z</time></trkpt><trkpt lat="42.0208886" lon="12.7412925"><ele>301.0</ele><time>2026-03-28T13:11:30.536Z</time></trkpt><trkpt lat="42.0208074" lon="12.7413026"><ele>299.6</ele><time>2026-03-28T13:11:32.55Z</time></trkpt><trkpt lat="42.0207191" lon="12.7412655"><ele>298.20000000000005</ele><time>2026-03-28T13:11:41.546Z</time></trkpt><trkpt lat="42.0206438" lon="12.7411175"><ele>296.79999999999995</ele><time>2026-03-28T13:11:43.537Z</time></trkpt><trkpt lat="42.0205996" lon="12.7410298"><ele>295.4</ele><time>2026-03-28T13:11:44.543Z</time></trkpt><trkpt lat="42.020557" lon="12.7409469"><ele>294.0</ele><time>2026-03-28T13:11:45.536Z</time></trkpt><trkpt lat="42.0205117" lon="12.7408568"><ele>294.0</ele><time>2026-03-28T13:11:46.529Z</time></trkpt><trkpt lat="42.0204607" lon="12.7407654"><ele>294.0</ele><time>2026-03-28T13:11:47.533Z</time></trkpt><trkpt lat="42.0204056" lon="12.7406693"><ele>294.0</ele><time>2026-03-28T13:11:48.532Z</time></trkpt><trkpt lat="42.0203431" lon="12.7405761"><ele>294.0</ele><time>2026-03-28T13:11:49.529Z</time></trkpt><trkpt lat="42.0202794" lon="12.7404885"><ele>294.0</ele><time>2026-03-28T13:11:50.607Z</time></trkpt><trkpt lat="42.0202133" lon="12.7404016"><ele>294.0</ele><time>2026-03-28T13:11:51.567Z</time></trkpt><trkpt lat="42.020147" lon="12.740323"><ele>294.0</ele><time>2026-03-28T13:11:52.528Z</time></trkpt><trkpt lat="42.0200898" lon="12.7402637"><ele>294.0</ele><time>2026-03-28T13:11:53.538Z</time></trkpt><trkpt lat="42.0200022" lon="12.7401882"><ele>294.0</ele><time>2026-03-28T13:11:55.58Z</time></trkpt><trkpt lat="42.0198984" lon="12.7401202"><ele>294.0</ele><time>2026-03-28T13:11:57.528Z</time></trkpt><trkpt lat="42.0198197" lon="12.7400633"><ele>292.8</ele><time>2026-03-28T13:11:59.543Z</time></trkpt><trkpt lat="42.019774" lon="12.7399966"><ele>291.59999999999997</ele><time>2026-03-28T13:12:01.551Z</time></trkpt><trkpt lat="42.0197249" lon="12.7398814"><ele>290.4</ele><time>2026-03-28T13:12:03.529Z</time></trkpt><trkpt lat="42.0196845" lon="12.7397635"><ele>289.2</ele><time>2026-03-28T13:12:05.527Z</time></trkpt><trkpt lat="42.0196715" lon="12.7396224"><ele>288.0</ele><time>2026-03-28T13:12:07.54Z</time></trkpt><trkpt lat="42.0196964" lon="12.7394632"><ele>285.42857142857144</ele><time>2026-03-28T13:12:09.547Z</time></trkpt><trkpt lat="42.0197226" lon="12.7393811"><ele>282.8571428571429</ele><time>2026-03-28T13:12:10.532Z</time></trkpt><trkpt lat="42.0197544" lon="12.7393005"><ele>280.2857142857143</ele><time>2026-03-28T13:12:11.529Z</time></trkpt><trkpt lat="42.0197885" lon="12.7392183"><ele>277.7142857142857</ele><time>2026-03-28T13:12:12.528Z</time></trkpt><trkpt lat="42.0198222" lon="12.7391312"><ele>275.1428571428571</ele><time>2026-03-28T13:12:13.529Z</time></trkpt><trkpt lat="42.0198628" lon="12.7390512"><ele>272.57142857142856</ele><time>2026-03-28T13:12:14.53Z</time></trkpt><trkpt lat="42.0198967" lon="12.7389748"><ele>270.0</ele><time>2026-03-28T13:12:15.533Z</time></trkpt><trkpt lat="42.0199295" lon="12.7388918"><ele>270.0</ele><time>2026-03-28T13:12:16.532Z</time></trkpt><trkpt lat="42.0199546" lon="12.7387962"><ele>270.0</ele><time>2026-03-28T13:12:17.529Z</time></trkpt><trkpt lat="42.0199689" lon="12.7386853"><ele>270.0</ele><time>2026-03-28T13:12:18.521Z</time></trkpt><trkpt lat="42.019977" lon="12.7385688"><ele>270.0</ele><time>2026-03-28T13:12:19.534Z</time></trkpt><trkpt lat="42.0199894" lon="12.7384696"><ele>270.0</ele><time>2026-03-28T13:12:20.536Z</time></trkpt><trkpt lat="42.0200056" lon="12.738383"><ele>270.0</ele><time>2026-03-28T13:12:21.533Z</time></trkpt><trkpt lat="42.0200413" lon="12.7383101"><ele>265.6</ele><time>2026-03-28T13:12:22.536Z</time></trkpt><trkpt lat="42.0200865" lon="12.7382412"><ele>261.2</ele><time>2026-03-28T13:12:23.544Z</time></trkpt><trkpt lat="42.020118" lon="12.7381633"><ele>256.8</ele><time>2026-03-28T13:12:24.544Z</time></trkpt><trkpt lat="42.0201377" lon="12.7379731"><ele>252.4</ele><time>2026-03-28T13:12:26.547Z</time></trkpt><trkpt lat="42.0201417" lon="12.7378299"><ele>248.0</ele><time>2026-03-28T13:12:27.534Z</time></trkpt><trkpt lat="42.0201505" lon="12.7376765"><ele>246.0</ele><time>2026-03-28T13:12:28.551Z</time></trkpt><trkpt lat="42.0201632" lon="12.7375286"><ele>244.0</ele><time>2026-03-28T13:12:29.536Z</time></trkpt><trkpt lat="42.0201885" lon="12.7373871"><ele>242.0</ele><time>2026-03-28T13:12:30.543Z</time></trkpt><trkpt lat="42.0202245" lon="12.7372511"><ele>240.0</ele><time>2026-03-28T13:12:31.547Z</time></trkpt><trkpt lat="42.0202606" lon="12.7371236"><ele>238.0</ele><time>2026-03-28T13:12:32.574Z</time></trkpt><trkpt lat="42.0202833" lon="12.7369949"><ele>237.60000000000002</ele><time>2026-03-28T13:12:33.558Z</time></trkpt><trkpt lat="42.0203028" lon="12.7368531"><ele>237.20000000000002</ele><time>2026-03-28T13:12:34.537Z</time></trkpt><trkpt lat="42.0203222" lon="12.7367065"><ele>236.8</ele><time>2026-03-28T13:12:35.519Z</time></trkpt><trkpt lat="42.0203457" lon="12.7365686"><ele>236.4</ele><time>2026-03-28T13:12:36.534Z</time></trkpt><trkpt lat="42.0203778" lon="12.7364448"><ele>236.0</ele><time>2026-03-28T13:12:37.542Z</time></trkpt><trkpt lat="42.020415" lon="12.736345"><ele>236.0</ele><time>2026-03-28T13:12:38.537Z</time></trkpt><trkpt lat="42.0204285" lon="12.7362441"><ele>236.00000000000003</ele><time>2026-03-28T13:12:39.54Z</time></trkpt><trkpt lat="42.0204089" lon="12.7361242"><ele>236.00000000000003</ele><time>2026-03-28T13:12:40.533Z</time></trkpt><trkpt lat="42.0203724" lon="12.73598"><ele>236.0</ele><time>2026-03-28T13:12:41.523Z</time></trkpt><trkpt lat="42.0203356" lon="12.7358141"><ele>236.0</ele><time>2026-03-28T13:12:42.52Z</time></trkpt><trkpt lat="42.0203076" lon="12.7356428"><ele>235.25</ele><time>2026-03-28T13:12:43.518Z</time></trkpt><trkpt lat="42.020293" lon="12.7354708"><ele>234.5</ele><time>2026-03-28T13:12:44.525Z</time></trkpt><trkpt lat="42.020285" lon="12.7353012"><ele>233.75</ele><time>2026-03-28T13:12:45.52Z</time></trkpt><trkpt lat="42.0202765" lon="12.735129"><ele>233.0</ele><time>2026-03-28T13:12:46.521Z</time></trkpt><trkpt lat="42.0202574" lon="12.7349515"><ele>232.5</ele><time>2026-03-28T13:12:47.532Z</time></trkpt><trkpt lat="42.0202358" lon="12.7347711"><ele>232.0</ele><time>2026-03-28T13:12:48.547Z</time></trkpt><trkpt lat="42.0202069" lon="12.7345913"><ele>231.5</ele><time>2026-03-28T13:12:49.547Z</time></trkpt><trkpt lat="42.0201816" lon="12.7344138"><ele>231.0</ele><time>2026-03-28T13:12:50.599Z</time></trkpt><trkpt lat="42.0201518" lon="12.7342417"><ele>229.5</ele><time>2026-03-28T13:12:51.543Z</time></trkpt><trkpt lat="42.0201169" lon="12.7340676"><ele>228.0</ele><time>2026-03-28T13:12:52.519Z</time></trkpt><trkpt lat="42.0200719" lon="12.7338927"><ele>226.5</ele><time>2026-03-28T13:12:53.531Z</time></trkpt><trkpt lat="42.020023" lon="12.7337236"><ele>225.0</ele><time>2026-03-28T13:12:54.528Z</time></trkpt><trkpt lat="42.0199745" lon="12.7335534"><ele>224.0</ele><time>2026-03-28T13:12:55.533Z</time></trkpt><trkpt lat="42.0199291" lon="12.7333853"><ele>223.0</ele><time>2026-03-28T13:12:56.539Z</time></trkpt><trkpt lat="42.0198852" lon="12.7332278"><ele>222.0</ele><time>2026-03-28T13:12:57.528Z</time></trkpt><trkpt lat="42.0198443" lon="12.7330704"><ele>221.0</ele><time>2026-03-28T13:12:58.554Z</time></trkpt><trkpt lat="42.0198034" lon="12.7329206"><ele>221.0</ele><time>2026-03-28T13:12:59.526Z</time></trkpt><trkpt lat="42.0197632" lon="12.7327859"><ele>221.00000000000003</ele><time>2026-03-28T13:13:00.527Z</time></trkpt><trkpt lat="42.0197169" lon="12.7326668"><ele>221.00000000000003</ele><time>2026-03-28T13:13:01.532Z</time></trkpt><trkpt lat="42.0196658" lon="12.7325552"><ele>221.0</ele><time>2026-03-28T13:13:02.525Z</time></trkpt><trkpt lat="42.0196113" lon="12.7324506"><ele>221.0</ele><time>2026-03-28T13:13:03.543Z</time></trkpt><trkpt lat="42.0195562" lon="12.7323477"><ele>220.20000000000002</ele><time>2026-03-28T13:13:04.534Z</time></trkpt><trkpt lat="42.0195014" lon="12.7322485"><ele>219.40000000000003</ele><time>2026-03-28T13:13:05.555Z</time></trkpt><trkpt lat="42.0194523" lon="12.7321507"><ele>218.6</ele><time>2026-03-28T13:13:06.528Z</time></trkpt><trkpt lat="42.0194008" lon="12.7320363"><ele>217.8</ele><time>2026-03-28T13:13:07.545Z</time></trkpt><trkpt lat="42.0193563" lon="12.7319097"><ele>217.0</ele><time>2026-03-28T13:13:08.542Z</time></trkpt><trkpt lat="42.0193178" lon="12.7317756"><ele>215.39999999999998</ele><time>2026-03-28T13:13:09.538Z</time></trkpt><trkpt lat="42.0192868" lon="12.73163"><ele>213.79999999999998</ele><time>2026-03-28T13:13:10.55Z</time></trkpt><trkpt lat="42.0192515" lon="12.7314928"><ele>212.2</ele><time>2026-03-28T13:13:11.526Z</time></trkpt><trkpt lat="42.0192255" lon="12.7313725"><ele>210.6</ele><time>2026-03-28T13:13:12.515Z</time></trkpt><trkpt lat="42.0192053" lon="12.7312586"><ele>209.0</ele><time>2026-03-28T13:13:13.531Z</time></trkpt><trkpt lat="42.0191881" lon="12.7311484"><ele>208.50000000000003</ele><time>2026-03-28T13:13:14.52Z</time></trkpt><trkpt lat="42.019167" lon="12.7310396"><ele>208.0</ele><time>2026-03-28T13:13:15.555Z</time></trkpt><trkpt lat="42.0191465" lon="12.7309318"><ele>207.5</ele><time>2026-03-28T13:13:16.539Z</time></trkpt><trkpt lat="42.019122" lon="12.7308352"><ele>207.0</ele><time>2026-03-28T13:13:17.531Z</time></trkpt><trkpt lat="42.0190961" lon="12.7307556"><ele>206.50000000000003</ele><time>2026-03-28T13:13:18.52Z</time></trkpt><trkpt lat="42.0190417" lon="12.7306306"><ele>206.0</ele><time>2026-03-28T13:13:20.526Z</time></trkpt><trkpt lat="42.0189862" lon="12.7305009"><ele>203.8</ele><time>2026-03-28T13:13:22.528Z</time></trkpt><trkpt lat="42.0189266" lon="12.7303656"><ele>201.60000000000002</ele><time>2026-03-28T13:13:24.552Z</time></trkpt><trkpt lat="42.0188561" lon="12.7302185"><ele>199.4</ele><time>2026-03-28T13:13:26.533Z</time></trkpt><trkpt lat="42.0188166" lon="12.7301465"><ele>197.2</ele><time>2026-03-28T13:13:27.531Z</time></trkpt><trkpt lat="42.0187828" lon="12.7300739"><ele>195.0</ele><time>2026-03-28T13:13:28.548Z</time></trkpt><trkpt lat="42.0187169" lon="12.729933"><ele>194.83333333333334</ele><time>2026-03-28T13:13:30.548Z</time></trkpt><trkpt lat="42.0186684" lon="12.7297998"><ele>194.66666666666669</ele><time>2026-03-28T13:13:32.54Z</time></trkpt><trkpt lat="42.0186331" lon="12.7296869"><ele>194.5</ele><time>2026-03-28T13:13:34.552Z</time></trkpt><trkpt lat="42.0186057" lon="12.7295834"><ele>194.33333333333334</ele><time>2026-03-28T13:13:36.534Z</time></trkpt><trkpt lat="42.0185771" lon="12.7294928"><ele>194.16666666666669</ele><time>2026-03-28T13:13:38.528Z</time></trkpt><trkpt lat="42.0185412" lon="12.7293855"><ele>194.0</ele><time>2026-03-28T13:13:40.527Z</time></trkpt><trkpt lat="42.0184986" lon="12.7292632"><ele>194.6</ele><time>2026-03-28T13:13:42.539Z</time></trkpt><trkpt lat="42.0184614" lon="12.7291286"><ele>195.2</ele><time>2026-03-28T13:13:44.525Z</time></trkpt><trkpt lat="42.0184344" lon="12.7289978"><ele>195.79999999999998</ele><time>2026-03-28T13:13:46.529Z</time></trkpt><trkpt lat="42.0184116" lon="12.7288777"><ele>196.39999999999998</ele><time>2026-03-28T13:13:48.519Z</time></trkpt><trkpt lat="42.0183975" lon="12.728781"><ele>197.0</ele><time>2026-03-28T13:13:50.529Z</time></trkpt><trkpt lat="42.0183849" lon="12.728674"><ele>196.50000000000003</ele><time>2026-03-28T13:13:54.548Z</time></trkpt><trkpt lat="42.0183725" lon="12.7285453"><ele>196.0</ele><time>2026-03-28T13:13:57.542Z</time></trkpt><trkpt lat="42.0183172" lon="12.7284316"><ele>195.5</ele><time>2026-03-28T13:13:59.551Z</time></trkpt><trkpt lat="42.018268" lon="12.7283459"><ele>195.0</ele><time>2026-03-28T13:14:01.59Z</time></trkpt><trkpt lat="42.0182278" lon="12.728278"><ele>194.50000000000003</ele><time>2026-03-28T13:14:06.541Z</time></trkpt><trkpt lat="42.0181778" lon="12.7282065"><ele>194.0</ele><time>2026-03-28T13:14:09.529Z</time></trkpt><trkpt lat="42.0181473" lon="12.7281117"><ele>192.0</ele><time>2026-03-28T13:14:11.566Z</time></trkpt><trkpt lat="42.0181179" lon="12.7279843"><ele>190.0</ele><time>2026-03-28T13:14:13.524Z</time></trkpt><trkpt lat="42.0180787" lon="12.7278551"><ele>188.0</ele><time>2026-03-28T13:14:15.531Z</time></trkpt><trkpt lat="42.018051" lon="12.7277245"><ele>186.0</ele><time>2026-03-28T13:14:17.521Z</time></trkpt><trkpt lat="42.0180389" lon="12.7275978"><ele>184.0</ele><time>2026-03-28T13:14:19.533Z</time></trkpt><trkpt lat="42.0180405" lon="12.7274822"><ele>183.6</ele><time>2026-03-28T13:14:21.548Z</time></trkpt><trkpt lat="42.0180453" lon="12.7273692"><ele>183.2</ele><time>2026-03-28T13:14:23.575Z</time></trkpt><trkpt lat="42.018048" lon="12.727253"><ele>182.79999999999998</ele><time>2026-03-28T13:14:25.552Z</time></trkpt><trkpt lat="42.0180494" lon="12.7271088"><ele>182.39999999999998</ele><time>2026-03-28T13:14:27.551Z</time></trkpt><trkpt lat="42.0180425" lon="12.727018"><ele>182.0</ele><time>2026-03-28T13:14:28.575Z</time></trkpt><trkpt lat="42.0180118" lon="12.726845"><ele>182.0</ele><time>2026-03-28T13:14:30.538Z</time></trkpt><trkpt lat="42.0179411" lon="12.7267228"><ele>182.0</ele><time>2026-03-28T13:14:32.531Z</time></trkpt><trkpt lat="42.0178328" lon="12.7266133"><ele>182.0</ele><time>2026-03-28T13:14:34.533Z</time></trkpt><trkpt lat="42.0177701" lon="12.7265473"><ele>182.0</ele><time>2026-03-28T13:14:35.527Z</time></trkpt><trkpt lat="42.0177085" lon="12.7264774"><ele>182.0</ele><time>2026-03-28T13:14:36.541Z</time></trkpt><trkpt lat="42.017646" lon="12.7264081"><ele>182.0</ele><time>2026-03-28T13:14:37.531Z</time></trkpt><trkpt lat="42.0175855" lon="12.7263442"><ele>182.0</ele><time>2026-03-28T13:14:38.551Z</time></trkpt><trkpt lat="42.017522" lon="12.7262821"><ele>182.0</ele><time>2026-03-28T13:14:39.534Z</time></trkpt><trkpt lat="42.0174587" lon="12.7262211"><ele>182.0</ele><time>2026-03-28T13:14:40.534Z</time></trkpt><trkpt lat="42.0173939" lon="12.7261535"><ele>182.0</ele><time>2026-03-28T13:14:41.531Z</time></trkpt><trkpt lat="42.017329" lon="12.7260881"><ele>182.0</ele><time>2026-03-28T13:14:42.527Z</time></trkpt><trkpt lat="42.0172596" lon="12.7260217"><ele>181.6</ele><time>2026-03-28T13:14:43.54Z</time></trkpt><trkpt lat="42.0171869" lon="12.7259473"><ele>181.2</ele><time>2026-03-28T13:14:44.531Z</time></trkpt><trkpt lat="42.0171167" lon="12.7258722"><ele>180.8</ele><time>2026-03-28T13:14:45.524Z</time></trkpt><trkpt lat="42.0170394" lon="12.7257988"><ele>180.4</ele><time>2026-03-28T13:14:46.53Z</time></trkpt><trkpt lat="42.0169634" lon="12.7257238"><ele>180.0</ele><time>2026-03-28T13:14:47.515Z</time></trkpt><trkpt lat="42.0168982" lon="12.7256548"><ele>180.0</ele><time>2026-03-28T13:14:48.544Z</time></trkpt><trkpt lat="42.0168369" lon="12.7255973"><ele>180.0</ele><time>2026-03-28T13:14:49.536Z</time></trkpt><trkpt lat="42.0167739" lon="12.7255458"><ele>180.0</ele><time>2026-03-28T13:14:50.513Z</time></trkpt><trkpt lat="42.0167176" lon="12.7255046"><ele>180.0</ele><time>2026-03-28T13:14:51.574Z</time></trkpt><trkpt lat="42.0166108" lon="12.7254275"><ele>180.0</ele><time>2026-03-28T13:14:53.525Z</time></trkpt><trkpt lat="42.0165124" lon="12.7253201"><ele>178.0</ele><time>2026-03-28T13:14:55.521Z</time></trkpt><trkpt lat="42.0164568" lon="12.7252524"><ele>176.0</ele><time>2026-03-28T13:14:56.527Z</time></trkpt><trkpt lat="42.0164041" lon="12.7251917"><ele>174.0</ele><time>2026-03-28T13:14:57.551Z</time></trkpt><trkpt lat="42.0163588" lon="12.7251254"><ele>172.0</ele><time>2026-03-28T13:14:58.56Z</time></trkpt><trkpt lat="42.0163102" lon="12.7250679"><ele>170.0</ele><time>2026-03-28T13:14:59.52Z</time></trkpt><trkpt lat="42.0162245" lon="12.7249566"><ele>168.0</ele><time>2026-03-28T13:15:01.544Z</time></trkpt><trkpt lat="42.0161483" lon="12.7248821"><ele>168.0</ele><time>2026-03-28T13:15:03.535Z</time></trkpt><trkpt lat="42.0160732" lon="12.7248116"><ele>168.0</ele><time>2026-03-28T13:15:05.558Z</time></trkpt><trkpt lat="42.0159998" lon="12.7247467"><ele>168.0</ele><time>2026-03-28T13:15:07.543Z</time></trkpt><trkpt lat="42.0159367" lon="12.7247063"><ele>168.0</ele><time>2026-03-28T13:15:09.542Z</time></trkpt><trkpt lat="42.0158527" lon="12.7246515"><ele>168.0</ele><time>2026-03-28T13:15:12.547Z</time></trkpt><trkpt lat="42.0157623" lon="12.7246123"><ele>168.0</ele><time>2026-03-28T13:15:14.54Z</time></trkpt><trkpt lat="42.0156839" lon="12.7245847"><ele>165.0</ele><time>2026-03-28T13:15:16.537Z</time></trkpt><trkpt lat="42.0156159" lon="12.7245489"><ele>162.0</ele><time>2026-03-28T13:15:18.524Z</time></trkpt><trkpt lat="42.0155382" lon="12.7244899"><ele>159.0</ele><time>2026-03-28T13:15:20.535Z</time></trkpt><trkpt lat="42.015445" lon="12.7244214"><ele>156.0</ele><time>2026-03-28T13:15:22.544Z</time></trkpt><trkpt lat="42.015344" lon="12.7243576"><ele>153.0</ele><time>2026-03-28T13:15:24.539Z</time></trkpt><trkpt lat="42.0152485" lon="12.7243048"><ele>153.0</ele><time>2026-03-28T13:15:26.523Z</time></trkpt><trkpt lat="42.0151847" lon="12.7242771"><ele>153.0</ele><time>2026-03-28T13:15:28.557Z</time></trkpt><trkpt lat="42.0151184" lon="12.7242902"><ele>153.0</ele><time>2026-03-28T13:15:32.553Z</time></trkpt><trkpt lat="42.0151163" lon="12.72439"><ele>153.0</ele><time>2026-03-28T13:15:35.528Z</time></trkpt><trkpt lat="42.0151226" lon="12.7245323"><ele>153.0</ele><time>2026-03-28T13:15:37.541Z</time></trkpt><trkpt lat="42.0151199" lon="12.7246208"><ele>153.0</ele><time>2026-03-28T13:15:38.546Z</time></trkpt><trkpt lat="42.015111" lon="12.7247077"><ele>153.0</ele><time>2026-03-28T13:15:39.546Z</time></trkpt><trkpt lat="42.0150995" lon="12.7247965"><ele>153.0</ele><time>2026-03-28T13:15:40.52Z</time></trkpt><trkpt lat="42.0150768" lon="12.7249223"><ele>153.0</ele><time>2026-03-28T13:15:42.519Z</time></trkpt><trkpt lat="42.0150614" lon="12.7250671"><ele>153.0</ele><time>2026-03-28T13:15:44.558Z</time></trkpt><trkpt lat="42.0150265" lon="12.7251964"><ele>153.0</ele><time>2026-03-28T13:15:46.532Z</time></trkpt><trkpt lat="42.0133927" lon="12.7275346"><ele>158.25</ele><time>2026-03-28T13:16:29.524Z</time></trkpt><trkpt lat="42.0132382" lon="12.7276853"><ele>163.5</ele><time>2026-03-28T13:16:32.518Z</time></trkpt><trkpt lat="42.013128" lon="12.7277524"><ele>168.75</ele><time>2026-03-28T13:16:34.539Z</time></trkpt><trkpt lat="42.0130154" lon="12.7278048"><ele>174.0</ele><time>2026-03-28T13:16:36.557Z</time></trkpt><trkpt lat="42.0128965" lon="12.7278695"><ele>174.0</ele><time>2026-03-28T13:16:38.53Z</time></trkpt><trkpt lat="42.0128404" lon="12.7279113"><ele>174.0</ele><time>2026-03-28T13:16:39.551Z</time></trkpt><trkpt lat="42.012737" lon="12.7279758"><ele>174.0</ele><time>2026-03-28T13:16:41.547Z</time></trkpt><trkpt lat="42.0126345" lon="12.7280099"><ele>174.0</ele><time>2026-03-28T13:16:43.527Z</time></trkpt><trkpt lat="42.0125118" lon="12.7280304"><ele>174.0</ele><time>2026-03-28T13:16:45.547Z</time></trkpt><trkpt lat="42.0124619" lon="12.7280898"><ele>174.2</ele><time>2026-03-28T13:17:07.536Z</time></trkpt><trkpt lat="42.0125562" lon="12.7282749"><ele>174.39999999999998</ele><time>2026-03-28T13:17:10.535Z</time></trkpt><trkpt lat="42.0126074" lon="12.7283662"><ele>174.6</ele><time>2026-03-28T13:17:11.537Z</time></trkpt><trkpt lat="42.0126565" lon="12.7284571"><ele>174.8</ele><time>2026-03-28T13:17:12.522Z</time></trkpt><trkpt lat="42.0127043" lon="12.7285423"><ele>175.0</ele><time>2026-03-28T13:17:13.522Z</time></trkpt><trkpt lat="42.0127412" lon="12.7286249"><ele>175.0</ele><time>2026-03-28T13:17:14.529Z</time></trkpt><trkpt lat="42.0127681" lon="12.7287107"><ele>175.0</ele><time>2026-03-28T13:17:15.557Z</time></trkpt><trkpt lat="42.0127866" lon="12.7288139"><ele>175.0</ele><time>2026-03-28T13:17:16.53Z</time></trkpt><trkpt lat="42.0128006" lon="12.7289407"><ele>175.0</ele><time>2026-03-28T13:17:17.57Z</time></trkpt><trkpt lat="42.0128115" lon="12.7290949"><ele>175.0</ele><time>2026-03-28T13:17:18.527Z</time></trkpt><trkpt lat="42.0128263" lon="12.7292532"><ele>175.5</ele><time>2026-03-28T13:17:19.539Z</time></trkpt><trkpt lat="42.0128419" lon="12.7294117"><ele>176.0</ele><time>2026-03-28T13:17:20.53Z</time></trkpt><trkpt lat="42.0128606" lon="12.729579"><ele>176.5</ele><time>2026-03-28T13:17:21.548Z</time></trkpt><trkpt lat="42.012884" lon="12.7297553"><ele>177.0</ele><time>2026-03-28T13:17:22.528Z</time></trkpt><trkpt lat="42.0129133" lon="12.7299378"><ele>177.0</ele><time>2026-03-28T13:17:23.525Z</time></trkpt><trkpt lat="42.0129409" lon="12.7301271"><ele>177.0</ele><time>2026-03-28T13:17:24.522Z</time></trkpt><trkpt lat="42.0129708" lon="12.7303199"><ele>177.0</ele><time>2026-03-28T13:17:25.52Z</time></trkpt><trkpt lat="42.0130074" lon="12.730508"><ele>177.0</ele><time>2026-03-28T13:17:26.532Z</time></trkpt><trkpt lat="42.0130442" lon="12.7306909"><ele>178.0</ele><time>2026-03-28T13:17:27.524Z</time></trkpt><trkpt lat="42.0130834" lon="12.7308665"><ele>179.0</ele><time>2026-03-28T13:17:28.555Z</time></trkpt><trkpt lat="42.013342" lon="12.7316593"><ele>182.25</ele><time>2026-03-28T13:21:25.566Z</time></trkpt><trkpt lat="42.0133909" lon="12.7317608"><ele>185.5</ele><time>2026-03-28T13:21:26.539Z</time></trkpt><trkpt lat="42.013445" lon="12.7318795"><ele>188.75</ele><time>2026-03-28T13:21:27.591Z</time></trkpt><trkpt lat="42.0135692" lon="12.7321532"><ele>192.0</ele><time>2026-03-28T13:21:29.551Z</time></trkpt><trkpt lat="42.0136371" lon="12.7322901"><ele>192.5</ele><time>2026-03-28T13:21:30.524Z</time></trkpt><trkpt lat="42.0137124" lon="12.732435"><ele>193.0</ele><time>2026-03-28T13:21:31.546Z</time></trkpt><trkpt lat="42.0137991" lon="12.732579"><ele>193.5</ele><time>2026-03-28T13:21:32.531Z</time></trkpt><trkpt lat="42.0138876" lon="12.7327208"><ele>194.0</ele><time>2026-03-28T13:21:33.541Z</time></trkpt><trkpt lat="42.0139769" lon="12.7328588"><ele>194.25</ele><time>2026-03-28T13:21:34.55Z</time></trkpt><trkpt lat="42.0140636" lon="12.7329965"><ele>194.5</ele><time>2026-03-28T13:21:35.531Z</time></trkpt><trkpt lat="42.0141469" lon="12.7331355"><ele>194.75</ele><time>2026-03-28T13:21:36.611Z</time></trkpt><trkpt lat="42.0142188" lon="12.7332757"><ele>195.0</ele><time>2026-03-28T13:21:37.559Z</time></trkpt><trkpt lat="42.014271" lon="12.7334247"><ele>199.25</ele><time>2026-03-28T13:21:38.532Z</time></trkpt><trkpt lat="42.0143074" lon="12.7335876"><ele>203.5</ele><time>2026-03-28T13:21:39.571Z</time></trkpt><trkpt lat="42.0143411" lon="12.7337613"><ele>207.75</ele><time>2026-03-28T13:21:40.539Z</time></trkpt><trkpt lat="42.0143748" lon="12.7339365"><ele>212.0</ele><time>2026-03-28T13:21:41.628Z</time></trkpt><trkpt lat="42.0144108" lon="12.7341144"><ele>212.0</ele><time>2026-03-28T13:21:42.536Z</time></trkpt><trkpt lat="42.0144461" lon="12.7342821"><ele>212.0</ele><time>2026-03-28T13:21:43.541Z</time></trkpt><trkpt lat="42.0144841" lon="12.7344371"><ele>212.0</ele><time>2026-03-28T13:21:44.545Z</time></trkpt><trkpt lat="42.0145342" lon="12.7345846"><ele>212.0</ele><time>2026-03-28T13:21:45.53Z</time></trkpt><trkpt lat="42.0146012" lon="12.7347338"><ele>213.0</ele><time>2026-03-28T13:21:46.567Z</time></trkpt><trkpt lat="42.0146783" lon="12.7348831"><ele>214.0</ele><time>2026-03-28T13:21:47.552Z</time></trkpt><trkpt lat="42.0147649" lon="12.7350342"><ele>215.0</ele><time>2026-03-28T13:21:48.527Z</time></trkpt><trkpt lat="42.0149612" lon="12.7353338"><ele>217.5</ele><time>2026-03-28T13:21:50.541Z</time></trkpt><trkpt lat="42.015058" lon="12.7354804"><ele>220.0</ele><time>2026-03-28T13:21:51.591Z</time></trkpt><trkpt lat="42.0151565" lon="12.7356263"><ele>222.5</ele><time>2026-03-28T13:21:52.536Z</time></trkpt><trkpt lat="42.0152584" lon="12.7357714"><ele>225.0</ele><time>2026-03-28T13:21:53.541Z</time></trkpt><trkpt lat="42.0153642" lon="12.7359133"><ele>225.0</ele><time>2026-03-28T13:21:54.549Z</time></trkpt><trkpt lat="42.0154755" lon="12.7360478"><ele>225.0</ele><time>2026-03-28T13:21:55.54Z</time></trkpt><trkpt lat="42.0156" lon="12.7361703"><ele>225.0</ele><time>2026-03-28T13:21:56.544Z</time></trkpt><trkpt lat="42.0157305" lon="12.7362886"><ele>226.66666666666669</ele><time>2026-03-28T13:21:57.534Z</time></trkpt><trkpt lat="42.0158613" lon="12.7364117"><ele>228.33333333333334</ele><time>2026-03-28T13:21:58.582Z</time></trkpt><trkpt lat="42.0159808" lon="12.7365459"><ele>230.0</ele><time>2026-03-28T13:21:59.519Z</time></trkpt><trkpt lat="42.0160865" lon="12.7366855"><ele>230.0</ele><time>2026-03-28T13:22:00.547Z</time></trkpt><trkpt lat="42.016175" lon="12.7368189"><ele>230.0</ele><time>2026-03-28T13:22:01.522Z</time></trkpt><trkpt lat="42.0162495" lon="12.736952"><ele>230.0</ele><time>2026-03-28T13:22:02.525Z</time></trkpt><trkpt lat="42.0163069" lon="12.7370842"><ele>230.0</ele><time>2026-03-28T13:22:03.531Z</time></trkpt><trkpt lat="42.0163402" lon="12.7372266"><ele>230.0</ele><time>2026-03-28T13:22:04.566Z</time></trkpt><trkpt lat="42.0163469" lon="12.737382"><ele>230.0</ele><time>2026-03-28T13:22:05.615Z</time></trkpt><trkpt lat="42.016339" lon="12.7375479"><ele>230.0</ele><time>2026-03-28T13:22:06.532Z</time></trkpt><trkpt lat="42.0163334" lon="12.7377313"><ele>230.0</ele><time>2026-03-28T13:22:07.528Z</time></trkpt><trkpt lat="42.0163328" lon="12.7379259"><ele>230.0</ele><time>2026-03-28T13:22:08.54Z</time></trkpt><trkpt lat="42.0163395" lon="12.7381278"><ele>230.0</ele><time>2026-03-28T13:22:09.557Z</time></trkpt><trkpt lat="42.0163557" lon="12.7385429"><ele>229.66666666666669</ele><time>2026-03-28T13:22:11.54Z</time></trkpt><trkpt lat="42.0163581" lon="12.7387497"><ele>229.33333333333331</ele><time>2026-03-28T13:22:12.611Z</time></trkpt><trkpt lat="42.016358" lon="12.7389566"><ele>229.0</ele><time>2026-03-28T13:22:13.531Z</time></trkpt><trkpt lat="42.0163606" lon="12.7391677"><ele>229.0</ele><time>2026-03-28T13:22:14.531Z</time></trkpt><trkpt lat="42.0163604" lon="12.7393794"><ele>229.0</ele><time>2026-03-28T13:22:15.546Z</time></trkpt><trkpt lat="42.0163606" lon="12.7395845"><ele>229.0</ele><time>2026-03-28T13:22:16.539Z</time></trkpt><trkpt lat="42.0163671" lon="12.7397655"><ele>229.0</ele><time>2026-03-28T13:22:17.55Z</time></trkpt><trkpt lat="42.0163734" lon="12.7399224"><ele>230.16666666666666</ele><time>2026-03-28T13:22:18.597Z</time></trkpt><trkpt lat="42.0163825" lon="12.7400469"><ele>231.33333333333331</ele><time>2026-03-28T13:22:19.542Z</time></trkpt><trkpt lat="42.0164078" lon="12.7401509"><ele>232.5</ele><time>2026-03-28T13:22:21.551Z</time></trkpt><trkpt lat="42.0164841" lon="12.7400803"><ele>233.66666666666669</ele><time>2026-03-28T13:22:25.528Z</time></trkpt><trkpt lat="42.0165235" lon="12.7399989"><ele>234.83333333333334</ele><time>2026-03-28T13:22:26.535Z</time></trkpt><trkpt lat="42.016552" lon="12.7398925"><ele>236.0</ele><time>2026-03-28T13:22:27.554Z</time></trkpt><trkpt lat="42.0165884" lon="12.7397602"><ele>236.0</ele><time>2026-03-28T13:22:28.562Z</time></trkpt><trkpt lat="42.016626" lon="12.7396135"><ele>236.0</ele><time>2026-03-28T13:22:29.573Z</time></trkpt><trkpt lat="42.0166795" lon="12.739455"><ele>236.0</ele><time>2026-03-28T13:22:30.588Z</time></trkpt><trkpt lat="42.016809" lon="12.7391502"><ele>239.4</ele><time>2026-03-28T13:22:32.578Z</time></trkpt><trkpt lat="42.0168803" lon="12.7390227"><ele>242.8</ele><time>2026-03-28T13:22:33.552Z</time></trkpt><trkpt lat="42.0169566" lon="12.7389305"><ele>246.20000000000002</ele><time>2026-03-28T13:22:34.525Z</time></trkpt><trkpt lat="42.0170267" lon="12.7388967"><ele>249.60000000000002</ele><time>2026-03-28T13:22:35.535Z</time></trkpt><trkpt lat="42.0171203" lon="12.7389745"><ele>253.0</ele><time>2026-03-28T13:22:37.596Z</time></trkpt><trkpt lat="42.0171229" lon="12.7391296"><ele>253.0</ele><time>2026-03-28T13:22:39.56Z</time></trkpt><trkpt lat="42.0171032" lon="12.73923"><ele>253.0</ele><time>2026-03-28T13:22:40.538Z</time></trkpt><trkpt lat="42.0170675" lon="12.7393389"><ele>253.0</ele><time>2026-03-28T13:22:41.547Z</time></trkpt><trkpt lat="42.0170295" lon="12.7394722"><ele>253.0</ele><time>2026-03-28T13:22:42.544Z</time></trkpt><trkpt lat="42.0169929" lon="12.7396181"><ele>253.0</ele><time>2026-03-28T13:22:43.581Z</time></trkpt><trkpt lat="42.0169554" lon="12.7397792"><ele>254.75</ele><time>2026-03-28T13:22:44.55Z</time></trkpt><trkpt lat="42.0169275" lon="12.7399502"><ele>256.5</ele><time>2026-03-28T13:22:45.611Z</time></trkpt><trkpt lat="42.0169" lon="12.7401287"><ele>258.25</ele><time>2026-03-28T13:22:46.553Z</time></trkpt><trkpt lat="42.016881" lon="12.7403218"><ele>260.0</ele><time>2026-03-28T13:22:47.557Z</time></trkpt><trkpt lat="42.0168662" lon="12.7405265"><ele>262.0</ele><time>2026-03-28T13:22:48.524Z</time></trkpt><trkpt lat="42.0168502" lon="12.7407329"><ele>264.0</ele><time>2026-03-28T13:22:49.596Z</time></trkpt><trkpt lat="42.0168362" lon="12.740933"><ele>266.0</ele><time>2026-03-28T13:22:50.541Z</time></trkpt><trkpt lat="42.0168248" lon="12.7411221"><ele>268.0</ele><time>2026-03-28T13:22:51.558Z</time></trkpt><trkpt lat="42.0168286" lon="12.7414802"><ele>268.5</ele><time>2026-03-28T13:22:53.541Z</time></trkpt><trkpt lat="42.0168462" lon="12.7416478"><ele>269.0</ele><time>2026-03-28T13:22:54.63Z</time></trkpt><trkpt lat="42.0168678" lon="12.741817"><ele>269.5</ele><time>2026-03-28T13:22:55.536Z</time></trkpt><trkpt lat="42.0168921" lon="12.7419909"><ele>270.0</ele><time>2026-03-28T13:22:56.529Z</time></trkpt><trkpt lat="42.0169182" lon="12.7421736"><ele>270.0</ele><time>2026-03-28T13:22:57.554Z</time></trkpt><trkpt lat="42.0169473" lon="12.7423642"><ele>270.0</ele><time>2026-03-28T13:22:58.522Z</time></trkpt><trkpt lat="42.0169913" lon="12.7425539"><ele>270.0</ele><time>2026-03-28T13:22:59.553Z</time></trkpt><trkpt lat="42.0170434" lon="12.7427494"><ele>270.0</ele><time>2026-03-28T13:23:00.571Z</time></trkpt><trkpt lat="42.0171025" lon="12.7429409"><ele>269.0</ele><time>2026-03-28T13:23:01.562Z</time></trkpt><trkpt lat="42.0171631" lon="12.7431221"><ele>268.0</ele><time>2026-03-28T13:23:02.562Z</time></trkpt><trkpt lat="42.0172258" lon="12.7432867"><ele>267.0</ele><time>2026-03-28T13:23:03.573Z</time></trkpt><trkpt lat="42.0172783" lon="12.7434323"><ele>266.0</ele><time>2026-03-28T13:23:04.553Z</time></trkpt><trkpt lat="42.017328" lon="12.7435664"><ele>264.40000000000003</ele><time>2026-03-28T13:23:05.538Z</time></trkpt><trkpt lat="42.0173774" lon="12.74369"><ele>262.8</ele><time>2026-03-28T13:23:06.561Z</time></trkpt><trkpt lat="42.0174396" lon="12.7437983"><ele>261.20000000000005</ele><time>2026-03-28T13:23:07.529Z</time></trkpt><trkpt lat="42.0175319" lon="12.7438718"><ele>259.6</ele><time>2026-03-28T13:23:08.607Z</time></trkpt><trkpt lat="42.0176577" lon="12.7439367"><ele>258.0</ele><time>2026-03-28T13:23:09.536Z</time></trkpt><trkpt lat="42.0177839" lon="12.744001"><ele>267.3333333333333</ele><time>2026-03-28T13:23:10.54Z</time></trkpt><trkpt lat="42.0179099" lon="12.7440705"><ele>276.66666666666663</ele><time>2026-03-28T13:23:11.532Z</time></trkpt><trkpt lat="42.0180448" lon="12.7441389"><ele>286.0</ele><time>2026-03-28T13:23:12.534Z</time></trkpt><trkpt lat="42.0183395" lon="12.7442446"><ele>284.75</ele><time>2026-03-28T13:23:14.544Z</time></trkpt><trkpt lat="42.0184855" lon="12.744304"><ele>283.5</ele><time>2026-03-28T13:23:15.543Z</time></trkpt><trkpt lat="42.0186251" lon="12.7443609"><ele>282.25</ele><time>2026-03-28T13:23:16.565Z</time></trkpt><trkpt lat="42.0187584" lon="12.7444147"><ele>281.0</ele><time>2026-03-28T13:23:17.557Z</time></trkpt><trkpt lat="42.0188815" lon="12.7444705"><ele>281.0</ele><time>2026-03-28T13:23:18.551Z</time></trkpt><trkpt lat="42.0189981" lon="12.744515"><ele>281.0</ele><time>2026-03-28T13:23:19.576Z</time></trkpt><trkpt lat="42.0191186" lon="12.7445533"><ele>281.0</ele><time>2026-03-28T13:23:20.569Z</time></trkpt><trkpt lat="42.0192374" lon="12.7445906"><ele>281.0</ele><time>2026-03-28T13:23:21.537Z</time></trkpt><trkpt lat="42.0193589" lon="12.7446295"><ele>285.75</ele><time>2026-03-28T13:23:22.545Z</time></trkpt><trkpt lat="42.0194766" lon="12.7446791"><ele>290.5</ele><time>2026-03-28T13:23:23.537Z</time></trkpt><trkpt lat="42.019597" lon="12.7447294"><ele>295.25</ele><time>2026-03-28T13:23:24.598Z</time></trkpt><trkpt lat="42.0197154" lon="12.7447717"><ele>300.0</ele><time>2026-03-28T13:23:25.553Z</time></trkpt><trkpt lat="42.0198285" lon="12.7448035"><ele>300.0</ele><time>2026-03-28T13:23:26.592Z</time></trkpt><trkpt lat="42.0199289" lon="12.74481"><ele>300.0</ele><time>2026-03-28T13:23:27.573Z</time></trkpt><trkpt lat="42.0200203" lon="12.7447909"><ele>300.0</ele><time>2026-03-28T13:23:28.539Z</time></trkpt><trkpt lat="42.020109" lon="12.7447714"><ele>300.0</ele><time>2026-03-28T13:23:29.533Z</time></trkpt><trkpt lat="42.0201975" lon="12.7447388"><ele>300.0</ele><time>2026-03-28T13:23:30.566Z</time></trkpt><trkpt lat="42.0202867" lon="12.7446838"><ele>304.0</ele><time>2026-03-28T13:23:31.57Z</time></trkpt><trkpt lat="42.0203792" lon="12.7446015"><ele>308.0</ele><time>2026-03-28T13:23:32.547Z</time></trkpt><trkpt lat="42.0204754" lon="12.7444996"><ele>312.0</ele><time>2026-03-28T13:23:33.557Z</time></trkpt><trkpt lat="42.0206561" lon="12.7442909"><ele>314.0</ele><time>2026-03-28T13:23:35.541Z</time></trkpt><trkpt lat="42.0207316" lon="12.7442063"><ele>316.0</ele><time>2026-03-28T13:23:36.549Z</time></trkpt><trkpt lat="42.0207913" lon="12.744142"><ele>318.0</ele><time>2026-03-28T13:23:37.558Z</time></trkpt><trkpt lat="42.0208436" lon="12.7440936"><ele>320.0</ele><time>2026-03-28T13:23:38.554Z</time></trkpt><trkpt lat="42.0209197" lon="12.744019"><ele>322.0</ele><time>2026-03-28T13:23:40.539Z</time></trkpt><trkpt lat="42.0209866" lon="12.7439988"><ele>324.0</ele><time>2026-03-28T13:23:42.542Z</time></trkpt><trkpt lat="42.0210746" lon="12.7440477"><ele>324.0</ele><time>2026-03-28T13:23:44.544Z</time></trkpt><trkpt lat="42.0211898" lon="12.7440789"><ele>324.0</ele><time>2026-03-28T13:23:46.556Z</time></trkpt><trkpt lat="42.0212667" lon="12.7440555"><ele>324.0</ele><time>2026-03-28T13:23:48.538Z</time></trkpt><trkpt lat="42.0213376" lon="12.7440037"><ele>324.0</ele><time>2026-03-28T13:23:51.53Z</time></trkpt><trkpt lat="42.0214063" lon="12.7440037"><ele>324.0</ele><time>2026-03-28T13:23:55.523Z</time></trkpt></trkseg></trk></gpx>